[[{"header":{"parameterUnit":"m.s-1","parameterCategory":1,"la1":31.0,"la2":29.5877,"lo1":-88.7671,"lo2":-86.6584,"dy":0.0162,"dx":0.0185,"nx":115,"ny":88,"refTime":"2023-07-26T12:00:00:Z","depth":0,"parameterNumber":2,"parameterNumberName":"U-component_of_WINDS"},"data":[0.0,0.0,0.0,0.0,0.0,0.0,0.0,0.0,0.0,0.0,0.0,0.0,0.0,0.0,0.0,0.0,0.0,0.0,0.0,0.0,0.0,0.0,0.0,0.0,0.0,0.0,0.0,0.0,0.0,0.0,0.0,0.0,0.0,0.0,0.0,0.0,0.0,0.0,0.0,0.0,0.0,0.0,0.0,0.0,0.0,0.0,0.0,0.0,0.0,0.0,0.0,0.0,0.0,0.0,0.0,0.0,0.0,0.0,0.0,0.0,0.0,0.0,0.0,0.0,0.0,0.0,0.0,0.0,0.0,0.0,0.0,0.0,0.0,0.0,0.0,0.0,0.0,0.0,0.0,0.0,0.0,0.0,0.0,0.0,0.0,0.0,0.0,0.0,0.0,0.0,0.0,0.0,0.0,0.0,0.0,0.0,0.0,0.0,0.0,0.0,0.0,0.0,0.0,0.0,0.0,0.0,0.0,0.0,0.0,0.0,0.0,0.0,0.0,0.0,0.0,0.0,0.0,0.0,0.0,0.0,0.0,0.0,0.0,0.0,0.0,0.0,0.0,0.0,0.0,0.0,0.0,0.0,0.0,0.0,0.0,0.0,0.0,0.0,0.0,0.0,0.0,0.0,0.0,0.0,0.0,0.0,0.0,0.0,0.0,0.0,0.0,0.0,0.0,0.0,0.0,0.0,0.0,0.0,0.0,0.0,0.0,0.0,0.0,0.0,0.0,0.0,0.0,0.0,0.0,0.0,0.0,0.0,0.0,0.0,0.0,0.0,0.0,0.0,0.0,0.0,0.0,0.0,0.0,0.0,0.0,0.0,0.0,0.0,0.0,0.0,0.0,0.0,0.0,0.0,0.0,0.0,0.0,0.0,0.0,0.0,0.0,0.0,0.0,0.0,0.0,0.0,0.0,0.0,0.0,0.0,0.0,0.0,0.0,0.0,0.0,0.0,0.0,0.0,0.0,0.0,0.0,0.0,0.0,0.0,0.0,0.0,0.0,0.0,0.0,0.0,0.0,0.0,0.0,0.0,0.0,0.0,0.0,0.0,0.0,0.0,0.0,0.0,0.0,0.0,0.0,0.0,0.0,0.0,0.0,0.0,0.0,0.0,0.0,0.0,0.0,0.0,0.0,0.0,0.0,0.0,0.0,0.0,0.0,0.0,0.0,0.0,0.0,0.0,0.0,0.0,0.0,0.0,0.0,0.0,0.0,0.0,0.0,0.0,0.0,0.0,0.0,0.0,0.0,0.0,0.0,0.0,0.0,0.0,0.0,0.0,0.0,0.0,0.0,0.0,0.0,0.0,0.0,0.0,0.0,0.0,0.0,0.0,0.0,0.0,0.0,0.0,0.0,0.0,0.0,0.0,0.0,0.0,0.0,0.0,0.0,0.0,0.0,0.0,0.0,0.0,0.0,0.0,0.0,0.0,0.0,0.0,0.0,0.0,0.0,0.0,0.0,0.0,0.0,0.0,0.0,0.0,0.0,0.0,0.0,0.0,0.0,0.0,0.0,0.0,0.0,0.0,0.0,0.0,0.0,0.0,0.0,0.0,0.0,0.0,0.0,0.0,0.0,0.0,0.0,0.0,0.0,0.0,0.0,0.0,0.0,0.0,0.0,0.0,0.0,0.0,0.0,0.0,0.0,0.0,0.0,0.0,0.0,0.0,0.0,0.0,0.0,0.0,0.0,0.0,0.0,0.0,0.0,0.0,0.0,0.0,0.0,0.0,0.0,0.0,0.0,0.0,0.0,0.0,0.0,0.0,0.0,0.0,0.0,0.0,0.0,0.0,0.0,0.0,0.0,0.0,0.0,0.0,0.0,0.0,0.0,0.0,0.0,0.0,0.0,0.0,0.0,0.0,0.0,0.0,0.0,0.0,0.0,0.0,0.0,0.0,0.0,0.0,0.0,0.0,0.0,0.0,0.0,0.0,0.0,0.0,0.0,0.0,0.0,0.0,0.0,0.0,0.0,0.0,0.0,0.0,0.0,0.0,0.0,0.0,0.0,0.0,0.0,0.0,0.0,0.0,0.0,0.0,0.0,0.0,0.0,0.0,0.0,0.0,0.0,0.0,0.0,0.0,0.0,0.0,0.0,0.0,0.0,0.0,0.0,0.0,0.0,0.0,0.0,0.0,0.0,0.0,0.0,0.0,0.0,0.0,0.0,0.0,0.0,0.0,0.0,0.0,0.0,0.0,0.0,0.0,0.0,0.0,0.0,0.0,0.0,0.0,0.0,0.0,0.0,0.0,0.0,0.0,0.0,0.0,0.0,0.0,0.0,0.0,0.0,0.0,0.0,0.0,0.0,0.0,0.0,0.0,0.0,0.0,0.0,0.0,0.0,0.0,0.0,0.0,0.0,0.0,0.0,0.0,0.0,0.0,0.0,0.0,0.0,0.0,0.0,0.0,0.0,0.0,0.0,0.0,0.0,0.0,0.0,0.0,0.0,0.0,0.0,0.0,0.0,0.0,0.0,0.0,0.0,0.0,0.0,0.0,0.0,0.0,0.0,0.0,0.0,0.0,0.0,0.0,0.0,0.0,0.0,0.0,0.0,0.0,0.0,0.0,0.0,0.0,0.0,0.0,0.0,0.0,0.0,0.0,0.0,0.0,0.0,0.0,0.0,0.0,0.0,0.0,0.0,0.0,0.0,0.0,0.0,0.0,0.0,0.0,0.0,0.0,0.0,0.0,0.0,0.0,0.0,0.0,0.0,0.0,0.0,0.0,0.0,0.0,0.0,0.0,0.0,0.0,0.0,0.0,0.0,0.0,0.0,0.0,0.0,0.0,0.0,0.0,0.0,0.0,0.0,0.0,0.0,0.0,0.0,0.0,0.0,0.0,0.0,0.0,0.0,0.0,0.0,0.0,0.0,0.0,0.0,0.0,0.0,0.0,0.0,0.0,0.0,0.0,0.0,0.0,0.0,0.0,0.0,0.0,0.0,0.0,0.0,0.0,0.0,0.0,0.0,0.0,0.0,0.0,0.0,0.0,0.0,0.0,0.0,0.0,0.0,0.0,0.0,0.0,0.0,0.0,0.0,0.0,0.0,0.0,0.0,0.0,0.0,0.0,0.0,0.0,0.0,0.0,0.0,0.0,0.0,0.0,0.0,0.0,0.0,0.0,0.0,0.0,0.0,0.0,0.0,0.0,0.0,0.0,0.0,0.0,0.0,0.0,0.0,0.0,0.0,0.0,0.0,0.0,0.0,0.0,0.0,0.0,0.0,0.0,0.0,0.0,0.0,0.0,0.0,0.0,0.0,0.0,0.0,0.0,0.0,0.0,0.0,0.0,0.0,0.0,0.0,0.0,0.0,0.0,0.0,0.0,0.0,0.0,0.0,0.0,0.0,0.0,0.0,0.0,0.0,0.0,0.0,0.0,0.0,0.0,0.0,0.0,0.0,0.0,0.0,0.0,0.0,0.0,0.0,0.0,0.0,0.0,0.0,0.0,0.0,0.0,0.0,0.0,0.0,0.0,0.0,0.0,0.0,0.0,0.0,0.0,0.0,0.0,0.0,0.0,0.0,0.0,0.0,0.0,0.0,0.0,0.0,0.0,0.0,0.0,0.0,0.0,0.0,0.0,0.0,0.0,0.0,0.0,0.0,0.0,0.0,0.0,0.0,0.0,0.0,0.0,0.0,0.0,0.0,0.0,0.0,0.0,0.0,0.0,0.0,0.0,0.0,0.0,0.0,0.0,0.0,0.0,0.0,0.0,0.0,0.0,0.0,0.0,0.0,0.0,0.0,0.0,0.0,0.0,0.0,0.0,0.0,0.0,0.0,0.0,0.0,0.0,0.0,0.0,0.0,0.0,0.0,0.0,0.0,0.0,0.0,0.0,0.0,0.0,0.0,0.0,0.0,0.0,0.0,0.0,0.0,0.0,0.0,0.0,0.0,0.0,0.0,0.0,0.0,0.0,0.0,0.0,0.0,0.0,0.0,0.0,0.0,0.0,0.0,0.0,0.0,0.0,0.0,0.0,0.0,0.0,0.0,0.0,0.0,0.0,0.0,0.0,0.0,0.0,0.0,0.0,0.0,0.0,0.0,0.0,0.0,0.0,0.0,0.0,0.0,0.0,0.0,0.0,0.0,0.0,0.0,0.0,0.0,0.0,0.0,0.0,0.0,0.0,0.0,0.0,0.0,0.0,0.0,0.0,0.0,0.0,0.0,0.0,0.0,0.0,0.0,0.0,0.0,0.0,0.0,0.0,0.0,0.0,0.0,0.0,0.0,0.0,0.0,0.0,0.0,0.0,0.0,0.0,-1.7835,0.0,0.0,0.0,0.0,0.0,0.0,0.0,0.0,0.0,0.0,0.0,0.0,0.0,0.0,0.0,0.0,0.0,0.0,0.0,0.0,0.0,0.0,0.0,0.0,0.0,0.0,0.0,0.0,0.0,0.0,0.0,0.0,0.0,0.0,0.0,0.0,0.0,0.0,0.0,0.0,0.0,0.0,0.0,0.0,0.0,0.0,0.0,0.0,0.0,0.0,0.0,0.0,0.0,0.0,0.0,0.0,0.0,0.0,0.0,0.0,0.0,0.0,0.0,0.0,0.0,0.0,0.0,0.0,0.0,0.0,0.0,0.0,0.0,0.0,0.0,0.0,0.0,0.0,0.0,0.0,0.0,0.0,0.0,0.0,0.0,0.0,0.0,0.0,0.0,0.0,0.0,0.0,0.0,0.0,0.0,0.0,0.0,0.0,0.0,0.0,0.0,0.0,0.0,0.0,0.0,0.0,0.0,0.0,0.0,0.0,-1.5415,-1.6208,-1.5791,-1.6287,-1.7808,0.0,0.0,0.0,0.0,0.0,0.0,0.0,0.0,0.0,0.0,0.0,0.0,0.0,0.0,0.0,0.0,0.0,0.0,0.0,0.0,0.0,0.0,0.0,0.0,0.0,0.0,0.0,0.0,0.0,0.0,0.0,0.0,0.0,0.0,0.0,0.0,0.0,0.0,0.0,0.0,0.0,0.0,0.0,0.0,0.0,0.0,0.0,0.0,0.0,0.0,0.0,0.0,0.0,0.0,0.0,0.0,0.0,0.0,0.0,0.0,0.0,0.0,0.0,0.0,0.0,0.0,0.0,0.0,0.0,0.0,0.0,0.0,0.0,0.0,0.0,0.0,0.0,0.0,0.0,0.0,0.0,0.0,0.0,0.0,0.0,0.0,0.0,0.0,0.0,0.0,0.0,0.0,0.0,0.0,0.0,0.0,0.0,0.0,0.0,0.0,0.0,0.0,0.0,0.0,0.0,0.0,0.0,0.0,0.0,0.0,0.0,0.0,-1.5811,-1.6502,-1.8275,0.0,0.0,0.0,0.0,0.0,0.0,0.0,0.0,0.0,0.0,0.0,0.0,0.0,0.0,0.0,0.0,0.0,0.0,0.0,0.0,0.0,0.0,0.0,0.0,0.0,0.0,0.0,0.0,0.0,0.0,0.0,0.0,0.0,0.0,0.0,0.0,0.0,0.0,0.0,0.0,0.0,0.0,0.0,0.0,0.0,0.0,0.0,0.0,0.0,0.0,0.0,0.0,0.0,0.0,0.0,0.0,0.0,0.0,0.0,0.0,0.0,0.0,0.0,0.0,0.0,0.0,0.0,0.0,0.0,0.0,0.0,0.0,0.0,0.0,0.0,0.0,0.0,0.0,0.0,0.0,0.0,0.0,0.0,0.0,0.0,0.0,0.0,0.0,0.0,0.0,0.0,0.0,0.0,0.0,0.0,0.0,0.0,0.0,0.0,0.0,0.0,0.0,0.0,0.0,0.0,0.0,0.0,0.0,0.0,0.0,-1.5834,-1.7611,-1.7815,0.0,-1.9946,0.0,0.0,0.0,0.0,0.0,0.0,0.0,0.0,0.0,0.0,0.0,0.0,0.0,0.0,0.0,0.0,0.0,0.0,0.0,0.0,0.0,0.0,0.0,0.0,0.0,0.0,0.0,0.0,0.0,0.0,0.0,0.0,0.0,0.0,0.0,0.0,0.0,0.0,0.0,0.0,0.0,0.0,0.0,0.0,0.0,0.0,0.0,0.0,0.0,0.0,0.0,0.0,0.0,0.0,0.0,0.0,0.0,0.0,0.0,0.0,0.0,0.0,0.0,0.0,0.0,0.0,0.0,0.0,0.0,0.0,0.0,0.0,0.0,0.0,0.0,0.0,0.0,0.0,0.0,0.0,0.0,0.0,0.0,0.0,0.0,0.0,0.0,0.0,0.0,0.0,0.0,0.0,0.0,0.0,0.0,0.0,0.0,0.0,0.0,0.0,0.0,0.0,0.0,0.0,0.0,0.0,0.0,0.0,0.0,0.0,-1.5663,-1.71,-1.7592,-1.7993,0.0,0.0,0.0,0.0,0.0,0.0,0.0,0.0,0.0,0.0,0.0,0.0,0.0,0.0,0.0,0.0,0.0,0.0,0.0,0.0,0.0,0.0,0.0,0.0,0.0,0.0,0.0,0.0,0.0,0.0,0.0,0.0,0.0,0.0,0.0,0.0,0.0,0.0,0.0,0.0,0.0,0.0,0.0,0.0,0.0,0.0,0.0,0.0,0.0,0.0,0.0,0.0,0.0,0.0,0.0,0.0,0.0,0.0,0.0,0.0,0.0,0.0,0.0,0.0,0.0,0.0,0.0,0.0,0.0,0.0,0.0,0.0,0.0,0.0,0.0,0.0,0.0,0.0,0.0,0.0,0.0,0.0,0.0,0.0,0.0,0.0,0.0,0.0,0.0,0.0,0.0,0.0,0.0,0.0,0.0,0.0,0.0,0.0,0.0,0.0,0.0,0.0,0.0,0.0,0.0,0.0,0.0,0.0,0.0,0.0,-1.5208,-1.5758,-1.6782,-1.703,-1.7074,-1.6898,0.0,0.0,0.0,0.0,0.0,0.0,0.0,0.0,0.0,0.0,0.0,0.0,0.0,0.0,0.0,0.0,0.0,0.0,0.0,0.0,0.0,0.0,0.0,0.0,0.0,0.0,0.0,0.0,0.0,0.0,0.0,0.0,0.0,0.0,0.0,0.0,0.0,0.0,0.0,0.0,0.0,0.0,0.0,0.0,0.0,0.0,0.0,0.0,0.0,0.0,0.0,0.0,0.0,0.0,0.0,0.0,0.0,0.0,0.0,0.0,0.0,0.0,0.0,0.0,0.0,0.0,0.0,0.0,0.0,0.0,0.0,0.0,0.0,0.0,0.0,0.0,0.0,0.0,0.0,0.0,0.0,0.0,0.0,0.0,0.0,0.0,0.0,0.0,0.0,0.0,0.0,0.0,0.0,0.0,0.0,0.0,0.0,0.0,0.0,0.0,0.0,0.0,0.0,0.0,0.0,0.0,0.0,0.0,-1.8002,-1.6592,-1.6327,-1.7458,-1.6515,-1.6286,0.0,0.0,0.0,0.0,0.0,0.0,0.0,0.0,0.0,0.0,0.0,0.0,0.0,0.0,0.0,0.0,0.0,0.0,0.0,0.0,0.0,0.0,0.0,0.0,0.0,0.0,0.0,0.0,0.0,0.0,0.0,0.0,0.0,0.0,0.0,0.0,0.0,0.0,0.0,0.0,0.0,0.0,0.0,0.0,0.0,0.0,0.0,0.0,0.0,0.0,0.0,0.0,0.0,0.0,0.0,0.0,0.0,0.0,0.0,0.0,0.0,0.0,0.0,0.0,0.0,0.0,0.0,0.0,0.0,0.0,0.0,0.0,0.0,0.0,0.0,0.0,0.0,0.0,0.0,0.0,0.0,0.0,0.0,0.0,0.0,0.0,0.0,0.0,0.0,0.0,0.0,0.0,0.0,0.0,0.0,0.0,0.0,0.0,0.0,0.0,0.0,0.0,0.0,0.0,0.0,0.0,0.0,0.0,0.0,-1.5012,-1.5233,-1.5978,-1.7196,-1.5711,-1.533,0.0,0.0,0.0,0.0,0.0,0.0,0.0,0.0,0.0,0.0,0.0,0.0,0.0,0.0,0.0,0.0,0.0,0.0,0.0,0.0,0.0,0.0,0.0,0.0,0.0,0.0,0.0,0.0,0.0,0.0,0.0,0.0,0.0,0.0,0.0,0.0,0.0,0.0,0.0,0.0,0.0,0.0,0.0,0.0,0.0,0.0,0.0,0.0,0.0,0.0,0.0,0.0,0.0,0.0,0.0,0.0,0.0,0.0,0.0,0.0,0.0,0.0,0.0,0.0,0.0,0.0,0.0,0.0,0.0,0.0,0.0,0.0,0.0,0.0,0.0,0.0,0.0,0.0,0.0,0.0,0.0,0.0,0.0,0.0,0.0,0.0,0.0,0.0,0.0,0.0,0.0,0.0,0.0,0.0,0.0,0.0,0.0,0.0,0.0,0.0,0.0,0.0,0.0,0.0,0.0,0.0,0.0,0.0,0.0,-1.3924,0.0,-1.6324,-1.6641,-1.5427,-1.4989,0.0,0.0,0.0,0.0,0.0,0.0,0.0,0.0,0.0,0.0,0.0,0.0,0.0,0.0,0.0,0.0,0.0,0.0,0.0,0.0,0.0,0.0,0.0,0.0,0.0,0.0,0.0,0.0,0.0,0.0,0.0,0.0,0.0,0.0,0.0,0.0,0.0,0.0,0.0,0.0,0.0,0.0,0.0,0.0,0.0,0.0,0.0,0.0,0.0,0.0,0.0,0.0,0.0,0.0,0.0,0.0,0.0,0.0,0.0,0.0,0.0,0.0,0.0,0.0,0.0,0.0,0.0,0.0,0.0,0.0,0.0,0.0,0.0,0.0,0.0,0.0,0.0,0.0,0.0,0.0,0.0,0.0,0.0,0.0,0.0,0.0,0.0,0.0,0.0,0.0,0.0,0.0,0.0,0.0,0.0,0.0,0.0,0.0,0.0,0.0,0.0,0.0,0.0,0.0,0.0,0.0,0.0,0.0,-1.3035,-1.5399,-1.7155,-1.7298,-1.5838,-1.5709,-1.5242,0.0,0.0,0.0,0.0,0.0,0.0,0.0,0.0,0.0,0.0,0.0,0.0,0.0,0.0,0.0,0.0,0.0,0.0,0.0,0.0,0.0,0.0,0.0,0.0,0.0,0.0,0.0,0.0,0.0,0.0,0.0,0.0,0.0,0.0,0.0,0.0,0.0,0.0,0.0,0.0,0.0,0.0,0.0,0.0,0.0,0.0,0.0,0.0,0.0,0.0,0.0,0.0,0.0,0.0,0.0,0.0,0.0,0.0,0.0,0.0,0.0,0.0,0.0,0.0,0.0,0.0,0.0,0.0,0.0,0.0,0.0,0.0,0.0,0.0,0.0,0.0,0.0,0.0,0.0,0.0,0.0,0.0,0.0,0.0,0.0,0.0,0.0,0.0,0.0,0.0,0.0,0.0,0.0,0.0,0.0,0.0,0.0,0.0,0.0,0.0,0.0,0.0,0.0,0.0,0.0,0.0,0.0,0.0,0.0,-1.3882,-1.4566,-1.6104,-1.8327,-1.5256,-1.4987,0.0,0.0,0.0,0.0,0.0,0.0,0.0,0.0,0.0,0.0,0.0,0.0,0.0,0.0,0.0,0.0,0.0,0.0,0.0,0.0,0.0,0.0,0.0,0.0,0.0,0.0,0.0,0.0,0.0,0.0,0.0,0.0,0.0,0.0,0.0,0.0,0.0,0.0,0.0,0.0,0.0,0.0,0.0,0.0,0.0,0.0,0.0,0.0,0.0,0.0,0.0,0.0,0.0,0.0,0.0,0.0,0.0,0.0,0.0,0.0,0.0,0.0,0.0,0.0,0.0,0.0,0.0,0.0,0.0,0.0,0.0,0.0,0.0,0.0,0.0,0.0,0.0,0.0,0.0,0.0,0.0,0.0,0.0,0.0,0.0,0.0,0.0,0.0,0.0,0.0,0.0,0.0,0.0,0.0,0.0,0.0,0.0,0.0,0.0,0.0,0.0,0.0,0.0,0.0,0.0,0.0,0.0,0.0,0.0,-1.3634,-1.4749,-1.6389,-1.872,-1.6166,-1.5955,-1.8355,0.0,0.0,0.0,0.0,0.0,0.0,0.0,0.0,0.0,0.0,0.0,0.0,0.0,0.0,0.0,0.0,0.0,0.0,0.0,0.0,0.0,0.0,0.0,0.0,0.0,0.0,0.0,0.0,0.0,0.0,0.0,0.0,0.0,0.0,0.0,0.0,0.0,0.0,0.0,0.0,0.0,0.0,0.0,0.0,0.0,0.0,0.0,0.0,0.0,0.0,0.0,0.0,0.0,0.0,0.0,0.0,0.0,0.0,0.0,0.0,0.0,0.0,0.0,0.0,0.0,0.0,0.0,0.0,0.0,0.0,0.0,0.0,0.0,0.0,0.0,0.0,0.0,0.0,0.0,0.0,0.0,0.0,0.0,0.0,0.0,0.0,0.0,0.0,0.0,0.0,0.0,0.0,0.0,0.0,0.0,0.0,0.0,0.0,0.0,0.0,0.0,0.0,0.0,0.0,0.0,0.0,0.0,0.0,-1.4507,-1.7194,-1.8167,-1.7314,-1.8157,-1.7853,0.0,0.0,0.0,0.0,0.0,0.0,0.0,0.0,0.0,0.0,0.0,0.0,0.0,0.0,0.0,0.0,0.0,0.0,0.0,0.0,0.0,0.0,0.0,0.0,0.0,0.0,0.0,0.0,0.0,0.0,0.0,0.0,0.0,0.0,0.0,0.0,0.0,0.0,0.0,0.0,0.0,0.0,0.0,0.0,0.0,0.0,0.0,0.0,0.0,0.0,0.0,0.0,0.0,0.0,0.0,0.0,0.0,0.0,0.0,0.0,0.0,0.0,0.0,0.0,0.0,0.0,0.0,0.0,0.0,0.0,0.0,0.0,0.0,0.0,0.0,0.0,0.0,0.0,0.0,0.0,0.0,0.0,0.0,0.0,0.0,0.0,0.0,0.0,0.0,0.0,0.0,0.0,0.0,0.0,0.0,0.0,0.0,0.0,0.0,0.0,0.0,0.0,0.0,0.0,0.0,0.0,0.0,0.0,0.0,-1.5885,-1.8669,-2.0332,-2.0751,-1.8735,-1.8327,0.0,0.0,0.0,0.0,0.0,0.0,0.0,0.0,0.0,0.0,0.0,0.0,0.0,0.0,0.0,0.0,0.0,0.0,0.0,0.0,0.0,0.0,0.0,0.0,0.0,0.0,0.0,0.0,0.0,0.0,0.0,0.0,0.0,0.0,0.0,0.0,0.0,0.0,0.0,0.0,0.0,0.0,0.0,0.0,0.0,0.0,0.0,0.0,0.0,0.0,0.0,0.0,0.0,0.0,0.0,0.0,0.0,0.0,0.0,0.0,0.0,0.0,0.0,0.0,0.0,0.0,0.0,0.0,0.0,0.0,0.0,0.0,0.0,0.0,0.0,0.0,0.0,0.0,0.0,0.0,0.0,0.0,0.0,0.0,0.0,0.0,0.0,0.0,0.0,0.0,0.0,0.0,0.0,0.0,0.0,0.0,0.0,0.0,0.0,0.0,0.0,0.0,0.0,0.0,0.0,0.0,0.0,0.0,-1.4838,-1.6783,-1.9648,-2.1581,-2.2593,-2.0988,-2.0083,0.0,0.0,0.0,0.0,0.0,0.0,0.0,0.0,0.0,0.0,0.0,0.0,0.0,0.0,0.0,0.0,0.0,0.0,0.0,0.0,0.0,0.0,0.0,0.0,0.0,0.0,0.0,0.0,0.0,0.0,0.0,0.0,0.0,0.0,0.0,0.0,0.0,0.0,0.0,0.0,0.0,0.0,0.0,0.0,0.0,0.0,0.0,0.0,0.0,0.0,0.0,0.0,0.0,0.0,0.0,0.0,0.0,0.0,0.0,0.0,0.0,0.0,0.0,0.0,0.0,0.0,0.0,0.0,0.0,0.0,0.0,0.0,0.0,0.0,0.0,0.0,0.0,0.0,0.0,0.0,0.0,0.0,0.0,0.0,0.0,0.0,0.0,0.0,0.0,0.0,0.0,0.0,0.0,0.0,0.0,0.0,0.0,0.0,0.0,0.0,0.0,0.0,0.0,0.0,0.0,0.0,0.0,0.0,-1.5781,-1.7413,-2.022,-2.2194,-2.324,-2.3547,-2.2132,0.0,0.0,0.0,0.0,0.0,0.0,0.0,0.0,0.0,0.0,0.0,0.0,0.0,0.0,0.0,0.0,0.0,0.0,0.0,0.0,0.0,0.0,0.0,0.0,0.0,0.0,0.0,0.0,0.0,0.0,0.0,0.0,0.0,0.0,0.0,0.0,0.0,0.0,0.0,0.0,0.0,0.0,0.0,0.0,0.0,0.0,0.0,0.0,0.0,0.0,0.0,0.0,0.0,0.0,0.0,0.0,0.0,0.0,0.0,0.0,0.0,0.0,0.0,0.0,0.0,0.0,0.0,0.0,0.0,0.0,0.0,0.0,0.0,0.0,0.0,0.0,0.0,0.0,0.0,0.0,0.0,0.0,0.0,0.0,0.0,0.0,0.0,0.0,0.0,0.0,0.0,0.0,0.0,0.0,0.0,0.0,0.0,0.0,0.0,0.0,0.0,0.0,0.0,0.0,0.0,0.0,0.0,0.0,-1.5209,-1.7763,-2.0351,-2.2337,-2.3638,-2.2106,-2.0797,0.0,0.0,0.0,0.0,0.0,0.0,0.0,0.0,0.0,0.0,0.0,0.0,0.0,0.0,0.0,0.0,0.0,0.0,0.0,0.0,0.0,0.0,0.0,0.0,0.0,0.0,0.0,0.0,0.0,0.0,0.0,0.0,0.0,0.0,0.0,0.0,0.0,0.0,0.0,0.0,0.0,0.0,0.0,0.0,0.0,0.0,0.0,0.0,-0.8368,0.0,0.0,0.0,0.0,0.0,0.0,0.0,0.0,0.0,0.0,0.0,0.0,0.0,0.0,0.0,0.0,0.0,0.0,0.0,0.0,0.0,0.0,0.0,0.0,0.0,0.0,0.0,0.0,0.0,0.0,0.0,0.0,0.0,0.0,0.0,0.0,0.0,0.0,0.0,0.0,0.0,0.0,0.0,0.0,0.0,0.0,0.0,0.0,0.0,0.0,0.0,0.0,0.0,0.0,0.0,0.0,0.0,0.0,0.0,-1.6131,-1.8815,-2.0327,-2.1822,-2.3156,-2.0775,-1.9689,0.0,0.0,0.0,0.0,0.0,0.0,0.0,0.0,0.0,0.0,0.0,0.0,0.0,0.0,0.0,0.0,0.0,0.0,0.0,0.0,0.0,0.0,0.0,0.0,0.0,0.0,0.0,0.0,0.0,0.0,0.0,0.0,0.0,0.0,0.0,0.0,0.0,0.0,0.0,0.0,0.0,0.0,0.0,0.0,0.0,0.0,0.0,0.0,0.0,0.0,0.0,0.0,0.0,0.0,0.0,0.0,0.0,0.0,0.0,0.0,0.0,0.0,0.0,0.0,0.0,0.0,0.0,0.0,0.0,0.0,0.0,0.0,0.0,0.0,0.0,0.0,0.0,0.0,0.0,0.0,0.0,0.0,0.0,0.0,0.0,0.0,0.0,0.0,0.0,0.0,0.0,0.0,0.0,0.0,0.0,0.0,0.0,0.0,0.0,0.0,0.0,0.0,0.0,0.0,0.0,0.0,0.0,-1.4875,-1.7074,-1.9667,-2.0206,-2.1069,-2.2345,-1.9665,-1.8779,-2.0041,0.0,0.0,0.0,0.0,0.0,0.0,0.0,0.0,0.0,0.0,0.0,0.0,0.0,0.0,0.0,0.0,0.0,0.0,0.0,0.0,0.0,0.0,0.0,0.0,0.0,0.0,0.0,0.0,0.0,0.0,0.0,0.0,0.0,0.0,0.0,0.0,0.0,0.0,-0.494,-0.6802,0.0,0.0,0.0,0.0,0.0,0.0,0.0,0.0,-0.7532,0.0,0.0,0.0,0.0,0.0,0.0,0.0,0.0,0.0,0.0,0.0,0.0,0.0,0.0,0.0,0.0,0.0,0.0,0.0,0.0,0.0,0.0,0.0,0.0,0.0,0.0,0.0,0.0,0.0,0.0,0.0,0.0,0.0,0.0,0.0,0.0,0.0,0.0,0.0,0.0,0.0,0.0,0.0,0.0,0.0,0.0,0.0,0.0,0.0,0.0,0.0,0.0,0.0,0.0,0.0,0.0,-1.2344,-1.3899,-1.6033,-1.8756,-1.9863,-2.0513,-2.0665,-1.8967,-1.8114,-1.8262,0.0,0.0,0.0,0.0,0.0,0.0,0.0,0.0,0.0,0.0,0.0,0.0,0.0,0.0,0.0,0.0,0.0,0.0,0.0,0.0,0.0,0.0,0.0,0.0,0.0,0.0,0.0,0.0,0.0,0.0,0.0,0.0,0.0,0.0,0.0,0.0,0.0,0.0,0.0,-0.5977,-0.6413,0.0,0.0,0.0,0.0,0.0,0.0,0.0,0.0,-0.6611,0.0,0.0,0.0,0.0,0.0,0.0,0.0,0.0,0.0,0.0,0.0,0.0,0.0,0.0,0.0,0.0,0.0,0.0,0.0,0.0,0.0,0.0,0.0,0.0,0.0,0.0,0.0,0.0,0.0,0.0,0.0,0.0,0.0,0.0,0.0,0.0,0.0,0.0,0.0,0.0,0.0,0.0,0.0,0.0,0.0,0.0,0.0,0.0,0.0,0.0,0.0,0.0,0.0,0.0,0.0,-1.3293,-1.4536,-1.6222,-1.8376,-1.9081,-1.9445,-1.9535,-1.7715,-1.7157,0.0,0.0,0.0,0.0,0.0,0.0,0.0,0.0,0.0,0.0,0.0,0.0,0.0,0.0,0.0,0.0,0.0,0.0,0.0,0.0,0.0,0.0,0.0,0.0,0.0,0.0,0.0,0.0,0.0,0.0,0.0,0.0,0.0,0.0,0.0,0.0,0.0,0.0,0.0,0.0,-0.5971,-0.6159,-0.5854,0.0,0.0,0.0,0.0,0.0,0.0,-0.6344,-0.6905,0.0,0.0,0.0,0.0,0.0,0.0,0.0,0.0,0.0,0.0,0.0,0.0,0.0,0.0,0.0,0.0,0.0,0.0,0.0,0.0,0.0,0.0,0.0,0.0,0.0,0.0,0.0,0.0,0.0,0.0,0.0,0.0,0.0,0.0,0.0,0.0,0.0,0.0,0.0,0.0,0.0,0.0,0.0,0.0,0.0,0.0,0.0,0.0,0.0,0.0,0.0,0.0,0.0,0.0,0.0,-1.411,-1.5186,-1.6407,-1.7881,-1.8062,-1.819,-1.8305,-1.6359,-1.6127,0.0,0.0,0.0,0.0,0.0,0.0,0.0,0.0,0.0,0.0,0.0,0.0,0.0,0.0,0.0,0.0,0.0,0.0,0.0,0.0,0.0,0.0,0.0,0.0,0.0,0.0,0.0,0.0,0.0,0.0,0.0,0.0,0.0,0.0,0.0,0.0,0.0,0.0,0.0,0.0,0.0,-0.6138,-0.5503,-0.5684,0.0,0.0,0.0,0.0,-0.6014,-0.6617,0.0,0.0,0.0,0.0,0.0,0.0,0.0,0.0,0.0,0.0,0.0,0.0,0.0,0.0,0.0,0.0,0.0,0.0,0.0,0.0,0.0,0.0,0.0,0.0,0.0,0.0,0.0,0.0,0.0,0.0,0.0,0.0,0.0,0.0,0.0,0.0,0.0,0.0,0.0,0.0,0.0,0.0,0.0,0.0,0.0,0.0,0.0,0.0,0.0,0.0,0.0,0.0,0.0,0.0,0.0,0.0,-1.3293,-1.4392,-1.5561,-1.6812,-1.6764,-1.6667,-1.6486,-1.5224,-1.505,0.0,0.0,0.0,0.0,0.0,0.0,0.0,0.0,0.0,0.0,0.0,0.0,0.0,0.0,0.0,0.0,0.0,0.0,0.0,0.0,0.0,0.0,0.0,0.0,0.0,0.0,0.0,0.0,0.0,0.0,0.0,0.0,0.0,0.0,0.0,0.0,0.0,0.0,0.0,0.0,0.0,-0.56,-0.5488,-0.5528,-0.5578,0.0,0.0,-0.5678,-0.5868,-0.6206,0.0,0.0,0.0,0.0,0.0,0.0,0.0,0.0,0.0,0.0,0.0,0.0,0.0,0.0,0.0,0.0,0.0,0.0,0.0,0.0,0.0,0.0,0.0,0.0,0.0,0.0,0.0,0.0,0.0,0.0,0.0,0.0,0.0,0.0,0.0,0.0,0.0,0.0,0.0,0.0,0.0,0.0,0.0,0.0,0.0,0.0,0.0,0.0,0.0,0.0,0.0,0.0,0.0,0.0,0.0,-1.16,-1.2584,-1.4023,-1.5037,-1.5578,-1.6023,-1.5892,-1.5068,-1.364,-1.3718,0.0,0.0,0.0,0.0,0.0,0.0,0.0,0.0,0.0,0.0,0.0,0.0,0.0,0.0,0.0,0.0,0.0,0.0,0.0,0.0,0.0,0.0,0.0,0.0,0.0,0.0,0.0,0.0,0.0,0.0,0.0,0.0,0.0,0.0,0.0,0.0,0.0,0.0,0.0,0.0,0.0,0.0,-0.5178,-0.5497,0.0,0.0,0.0,-0.6345,-0.5857,0.0,0.0,0.0,0.0,0.0,0.0,0.0,0.0,0.0,0.0,0.0,0.0,0.0,0.0,0.0,0.0,0.0,0.0,0.0,0.0,0.0,0.0,0.0,0.0,0.0,0.0,0.0,0.0,0.0,0.0,0.0,0.0,0.0,0.0,0.0,0.0,0.0,0.0,0.0,0.0,0.0,0.0,0.0,0.0,0.0,0.0,0.0,0.0,0.0,0.0,0.0,0.0,0.0,0.0,0.0,0.0,0.0,-1.2234,-1.3544,-1.4284,-1.4501,-1.5027,-1.4842,-1.3829,-1.2263,0.0,0.0,0.0,0.0,0.0,0.0,0.0,0.0,0.0,0.0,0.0,0.0,0.0,0.0,0.0,0.0,0.0,0.0,0.0,0.0,0.0,0.0,0.0,0.0,0.0,0.0,0.0,0.0,0.0,0.0,0.0,0.0,0.0,0.0,0.0,0.0,0.0,0.0,0.0,0.0,0.0,0.0,-0.5022,-0.4912,-0.5561,-0.5861,0.0,0.0,-0.6994,-0.5804,-0.5998,-0.6234,0.0,0.0,0.0,0.0,0.0,0.0,0.0,0.0,0.0,0.0,0.0,0.0,0.0,0.0,0.0,0.0,0.0,0.0,0.0,0.0,0.0,0.0,0.0,0.0,0.0,0.0,0.0,0.0,0.0,0.0,0.0,0.0,0.0,0.0,0.0,0.0,0.0,0.0,0.0,0.0,0.0,0.0,0.0,0.0,0.0,0.0,0.0,0.0,0.0,0.0,0.0,0.0,0.0,0.0,0.0,-1.2618,-1.2767,-1.3207,-1.392,-1.3541,-1.3118,-1.2713,-1.1445,-1.1893,0.0,0.0,0.0,0.0,0.0,0.0,0.0,0.0,0.0,0.0,0.0,0.0,0.0,0.0,0.0,0.0,0.0,0.0,0.0,0.0,0.0,0.0,0.0,0.0,0.0,0.0,0.0,0.0,0.0,0.0,0.0,0.0,0.0,0.0,0.0,0.0,0.0,0.0,0.0,0.0,0.0,-0.4957,-0.4908,-0.5645,-0.6179,0.0,0.0,-0.7168,-0.5651,-0.6317,-0.693,-0.6685,0.0,0.0,0.0,0.0,0.0,0.0,0.0,0.0,0.0,0.0,0.0,0.0,0.0,0.0,0.0,0.0,0.0,0.0,0.0,0.0,0.0,0.0,0.0,0.0,0.0,0.0,0.0,0.0,0.0,0.0,0.0,0.0,0.0,0.0,0.0,0.0,0.0,0.0,0.0,0.0,0.0,0.0,0.0,0.0,0.0,0.0,0.0,0.0,0.0,0.0,0.0,0.0,0.0,-1.143,-1.2246,-1.2675,-1.3068,-1.3444,-1.3493,-1.3194,-1.262,-1.0541,-1.0307,0.0,0.0,0.0,0.0,0.0,0.0,0.0,0.0,0.0,0.0,0.0,0.0,0.0,0.0,0.0,0.0,0.0,0.0,0.0,0.0,0.0,0.0,0.0,0.0,0.0,0.0,0.0,0.0,-0.4704,-0.4608,-0.5423,0.0,0.0,0.0,0.0,0.0,0.0,0.0,0.0,0.0,0.0,-0.5044,-0.519,-0.5339,0.0,0.0,-0.6091,-0.6255,-0.5254,-0.5726,-0.6163,-0.595,-0.5641,0.0,0.0,0.0,0.0,0.0,0.0,0.0,0.0,0.0,0.0,0.0,0.0,0.0,0.0,0.0,0.0,0.0,0.0,0.0,0.0,0.0,0.0,0.0,0.0,0.0,0.0,0.0,0.0,0.0,0.0,0.0,0.0,0.0,0.0,0.0,0.0,0.0,0.0,0.0,0.0,0.0,0.0,0.0,0.0,0.0,0.0,0.0,0.0,0.0,0.0,0.0,0.0,-1.1585,-1.2303,-1.2619,-1.2823,-1.296,-1.3194,-1.3043,-1.2385,-0.9966,-0.943,0.0,0.0,0.0,0.0,0.0,0.0,0.0,0.0,0.0,0.0,0.0,0.0,0.0,0.0,0.0,0.0,0.0,0.0,0.0,0.0,0.0,0.0,0.0,0.0,0.0,0.0,0.0,0.0,-0.458,-0.4615,-0.5139,0.0,0.0,0.0,0.0,0.0,0.0,0.0,0.0,0.0,0.0,-0.5121,-0.5356,-0.5452,-0.5512,-0.5534,-0.6092,-0.6233,-0.5513,-0.5668,-0.5711,-0.5426,0.0,0.0,0.0,0.0,0.0,0.0,0.0,0.0,0.0,0.0,0.0,0.0,0.0,0.0,0.0,0.0,0.0,0.0,0.0,0.0,0.0,0.0,0.0,0.0,0.0,0.0,0.0,0.0,0.0,0.0,-1.8545,0.0,0.0,0.0,0.0,0.0,0.0,0.0,0.0,0.0,0.0,0.0,0.0,0.0,0.0,0.0,0.0,0.0,0.0,0.0,0.0,0.0,0.0,-1.2148,-1.3043,-1.2516,-1.2303,-1.243,-1.2487,-1.2396,-1.2009,-0.9875,-0.9522,-1.1239,0.0,0.0,0.0,0.0,0.0,0.0,0.0,0.0,0.0,0.0,0.0,0.0,0.0,0.0,0.0,0.0,0.0,0.0,0.0,0.0,0.0,0.0,0.0,0.0,0.0,0.0,-0.5701,-0.5524,-0.5312,0.0,0.0,0.0,0.0,0.0,0.0,0.0,0.0,0.0,0.0,-0.5124,-0.523,-0.5305,-0.6136,-0.6708,-0.687,-0.7423,-0.7497,-0.6594,-0.6272,-0.591,0.0,0.0,0.0,0.0,0.0,0.0,0.0,0.0,0.0,0.0,0.0,0.0,0.0,0.0,0.0,0.0,0.0,0.0,0.0,0.0,0.0,0.0,0.0,0.0,0.0,0.0,0.0,-1.9204,-1.92,0.0,0.0,0.0,0.0,0.0,0.0,0.0,0.0,0.0,0.0,0.0,-1.6338,-1.6992,0.0,0.0,0.0,0.0,0.0,0.0,0.0,0.0,0.0,0.0,0.0,0.0,-1.2388,-1.3159,-1.2569,-1.2282,-1.2455,-1.2614,-1.274,-1.2773,-1.121,-1.045,-1.0613,0.0,0.0,0.0,0.0,0.0,0.0,0.0,0.0,0.0,0.0,0.0,0.0,0.0,0.0,0.0,0.0,0.0,0.0,0.0,0.0,0.0,0.0,0.0,0.0,0.0,-0.5444,0.0,0.0,0.0,0.0,0.0,0.0,0.0,0.0,0.0,0.0,0.0,-0.4903,-0.5521,-0.5863,-0.5943,-0.5659,-0.5864,-0.6001,0.0,0.0,0.0,0.0,0.0,0.0,0.0,0.0,0.0,0.0,0.0,0.0,0.0,0.0,-0.4983,-0.5269,-0.4417,-0.3672,-0.3743,0.0,0.0,0.0,0.0,0.0,0.0,0.0,0.0,0.0,0.0,0.0,0.0,0.0,0.0,0.0,0.0,-1.9216,0.0,0.0,0.0,0.0,0.0,0.0,0.0,0.0,-1.6338,-1.675,-1.723,-1.7451,-1.7304,0.0,-1.7593,-1.6818,0.0,0.0,0.0,0.0,0.0,0.0,0.0,0.0,-1.2661,-1.3163,-1.2595,-1.2412,-1.2594,-1.2815,-1.3016,-1.3227,-1.1953,-1.0544,-0.914,-0.889,-0.9146,0.0,0.0,0.0,0.0,0.0,0.0,0.0,0.0,0.0,0.0,0.0,0.0,0.0,0.0,0.0,0.0,0.0,0.0,0.0,0.0,0.0,0.0,0.0,-0.5336,0.0,0.0,0.0,0.0,0.0,0.0,0.0,0.0,0.0,-0.5879,-0.5396,-0.5274,-0.5994,-0.6337,-0.6296,-0.5764,0.0,0.0,0.0,0.0,0.0,0.0,0.0,-0.67,-0.6359,-0.6851,-0.7183,-0.6777,-0.6557,-0.6206,-0.5572,0.0,0.0,-0.4996,-0.4428,-0.3921,-0.402,-0.3631,-0.3447,-0.3906,-0.4026,-0.3983,0.0,0.0,0.0,0.0,0.0,0.0,0.0,0.0,-1.6218,-1.6863,0.0,-1.8176,0.0,0.0,0.0,0.0,0.0,-1.6691,0.0,0.0,-1.6488,-1.6712,-1.7512,-1.7105,-1.6151,-1.4993,-1.7223,-1.6899,-1.4357,-1.4091,0.0,0.0,0.0,0.0,0.0,0.0,-1.2939,-1.2985,-1.2692,-1.2626,-1.2799,-1.2995,-1.319,-1.3346,-1.2011,-0.9933,-0.7174,-0.9024,-0.9502,-0.8046,-1.1391,0.0,0.0,0.0,0.0,0.0,0.0,0.0,0.0,0.0,0.0,0.0,0.0,0.0,0.0,0.0,0.0,0.0,0.0,0.0,0.0,-0.513,0.0,0.0,0.0,0.0,0.0,0.0,0.0,0.0,0.0,0.0,-0.6514,-0.6194,-0.6104,-0.6391,0.0,0.0,0.0,0.0,-0.6498,-0.6637,-0.6971,-0.7302,-0.7732,-0.709,-0.6593,-0.6678,0.0,0.0,-0.5868,-0.5604,-0.5379,-0.5221,-0.4734,-0.4212,-0.4096,-0.3796,-0.3535,-0.3547,-0.3454,-0.3444,-0.3724,-0.3822,-0.391,-2.3684,0.0,0.0,0.0,0.0,-2.0474,-1.9581,-1.8391,-1.8786,-1.8617,-1.8063,-1.8007,0.0,0.0,0.0,0.0,0.0,0.0,-1.8875,-1.8192,-1.8656,-1.8849,-1.8808,-1.9106,-1.8511,-1.7219,-1.8856,-1.8127,-1.5339,-1.6381,-1.6622,-1.5958,0.0,0.0,0.0,0.0,-1.3362,-1.2962,-1.3177,-1.3135,-1.2794,-1.3012,-1.3138,-1.3261,-1.1893,-1.0229,-0.8301,-0.7897,-0.7691,-0.7711,-0.8773,0.0,0.0,0.0,0.0,0.0,0.0,0.0,0.0,0.0,0.0,0.0,0.0,0.0,0.0,0.0,0.0,0.0,0.0,0.0,-0.6623,-0.5605,-0.5514,0.0,0.0,0.0,0.0,0.0,0.0,0.0,0.0,0.0,-0.741,-0.656,-0.5999,0.0,0.0,-0.6976,-0.6287,-0.6744,-0.6973,-0.6639,0.0,0.0,0.0,-0.7046,-0.7133,-0.6507,-0.6578,-0.6756,-0.68,-0.6632,-0.6297,-0.5615,-0.5199,-0.4823,-0.4374,-0.3951,-0.3723,-0.3818,-0.3699,-0.3608,-0.3711,-0.3845,-0.3944,-2.5577,-2.4586,-2.3393,-2.2316,-2.1416,-2.118,-2.0014,-1.8236,-1.8569,-1.8385,-1.782,-1.7727,-1.7782,-1.7912,-1.8529,0.0,0.0,0.0,-2.0095,-1.9506,-1.9968,-2.0215,-2.0291,-2.0293,-1.9756,-1.8798,-1.9479,-1.8711,-1.6632,-1.7649,-1.8155,-1.805,0.0,0.0,-1.579,-1.4834,-1.3946,-1.3212,-1.3445,-1.3282,-1.2694,-1.2869,-1.3015,-1.3089,-1.1755,-1.0316,-0.8816,-0.7442,-0.6588,-0.6319,-0.6913,-0.7651,0.0,0.0,0.0,0.0,0.0,0.0,0.0,0.0,0.0,0.0,0.0,-0.5199,0.0,0.0,0.0,0.0,-0.517,-0.5732,-0.6265,-0.544,0.0,0.0,0.0,0.0,0.0,0.0,0.0,-0.7499,-0.7372,-0.7452,-0.7833,-0.7122,-0.6607,-0.6737,-0.7093,-0.7161,-0.6601,0.0,-0.7037,-0.6802,-0.6862,-0.686,-0.6758,-0.7033,-0.7082,-0.6414,-0.6797,-0.7078,-0.6824,-0.6606,-0.6192,-0.5547,-0.5148,-0.4843,-0.4567,-0.421,-0.4021,-0.4139,-0.4073,-0.3958,-0.3988,-0.3981,-0.3967,-2.7185,-2.6212,-2.5176,-2.343,-2.1329,-2.1116,-1.9547,-1.7114,-1.6958,-1.7126,-1.7498,-1.7425,-1.8203,-1.9586,-2.0279,0.0,-2.0187,-2.0417,-2.0652,-2.0799,-2.0685,-2.1032,-2.1777,-2.0885,-2.0237,-1.982,-1.9454,-1.899,-1.8424,-1.8365,-1.9023,-2.0235,-1.8081,-1.6855,-1.6596,-1.5713,-1.4772,-1.3802,-1.3669,-1.3246,-1.255,-1.2703,-1.2871,-1.2979,-1.1613,-1.0189,-0.8741,-0.7499,-0.6122,-0.4565,-0.5826,-0.6588,-0.662,0.0,0.0,0.0,0.0,0.0,0.0,0.0,0.0,0.0,0.0,0.0,0.0,0.0,0.0,0.0,-0.3636,0.0,-0.4888,-0.4836,0.0,0.0,0.0,-0.7867,-0.7599,-0.7821,-0.7979,-0.7979,0.0,0.0,-0.7878,0.0,-0.7545,-0.7112,-0.7159,-0.7069,-0.666,-0.6712,-0.6891,-0.7204,-0.7233,-0.7321,-0.7481,-0.7146,-0.6753,-0.6541,-0.6878,-0.7047,-0.6529,-0.6015,-0.5561,-0.5257,-0.475,-0.4519,-0.4704,-0.4576,-0.4452,-0.4457,-0.4418,-0.439,-0.4366,-0.4224,-0.4079,-2.8223,-2.723,-2.6843,-2.5355,-2.3189,-2.31,-2.2081,-2.0443,-2.0195,-1.9512,-1.8495,-1.7799,-1.7779,-1.8409,-1.9811,-2.0586,-2.0889,-2.1518,-2.1754,-2.1742,-2.1673,-2.1876,-2.2248,-2.1938,-2.1496,-2.0887,-2.0757,-2.0494,-2.0152,-2.0354,-2.0511,-2.0586,-2.0256,-1.9584,-1.8501,-1.7265,-1.616,-1.5216,-1.4802,-1.3981,-1.277,-1.2887,-1.2889,-1.2778,-1.145,-1.0045,-0.8579,-0.7298,-0.6217,-0.5424,-0.6166,-0.6553,-0.6553,-0.8803,0.0,0.0,0.0,0.0,0.0,0.0,0.0,0.0,0.0,-0.5445,-0.5957,0.0,-0.6712,0.0,-0.361,-0.375,-0.5605,-0.487,0.0,0.0,-0.7457,-0.7586,-0.8195,-0.8077,-0.7863,-0.7795,-0.7753,-0.7753,-0.7753,-0.7712,-0.767,-0.7545,-0.7563,-0.752,-0.7423,-0.7462,-0.7466,-0.7573,-0.7546,-0.7536,-0.7335,-0.719,-0.7124,-0.7346,-0.7492,-0.7524,-0.7371,-0.665,-0.6103,-0.5937,-0.5371,-0.4942,-0.4938,-0.4909,-0.4838,-0.482,-0.4633,-0.4399,-0.4399,-0.4476,-0.4504,-2.9165,-2.7943,-2.7904,-2.6571,-2.453,-2.44,-2.3315,-2.16,-2.1422,-2.0704,-1.9536,-1.9032,-1.9056,-1.9589,-2.0525,-2.1249,-2.1822,-2.2204,-2.2354,-2.2271,-2.2186,-2.2248,-2.2332,-2.2,-2.1769,-2.1667,-2.0991,-2.0945,-2.1384,-2.1248,-2.1265,-2.1418,-2.163,-2.1366,-2.0561,-1.8732,-1.7379,-1.6539,-1.5097,-1.3799,-1.2675,-1.27,-1.2842,-1.3003,-1.1388,-1.024,-0.9701,-0.7496,-0.6502,-0.697,-0.6811,-0.6652,-0.662,-0.8019,-0.7966,0.0,0.0,0.0,0.0,0.0,0.0,0.0,0.0,0.0,0.0,0.0,-0.6268,0.0,-0.4587,-0.4641,-0.6504,-0.5874,-0.6144,-0.8086,-0.8062,-0.8071,-0.8423,-0.8242,-0.8002,-0.7712,-0.767,-0.767,-0.767,-0.767,-0.767,-0.767,-0.767,-0.767,-0.767,-0.767,-0.767,-0.767,-0.767,-0.7602,-0.7233,-0.7313,-0.7415,-0.7499,-0.7624,-0.767,-0.767,-0.7112,-0.655,-0.6289,-0.5744,-0.5241,-0.5067,-0.4985,-0.4985,-0.5,-0.4847,-0.4704,-0.4685,-0.4654,-0.4661,-3.0115,-2.8582,-2.8564,-2.7448,-2.5685,-2.53,-2.3829,-2.1746,-2.1746,-2.1315,-2.0549,-2.0567,-2.0928,-2.1608,-2.1711,-2.2082,-2.2668,-2.2632,-2.2552,-2.2497,-2.2432,-2.2349,-2.2293,-2.1661,-2.1667,-2.2243,-2.0829,-2.0906,-2.226,-2.1566,-2.1566,-2.2276,-2.2265,-2.2241,-2.2139,-1.9875,-1.8274,-1.7438,-1.5223,-1.3663,-1.2742,-1.267,-1.2963,-1.3399,-1.1374,-1.0506,-1.0973,-0.7984,-0.7005,-0.8502,-0.762,-0.6965,-0.6843,-0.6897,-0.6421,0.0,-0.5224,0.0,0.0,0.0,0.0,0.0,0.0,0.0,0.0,-0.453,-0.5552,-0.6993,-0.5978,-0.5811,-0.7197,-0.7037,-0.7284,-0.8311,-0.8773,-0.8854,-0.8488,-0.8414,-0.8201,-0.7761,-0.767,-0.767,-0.767,-0.767,-0.7628,-0.767,-0.7628,-0.7628,-0.767,-0.767,-0.767,-0.767,-0.767,-0.7616,-0.7364,-0.7488,-0.7568,-0.7357,-0.7495,-0.767,-0.767,-0.7286,-0.6846,-0.638,-0.5953,-0.5529,-0.5072,-0.4985,-0.4985,-0.4985,-0.4961,-0.4952,-0.4942,-0.4876,-0.4757,-3.1214,-2.9518,-2.9429,-2.8404,-2.6828,-2.605,-2.4496,-2.2488,-2.2505,-2.2074,-2.1401,-2.1384,-2.147,-2.166,-2.2246,-2.2565,-2.2605,-2.2623,-2.2552,-2.2487,-2.2432,-2.2394,-2.2377,-2.2186,-2.2175,-2.2243,-2.138,-2.1431,-2.231,-2.1549,-2.1566,-2.2276,-2.1695,-2.1417,-2.1358,0.0,0.0,0.0,-1.6401,-1.5631,-1.4326,-1.4212,-1.3962,-1.3478,-1.1467,0.0,-1.0391,-0.8633,-0.8012,-0.8849,-0.8496,0.0,0.0,0.0,0.0,0.0,0.0,0.0,0.0,0.0,0.0,0.0,-0.559,-0.6115,-0.5623,-0.6299,-0.7177,-0.7969,-0.6867,-0.6283,-0.6776,-0.6737,-0.7162,-0.8455,-0.8756,-0.878,-0.8707,-0.8521,-0.8209,-0.7761,-0.767,-0.767,-0.767,-0.737,-0.7286,-0.7628,-0.737,-0.728,-0.767,-0.767,-0.767,-0.767,-0.767,-0.7697,-0.7631,-0.7668,-0.769,-0.7646,-0.766,-0.767,-0.767,-0.7321,-0.6846,-0.6416,-0.5996,-0.5572,-0.5116,-0.4985,-0.4985,-0.4985,-0.4985,-0.4985,-0.4985,-0.4952,-0.4928,-3.201,0.0,-3.0277,-2.9302,0.0,-2.7097,-2.5805,-2.4239,-2.3407,-2.2838,-2.2487,-2.2377,-2.2401,-2.2505,-2.2778,-2.2927,-2.2985,-2.2825,-2.2694,-2.2649,-2.2432,-2.2349,-2.2332,-2.1966,-2.191,-2.222,-2.1461,-2.1511,-2.222,-2.2254,-2.2265,-2.231,-2.1987,-2.1649,-2.1258,-2.0003,-1.8425,-1.6562,-1.6354,-1.5627,-1.4358,-1.3845,-1.3611,-1.3563,0.0,0.0,0.0,0.0,0.0,0.0,0.0,0.0,0.0,0.0,0.0,-0.5608,-0.6323,-0.6107,-0.4481,-0.531,-0.5481,-0.4434,-0.6291,-0.7258,-0.6599,-0.7143,-0.7625,-0.7783,-0.7617,-0.7526,-0.7525,-0.7779,-0.8223,-0.8922,-0.9239,-0.9239,-0.8829,-0.8643,-0.8275,-0.7739,-0.7621,-0.7621,-0.767,-0.7503,-0.7412,-0.7628,-0.7496,-0.7412,-0.7628,-0.767,-0.767,-0.767,-0.767,-0.767,-0.767,-0.767,-0.7712,-0.767,-0.767,-0.767,-0.767,-0.7496,-0.7196,-0.6719,-0.6289,-0.5825,-0.5448,-0.5154,-0.4985,-0.4985,-0.4985,-0.4985,-0.4985,-0.4985,-0.4985,-3.273,-3.1949,-3.1281,-3.0298,-2.909,-2.8237,-2.7159,-2.5924,0.0,0.0,0.0,-2.3519,-2.3454,-2.3565,-2.3283,-2.3182,-2.3301,-2.301,-2.2825,-2.2685,-2.2432,-2.2327,-2.2293,-2.1684,-2.1674,-2.2147,-2.1541,-2.1558,-2.2214,-2.2832,-2.2861,-2.2316,-2.2177,-2.1772,-2.1011,-1.9837,-1.8534,-1.7237,-1.6509,-1.5616,-1.4553,-1.3638,-1.3391,-1.3908,-1.2827,-1.2505,-1.2972,-1.1082,-1.0637,-1.1903,-1.0666,-0.9765,-0.9568,-0.9475,-0.8208,-0.557,-0.5316,-0.4781,-0.3571,-0.4508,-0.5223,-0.5377,-0.7229,-0.8128,-0.7471,-0.7913,-0.8071,-0.775,-0.8423,-0.8794,-0.8574,-0.8968,-0.9248,-0.9248,-0.9695,-0.9655,-0.8918,-0.8797,-0.8504,-0.7765,-0.7607,-0.7614,-0.7621,-0.7587,-0.7628,-0.767,-0.7579,-0.767,-0.7802,-0.7836,-0.7878,-0.7885,-0.7961,-0.7995,-0.7953,-0.7961,-0.7919,-0.8002,-0.7919,-0.7836,-0.7795,-0.7761,-0.7496,-0.7063,-0.6641,-0.6167,-0.5739,-0.5275,-0.5029,-0.4985,-0.4985,-0.4985,-0.4985,-0.4985,-0.4937,-3.3547,-3.2804,-3.2692,-3.1714,-3.0138,-2.9304,-2.8037,-2.6487,-2.5834,-2.5553,-2.5499,-2.473,-2.4403,-2.4373,-2.3679,-2.3188,-2.2968,-2.285,-2.2659,0.0,-2.2338,-2.2327,-2.2293,-2.2192,-2.2181,-2.2265,-2.2147,-2.2153,-2.2242,-2.2513,-2.2479,-2.2119,-2.1131,-2.0319,-1.9653,-1.8874,-1.8648,-1.8974,-1.8511,-1.784,-1.7007,-1.5915,-1.511,-1.4613,-1.322,-1.2426,-1.2318,-1.1896,-1.1548,-1.1338,-1.0949,-1.0158,-0.8936,-0.882,-0.807,-0.6587,-0.6257,-0.6077,-0.5974,-0.6069,-0.6787,-0.8269,-0.843,-0.8468,-0.8733,-0.9392,-0.9762,-0.9687,-0.9358,-0.9138,-0.9107,-0.9093,-0.9096,-0.9096,-0.9506,-0.9625,-0.9136,-0.9128,-0.8878,-0.8062,-0.8036,-0.7953,-0.7648,-0.7398,-0.7405,-0.7587,-0.7579,-0.7447,-0.8126,-0.8291,-0.8291,-0.8332,-0.8618,-0.8773,-0.8732,-0.8814,-0.8732,-0.8814,-0.8496,-0.825,-0.825,-0.7927,-0.7545,-0.7112,-0.6677,-0.6246,-0.5825,-0.5323,-0.5116,-0.5072,-0.5029,-0.4985,-0.4985,-0.4893,-0.4845,-3.3974,-3.3603,-3.3175,-3.2516,-3.1686,-3.036,-2.9089,-2.7912,-2.7674,-2.709,-2.625,-2.57,-2.5538,-2.5629,-2.5108,-2.4598,-2.4157,-2.3927,-2.352,-2.297,-2.2807,-2.2659,-2.2525,-2.2497,-2.2432,-2.2254,-2.2388,-2.246,-2.2449,-2.2935,-2.2907,-2.2347,-2.0884,-2.0062,-1.9889,-1.881,-1.8683,-1.946,-1.8409,-1.7555,-1.7009,-1.6005,-1.5281,-1.4841,-1.3622,-1.2947,-1.2842,-1.2259,-1.1805,-1.1482,-1.1108,-1.0555,-0.9845,-0.9899,-0.9383,-0.8172,-0.8232,-0.7995,-0.7306,-0.758,-0.8624,-1.0509,-1.0016,-0.9852,-1.0473,-1.0257,-1.0079,-1.0049,-0.9734,-0.9545,-0.9545,-0.9426,-0.9306,-0.9168,-0.9496,-0.9506,-0.9056,-0.9047,-0.8926,-0.8472,-0.8447,-0.8439,-0.8316,-0.8185,-0.8144,-0.8365,-0.8193,-0.8267,-0.8692,-0.8935,-0.8967,-0.8773,-0.8895,-0.8975,-0.9016,-0.9016,-0.9016,-0.9016,-0.8659,-0.8414,-0.8373,-0.8044,-0.767,-0.7412,-0.6979,-0.6683,-0.638,-0.583,-0.5491,-0.5361,-0.5154,-0.5024,-0.4893,-0.4797,-0.4705,-3.446,-3.4218,-3.3552,-3.311,-3.276,-3.1218,-3.0073,-2.9292,-2.925,-2.8484,-2.7215,-2.6749,-2.668,-2.6808,-2.639,-2.5778,-2.5125,-2.4815,-2.4218,-2.3448,-2.3188,-2.2985,-2.2799,-2.2773,-2.2642,-2.246,-2.2615,-2.2686,-2.2729,-2.3254,-2.3096,-2.2279,-2.0943,-2.0314,-2.0371,-1.908,-1.8793,-1.9433,-1.8096,-1.7225,-1.6957,-1.5975,-1.5375,-1.5152,-1.4205,-1.3659,-1.3577,-1.2853,-1.2321,-1.2126,-1.1694,-1.1329,-1.0949,-1.119,-1.0833,-0.9766,-0.9982,-0.9747,-0.8782,-0.9149,-1.0166,-1.1687,-1.1132,-1.0916,-1.1367,-1.0856,-1.0293,-1.0087,-1.017,-1.0046,-0.9759,-0.9845,-0.9716,-0.9315,-0.9457,-0.9417,-0.8967,-0.9056,-0.9065,-0.8886,-0.8846,-0.8878,-0.8926,-0.8975,-0.8975,-0.8935,-0.9056,-0.9128,-0.9168,-0.9478,-0.9588,-0.9527,-0.9377,-0.9328,-0.9288,-0.9328,-0.9328,-0.9288,-0.8895,-0.8651,-0.8488,-0.8126,-0.7761,-0.7628,-0.7321,-0.6937,-0.6803,-0.6209,-0.5701,-0.5491,-0.5154,-0.4898,-0.4762,-0.467,-0.4578,-3.524,-3.4555,-3.4242,-3.3586,-3.2687,-3.1697,-3.0821,-3.0118,-3.0081,-2.9622,-2.87,-2.7985,-2.7655,-2.7563,-2.6794,-2.5909,-2.4933,-2.4682,-2.4124,-2.3259,-2.3133,-2.3084,-2.3084,-2.3042,-2.306,-2.301,-2.3017,-2.3,-2.289,-2.2971,-2.2488,-2.1593,-2.1198,-2.079,-2.0267,-1.9487,-1.9183,-1.9408,-1.8554,-1.8101,-1.7969,-1.6857,-1.6182,-1.6182,-1.5007,-1.4358,-1.4312,-1.4084,-1.3806,-1.347,-1.3264,-1.2724,-1.172,-1.1938,-1.1742,-1.0756,-1.0824,-1.0845,-1.0731,-1.0894,-1.1073,-1.1223,-1.1067,-1.0878,-1.0899,-1.1192,-1.1055,-1.0567,-1.0893,-1.0658,-0.9573,-0.999,-1.0045,-0.9252,-0.9337,-0.9328,-0.9328,-0.9466,-0.9515,-0.9185,-0.9209,-0.9142,-0.9036,-0.9032,-0.901,-0.8994,-0.9214,-0.949,-0.9667,-0.9952,-1.0302,-1.0457,-1.038,-1.0157,-1.0118,-1.0166,-1.004,-1.0,-0.9457,-0.8975,-0.87,-0.8209,-0.767,-0.7628,-0.7328,-0.6894,-0.6507,-0.5996,-0.5572,-0.5323,-0.5067,-0.4762,-0.4587,-0.4587,-0.4587,-3.6247,-3.549,-3.5369,-3.4145,-3.2329,-3.169,-3.0993,-3.0191,-2.9714,-2.9567,-2.9604,-2.887,-2.8521,-2.8503,-2.8017,-2.7068,-2.5778,-2.5605,-2.481,-2.3607,-2.3535,-2.3468,-2.3348,-2.3324,-2.3259,-2.3116,-2.3253,-2.3324,-2.3218,-2.3007,-2.2642,-2.2134,-2.1443,-2.0797,-2.0152,-1.9461,-1.8933,-1.862,-1.8293,-1.8078,-1.7919,-1.7339,-1.6938,-1.6724,-1.5679,-1.5039,-1.4928,-1.447,-1.4069,-1.384,-1.3602,-1.3173,-1.2601,-1.2843,-1.2727,-1.2054,-1.2024,-1.2063,-1.2071,-1.1771,-1.1664,-1.1884,-1.1404,-1.1105,-1.1217,-1.1605,-1.1601,-1.1074,-1.1346,-1.1256,-1.0466,-1.0615,-1.0507,-0.9818,-0.9834,-0.9913,-0.9873,-1.0196,-1.0341,-1.0215,-0.9534,-0.9443,-1.0024,-0.958,-0.9085,-0.9027,-0.9195,-0.9534,-1.0182,-1.0534,-1.0582,-1.0544,-1.04,-1.0428,-1.0544,-1.0438,-1.0235,-0.9873,-0.9408,-0.8975,-0.8618,-0.8167,-0.7719,-0.767,-0.728,-0.6937,-0.6803,-0.6124,-0.5615,-0.5323,-0.5231,-0.5096,-0.5058,-0.5014,-0.5009,-3.7167,-3.6217,-3.5875,-3.4392,-3.2241,-3.2015,-3.1273,-3.0191,-2.9586,-2.9567,-2.9787,-2.9255,-2.8975,-2.8975,-2.8881,-2.8049,-2.684,-2.6617,-2.5683,-2.4266,-2.4121,-2.3927,-2.3634,-2.3594,-2.3468,-2.3353,-2.3486,-2.3571,-2.3481,-2.3146,-2.2875,-2.2582,-2.18,-2.0921,-2.0094,-1.9501,-1.8835,-1.8134,-1.8053,-1.7988,-1.7822,-1.7602,-1.7368,-1.7069,-1.6158,-1.5625,-1.5599,-1.4939,-1.4541,-1.449,-1.416,-1.3803,-1.3482,-1.3667,-1.3577,-1.3064,-1.3015,-1.2978,-1.292,-1.2401,-1.2222,-1.2413,-1.1884,-1.159,-1.1841,-1.2173,-1.2169,-1.191,-1.2135,-1.2058,-1.0983,-1.1085,-1.0884,-1.0185,-1.0264,-1.0428,-1.039,-1.0736,-1.0797,-1.0406,-0.9427,-0.9057,-0.9841,-0.9414,-0.9026,-0.9036,-0.936,-0.9768,-1.0598,-1.0802,-1.0611,-1.0477,-1.04,-1.04,-1.0659,-1.0341,-0.9991,-0.9628,-0.9199,-0.8692,-0.8373,-0.7961,-0.7503,-0.7328,-0.7021,-0.6719,-0.6422,-0.5953,-0.5572,-0.5394,-0.5265,-0.5135,-0.5019,-0.5096,-0.514,-3.794,-3.636,-3.5306,-3.4163,-3.3004,-3.2862,-3.1839,-3.0197,-3.0081,-2.9732,-2.9195,-2.903,-2.8975,-2.8975,-2.8929,-2.8406,-2.7606,-2.7354,-2.6395,-2.4954,-2.4846,-2.452,-2.3831,-2.3795,-2.3774,-2.371,-2.3732,-2.3685,-2.3486,-2.323,-2.296,-2.2712,-2.2347,-2.1454,-2.0281,-2.0027,-1.9273,-1.8143,-1.799,-1.7917,-1.7839,-1.7602,-1.7296,-1.691,-1.6401,-1.613,-1.6102,-1.5879,-1.5692,-1.5679,-1.5461,-1.4979,-1.4227,-1.4359,-1.4164,-1.3596,-1.3467,-1.3357,-1.3163,-1.2896,-1.2768,-1.2756,-1.2508,-1.2294,-1.2119,-1.2481,-1.2666,-1.28,-1.2866,-1.2363,-1.1162,-1.1499,-1.1373,-1.0264,-1.037,-1.0611,-1.0659,-1.1067,-1.0471,-0.9647,-0.9361,-0.8789,-0.7498,-0.8245,-0.8957,-0.9318,-1.0032,-1.0739,-1.0785,-1.0582,-1.0544,-1.0582,-1.0467,-1.0293,-1.0273,-1.003,-0.9746,-0.935,-0.8886,-0.8414,-0.8077,-0.7746,-0.7321,-0.6937,-0.6592,-0.6252,-0.591,-0.561,-0.5308,-0.5135,-0.4966,-0.4884,-0.5101,-0.4714,-0.4801,-3.8949,-3.7268,-3.5711,-3.4147,-3.2675,-3.1875,-3.108,-3.0364,-2.9687,-2.9586,-2.9677,-2.9237,-2.8975,-2.8975,-2.8994,-2.8466,-2.7588,-2.6962,-2.6064,-2.5009,-2.4465,-2.4067,-2.3831,-2.3795,-2.3795,-2.3795,-2.3795,-2.3753,-2.3646,-2.3307,-2.306,-2.2884,-2.2497,-2.1769,-2.094,-2.0771,-2.0035,-1.868,-1.8551,-1.8221,-1.7582,-1.7415,-1.7199,-1.6825,-1.649,-1.6316,-1.6262,-1.6024,-1.5983,-1.6108,-1.5983,-1.5692,-1.5312,-1.4809,-1.4438,-1.4117,-1.3615,-1.3254,-1.3163,-1.316,-1.3135,-1.3057,-1.3088,-1.2527,-1.149,-1.1448,-1.1589,-1.1371,-1.0629,-1.0493,-1.1978,-1.2404,-1.2328,-1.1704,-1.1568,-1.1583,-1.1737,-1.1884,-1.1729,-1.1274,-1.1228,-1.0309,-0.8242,-0.8551,-0.9365,-0.9453,-0.9595,-1.0082,-1.0692,-1.0764,-1.0534,-1.0137,-0.9942,-0.9755,-0.9448,-0.9588,-0.946,-0.8958,-0.8496,-0.8209,-0.7919,-0.7405,-0.6937,-0.6768,-0.638,-0.5916,-0.5615,-0.541,-0.5101,-0.5014,-0.484,-0.4923,-0.527,-0.4884,-0.5014,-3.9027,-3.78,-3.6044,-3.4213,-3.2447,-3.1353,-3.058,-3.0071,-2.9418,-2.9379,-2.9659,-2.9237,-2.8975,-2.8994,-2.8994,-2.8631,-2.7989,-2.7331,-2.6467,-2.5429,-2.4849,-2.4302,-2.385,-2.3795,-2.3795,-2.3795,-2.3795,-2.3795,-2.3753,-2.333,-2.3116,-2.3067,-2.2579,-2.1921,-2.1278,-2.094,-2.0145,-1.9096,-1.865,-1.8128,-1.7482,-1.7384,-1.7199,-1.6892,-1.6659,-1.6501,-1.6382,-1.6163,-1.608,-1.6191,-1.6123,-1.5983,-1.5797,-1.521,-1.4783,-1.4627,-1.4117,-1.3749,-1.3661,-1.3742,-1.3749,-1.3676,-1.3736,-1.3127,-1.1857,-1.1942,-1.1942,-1.157,-1.0908,-1.1242,-1.2704,-1.3332,-1.3083,-1.2579,-1.201,-1.1917,-1.2449,-1.2758,-1.2532,-1.188,-1.1219,-1.0042,-0.8498,-0.8926,-0.948,-0.9779,-0.9688,-1.0095,-1.0835,-1.0802,-1.0572,-0.9942,-0.9746,-0.9478,-0.9168,-0.9119,-0.9079,-0.8651,-0.8077,-0.7829,-0.7579,-0.7063,-0.6677,-0.6507,-0.6167,-0.5707,-0.5366,-0.5203,-0.5072,-0.4937,-0.4888,-0.4879,-0.5053,-0.5145,-0.5096,-3.8046,-3.7642,-3.6185,-3.4285,-3.2435,-3.1477,-3.0485,-2.9524,-2.9386,-2.9274,-2.9145,-2.9017,-2.8975,-2.8994,-2.8952,-2.8845,-2.8706,-2.8591,-2.7724,-2.635,-2.61,-2.5262,-2.4085,-2.4067,-2.3994,-2.3922,-2.3831,-2.3795,-2.3774,-2.3335,-2.3109,-2.2993,-2.2579,-2.1989,-2.1271,-2.0602,-1.9748,-1.9005,-1.8323,-1.7782,-1.7589,-1.7519,-1.7353,-1.7043,-1.6942,-1.6773,-1.6538,-1.6274,-1.6136,-1.6123,-1.6026,-1.5799,-1.5668,-1.5477,-1.5315,-1.5059,-1.4937,-1.4873,-1.4732,-1.461,-1.455,-1.4533,-1.4533,-1.4335,-1.3866,-1.3863,-1.3891,-1.3693,-1.3374,-1.3695,-1.3906,-1.3597,-1.3178,-1.2679,-1.1785,-1.1689,-1.2592,-1.341,-1.3212,-1.1588,-1.0315,-0.8604,-0.8334,-0.9134,-0.9962,-1.0324,-1.0541,-1.0761,-1.1052,-1.0649,-1.0351,-1.0118,-0.9637,-0.9119,-0.8886,-0.8692,-0.8537,-0.8291,-0.7704,-0.7321,-0.7112,-0.6725,-0.6295,-0.6039,-0.5615,-0.5193,-0.5149,-0.498,-0.4845,-0.4797,-0.4748,-0.4748,-0.4792,-0.4836,-0.4748,-3.7873,-3.6295,-3.5757,-3.4101,-3.1875,-3.0829,-3.0023,-2.9533,-2.9451,-2.924,-2.904,-2.8975,-2.8975,-2.8994,-2.8994,-2.897,-2.8929,-2.8845,-2.8202,-2.7102,-2.6457,-2.5968,-2.5516,-2.5407,-2.5172,-2.461,-2.4049,-2.3795,-2.371,-2.333,-2.3109,-2.301,-2.2579,-2.2192,-2.1921,-2.1157,-2.0372,-1.9656,-1.8807,-1.8131,-1.7586,-1.7496,-1.7441,-1.7338,-1.724,-1.7125,-1.7025,-1.6623,-1.6409,-1.6436,-1.6409,-1.6301,-1.6108,-1.5782,-1.5507,-1.5389,-1.509,-1.4862,-1.4814,-1.4937,-1.5029,-1.5013,-1.5104,-1.4572,-1.354,-1.3199,-1.3065,-1.2731,-1.1527,-1.1319,-1.3162,-1.1804,-1.161,-1.3343,-1.3103,-1.266,-1.311,-1.3447,-1.318,-1.2468,-1.2015,-1.1715,-1.1232,-1.135,-1.1036,-1.1013,-1.1002,-1.0905,-1.0659,-1.0293,-0.9707,-0.9448,-0.9039,-0.8765,-0.8529,-0.8291,-0.8126,-0.8002,-0.7579,-0.707,-0.681,-0.6428,-0.5996,-0.5567,-0.5145,-0.4932,-0.4845,-0.4801,-0.4709,-0.4661,-0.4661,-0.4618,-0.4574,-0.4578,-0.4535,-3.6969,-3.5455,-3.4814,-3.3442,-3.1559,-3.0538,-2.9896,-2.9606,-2.9513,-2.9289,-2.9044,-2.8975,-2.8975,-2.8975,-2.8975,-2.897,-2.8923,-2.8881,-2.8324,-2.7477,-2.6952,-2.6535,-2.6186,-2.5878,-2.5534,-2.4936,-2.4176,-2.3813,-2.3774,-2.3353,-2.3109,-2.301,-2.2579,-2.231,-2.2192,-2.1225,-2.0432,-1.9909,-1.8891,-1.8064,-1.7642,-1.7512,-1.7489,-1.7474,-1.7403,-1.733,-1.7175,-1.6841,-1.6686,-1.6612,-1.6402,-1.6224,-1.6293,-1.5823,-1.5583,-1.5709,-1.5521,-1.527,-1.5061,-1.5359,-1.5463,-1.5344,-1.5566,-1.5334,-1.4236,-1.3668,-1.339,-1.3066,-1.2106,-1.1871,-1.3449,-1.2439,-1.2047,-1.3776,-1.3182,-1.3136,-1.3326,-1.346,-1.3311,-1.3022,-1.3044,-1.3044,-1.2734,-1.2113,-1.1859,-1.1627,-1.1105,-1.0736,-1.038,-1.0021,-0.9549,-0.9119,-0.8814,-0.8529,-0.8126,-0.7919,-0.7753,-0.767,-0.7496,-0.7027,-0.6683,-0.6173,-0.5701,-0.5265,-0.4836,-0.4748,-0.4709,-0.4705,-0.4618,-0.4574,-0.4535,-0.4491,-0.4495,-0.4447,-0.4447,-3.5488,-3.5218,-3.3622,-3.25,-3.1546,-3.0676,-3.0045,-2.968,-2.9607,-2.9397,-2.9115,-2.9007,-2.9003,-2.904,-2.9021,-2.8947,-2.8834,-2.8834,-2.8439,-2.7798,-2.7507,-2.718,-2.6421,-2.5697,-2.5316,-2.5081,-2.4339,-2.3886,-2.3774,-2.333,-2.3109,-2.306,-2.2579,-2.2327,-2.2029,-2.0779,-2.0044,-1.9824,-1.8512,-1.7708,-1.7566,-1.7536,-1.7489,-1.7498,-1.7474,-1.7362,-1.7109,-1.6968,-1.686,-1.6661,-1.5896,-1.5634,-1.594,-1.5593,-1.5534,-1.59,-1.605,-1.5841,-1.5653,-1.5653,-1.5711,-1.5448,-1.5609,-1.5968,-1.5555,-1.5109,-1.4892,-1.4921,-1.4347,-1.4239,-1.4428,-1.3992,-1.396,-1.3902,-1.2852,-1.2576,-1.3565,-1.3433,-1.3273,-1.3261,-1.312,-1.2852,-1.2734,-1.1979,-1.1774,-1.1664,-1.1105,-1.0812,-1.0495,-1.0137,-0.9707,-0.9239,-0.8773,-0.8373,-0.8002,-0.7844,-0.7719,-0.767,-0.7538,-0.7196,-0.6641,-0.6087,-0.5443,-0.5009,-0.4748,-0.4661,-0.4574,-0.4574,-0.4535,-0.4495,-0.4451,-0.4412,-0.4368,-0.4364,-0.4364,-3.513,-3.443,-3.3353,-3.2417,-3.1584,-3.0682,-3.0147,-2.988,-2.9687,-2.9568,-2.9379,-2.9103,-2.9114,-2.9206,-2.9067,-2.8975,-2.8952,-2.8929,-2.885,-2.856,-2.8476,-2.7931,-2.7097,-2.6276,-2.5878,-2.5733,-2.5009,-2.4393,-2.381,-2.3353,-2.3133,-2.3067,-2.2605,-2.231,-2.2062,-2.0762,-2.0035,-1.9706,-1.8358,-1.7559,-1.7529,-1.7522,-1.7498,-1.7498,-1.7474,-1.7403,-1.7216,-1.6984,-1.6518,-1.5908,-1.5192,-1.4781,-1.5006,-1.5164,-1.5335,-1.5503,-1.5851,-1.5955,-1.5667,-1.5609,-1.5492,-1.5255,-1.5315,-1.533,-1.5463,-1.5118,-1.498,-1.4887,-1.4592,-1.4369,-1.4365,-1.4138,-1.3828,-1.3454,-1.2942,-1.2889,-1.3194,-1.3399,-1.3323,-1.3011,-1.3153,-1.3045,-1.2723,-1.2413,-1.2041,-1.17,-1.1292,-1.0888,-1.0544,-1.006,-0.9588,-0.9159,-0.8692,-0.8283,-0.7961,-0.7802,-0.7719,-0.7719,-0.7587,-0.7405,-0.6768,-0.613,-0.5443,-0.4792,-0.484,-0.4797,-0.4622,-0.4495,-0.4412,-0.4539,-0.4451,-0.4451,-0.4364,-0.432,-0.432,-3.4642,-3.4083,-3.2891,-3.2109,-3.1558,-3.0676,-3.0188,-3.0026,-2.9896,-2.9765,-2.9644,-2.9569,-2.9472,-2.9434,-2.9206,-2.9115,-2.9089,-2.8952,-2.8479,-2.7702,-2.7287,-2.738,-2.7489,-2.7109,-2.6548,-2.6131,-2.5389,-2.4574,-2.388,-2.3445,-2.3301,-2.3182,-2.2738,-2.2317,-2.1907,-2.072,-1.9774,-1.9286,-1.8167,-1.7536,-1.7505,-1.7482,-1.7482,-1.7474,-1.7467,-1.7346,-1.7059,-1.6584,-1.6051,-1.5557,-1.4956,-1.4515,-1.446,-1.4747,-1.5005,-1.5217,-1.5686,-1.5797,-1.5536,-1.5433,-1.5299,-1.5088,-1.5058,-1.5195,-1.5225,-1.498,-1.4777,-1.4777,-1.4493,-1.43,-1.4105,-1.3861,-1.3539,-1.3232,-1.3232,-1.322,-1.2955,-1.2975,-1.2926,-1.2842,-1.2866,-1.2998,-1.2698,-1.2449,-1.2029,-1.159,-1.1132,-1.0725,-1.0351,-0.9913,-0.9549,-0.9199,-0.8926,-0.861,-0.8447,-0.8324,-0.8118,-0.8036,-0.7746,-0.7572,-0.7021,-0.6343,-0.5701,-0.514,-0.5058,-0.4975,-0.4884,-0.4797,-0.4879,-0.4879,-0.4666,-0.4491,-0.4447,-0.4408,-0.4408,-3.4257,-3.418,-3.2429,-3.1725,-3.1604,-3.0727,-3.0209,-3.009,-3.0145,-3.0032,-2.9844,-3.0019,-2.9814,-2.957,-2.9293,-2.9172,-2.8997,-2.8879,-2.8026,-2.7118,-2.6509,-2.6825,-2.8033,-2.758,-2.6874,-2.6222,-2.5443,-2.4664,-2.3988,-2.3576,-2.3504,-2.3342,-2.2927,-2.2367,-2.1747,-2.0637,-1.9647,-1.9001,-1.8098,-1.7576,-1.7512,-1.7489,-1.7498,-1.7427,-1.7265,-1.71,-1.6738,-1.6219,-1.5763,-1.5605,-1.4948,-1.4609,-1.4507,-1.4483,-1.477,-1.5232,-1.5531,-1.5594,-1.5344,-1.5269,-1.5088,-1.4856,-1.4996,-1.5165,-1.4996,-1.4732,-1.4588,-1.4574,-1.4383,-1.4105,-1.3874,-1.3628,-1.3369,-1.3141,-1.3094,-1.292,-1.2733,-1.252,-1.2484,-1.2674,-1.2532,-1.2556,-1.2449,-1.2113,-1.1627,-1.159,-1.1142,-1.0802,-1.0467,-1.0079,-0.9785,-0.9509,-0.9279,-0.9047,-0.8967,-0.8926,-0.8683,-0.8439,-0.8028,-0.7731,-0.7356,-0.6719,-0.6081,-0.5658,-0.5404,-0.5404,-0.5486,-0.5443,-0.5394,-0.5265,-0.5096,-0.4792,-0.4578,-0.4578,-0.4578,-3.4648,-3.5026,-3.2679,-3.2064,-3.2301,-3.0989,-3.0292,-3.026,-3.027,-3.0195,-3.0064,-2.9844,-2.9701,-2.957,-2.9196,-2.8736,-2.8353,-2.8585,-2.8542,-2.8276,-2.8058,-2.7665,-2.7815,-2.7489,-2.6964,-2.6276,-2.6023,-2.5153,-2.4097,-2.362,-2.3504,-2.3435,-2.3035,-2.2582,-2.2151,-2.0764,-1.9849,-1.9328,-1.8258,-1.7576,-1.7505,-1.7482,-1.7427,-1.7306,-1.7075,-1.6908,-1.6789,-1.6517,-1.6133,-1.558,-1.5043,-1.4719,-1.4625,-1.493,-1.5168,-1.5278,-1.5546,-1.5565,-1.5315,-1.5058,-1.4763,-1.4525,-1.4511,-1.4415,-1.4189,-1.4157,-1.4105,-1.4026,-1.3815,-1.3695,-1.3607,-1.3369,-1.3198,-1.306,-1.292,-1.278,-1.2709,-1.2674,-1.2639,-1.2662,-1.2662,-1.2627,-1.2709,-1.2556,-1.2113,-1.1627,-1.1255,-1.0954,-1.0621,-1.0273,-1.0069,-0.9894,-0.9667,-0.9487,-0.9328,-0.9248,-0.8999,-0.8683,-0.8275,-0.7938,-0.7565,-0.7056,-0.6422,-0.6002,-0.5701,-0.5744,-0.5959,-0.5825,-0.5733,-0.5653,-0.5529,-0.527,-0.5009,-0.4923,-0.4836,-3.5152,-3.5303,-3.3615,-3.3122,-3.3179,-3.1725,-3.0931,-3.0823,-3.0477,-3.0265,-3.0114,-2.9761,-2.966,-2.9642,-2.8962,-2.8476,-2.8359,-2.7912,-2.8145,-2.8312,-2.8069,-2.7755,-2.7973,-2.7501,-2.6879,-2.5896,-2.6041,-2.528,-2.4151,-2.3689,-2.3642,-2.3598,-2.314,-2.2631,-2.2133,-2.0781,-1.9757,-1.9094,-1.8159,-1.7512,-1.7498,-1.7427,-1.7265,-1.71,-1.6882,-1.6763,-1.6686,-1.6633,-1.6417,-1.6085,-1.5722,-1.5177,-1.4719,-1.5046,-1.5339,-1.535,-1.5407,-1.5463,-1.5239,-1.4842,-1.4493,-1.4319,-1.4203,-1.4072,-1.3908,-1.3808,-1.3808,-1.3808,-1.3661,-1.3459,-1.3335,-1.3232,-1.3072,-1.2885,-1.278,-1.2709,-1.2709,-1.2709,-1.2709,-1.2709,-1.2674,-1.2674,-1.2674,-1.2639,-1.2377,-1.1822,-1.1516,-1.1217,-1.1142,-1.0802,-1.0572,-1.037,-1.0108,-0.9883,-0.9686,-0.9487,-0.9239,-0.8878,-0.8398,-0.8111,-0.7821,-0.7314,-0.6768,-0.6471,-0.6258,-0.6301,-0.6428,-0.6252,-0.6124,-0.6039,-0.591,-0.5696,-0.5524,-0.5394,-0.5313,-3.5579,-3.5451,-3.4565,-3.4212,-3.3943,-3.2391,-3.1628,-3.1488,-3.0944,-3.0674,-3.039,-3.0045,-3.0045,-2.9618,-2.8652,-2.8532,-2.8278,-2.7739,-2.7611,-2.8197,-2.7645,-2.7658,-2.8016,-2.7598,-2.6649,-2.5226,-2.5606,-2.5063,-2.4139,-2.3795,-2.3753,-2.371,-2.3399,-2.2935,-2.2036,-2.0783,-1.9849,-1.9134,-1.8148,-1.7552,-1.7498,-1.7403,-1.7216,-1.6959,-1.6789,-1.6727,-1.6633,-1.6607,-1.6591,-1.6607,-1.6607,-1.594,-1.5308,-1.5211,-1.5526,-1.5485,-1.5442,-1.5242,-1.5007,-1.4606,-1.4292,-1.4205,-1.4046,-1.3874,-1.3808,-1.3661,-1.3661,-1.3695,-1.3628,-1.3493,-1.3198,-1.3141,-1.299,-1.285,-1.2745,-1.2709,-1.2709,-1.2709,-1.2709,-1.2709,-1.2709,-1.2709,-1.2639,-1.2567,-1.2305,-1.2077,-1.1774,-1.1553,-1.1442,-1.1255,-1.0992,-1.0725,-1.0457,-1.0118,-0.9892,-0.9695,-0.9448,-0.9119,-0.8643,-0.8316,-0.8028,-0.7565,-0.7147,-0.707,-0.6943,-0.6859,-0.6774,-0.6689,-0.6556,-0.6422,-0.6337,-0.6204,-0.6039,-0.583,-0.5787,-3.5641,-3.5521,-3.4576,-3.4218,-3.3962,-3.2429,-3.1725,-3.1686,-3.1661,-3.1584,-3.1325,-3.1222,-3.0402,-2.9568,-2.8539,-2.7744,-2.7279,-2.7112,-2.7497,-2.7991,-2.7816,-2.8118,-2.7774,-2.7465,-2.6517,-2.5407,-2.5153,-2.4646,-2.4031,-2.3795,-2.3795,-2.3753,-2.3553,-2.3199,-2.2594,-2.1441,-2.023,-1.9551,-1.8417,-1.7639,-1.7522,-1.7403,-1.724,-1.6917,-1.6738,-1.6633,-1.6623,-1.6607,-1.6607,-1.6607,-1.6607,-1.6412,-1.6124,-1.6145,-1.6171,-1.6003,-1.562,-1.5183,-1.4717,-1.4449,-1.4038,-1.3763,-1.3773,-1.3782,-1.3661,-1.356,-1.356,-1.3594,-1.3728,-1.3708,-1.3459,-1.3267,-1.3107,-1.3002,-1.2815,-1.2709,-1.2709,-1.2709,-1.2709,-1.2709,-1.2709,-1.2709,-1.2639,-1.2567,-1.2449,-1.2305,-1.2113,-1.1884,-1.1737,-1.1516,-1.1255,-1.0981,-1.0715,-1.039,-1.0059,-0.9853,-0.9616,-0.9368,-0.8967,-0.8602,-0.8275,-0.7814,-0.7523,-0.7238,-0.7034,-0.6865,-0.6865,-0.6914,-0.6865,-0.6683,-0.6683,-0.6719,-0.6465,-0.6215,-0.6209,-3.5755,-3.5655,-3.5145,-3.4654,-3.4071,-3.289,-3.2321,-3.2193,-3.1552,-3.1335,-3.1158,-3.0426,-2.9572,-2.8686,-2.7401,-2.665,-2.6704,-2.6834,-2.7465,-2.8038,-2.8136,-2.8179,-2.7792,-2.7302,-2.6462,-2.5534,-2.4846,-2.4248,-2.3831,-2.3795,-2.3795,-2.3753,-2.3598,-2.344,-2.2905,-2.1383,-2.0498,-1.9811,-1.8569,-1.7622,-1.7474,-1.7362,-1.7084,-1.6841,-1.6701,-1.6607,-1.6607,-1.6607,-1.6607,-1.6607,-1.6607,-1.6528,-1.6448,-1.6367,-1.6285,-1.6037,-1.5624,-1.5138,-1.4657,-1.4485,-1.4237,-1.3956,-1.3906,-1.3848,-1.3695,-1.3628,-1.3514,-1.3594,-1.3894,-1.3941,-1.356,-1.3391,-1.3267,-1.3072,-1.2885,-1.2745,-1.2709,-1.2709,-1.2709,-1.2745,-1.2745,-1.2745,-1.2709,-1.2639,-1.2603,-1.2496,-1.2413,-1.2222,-1.2041,-1.1774,-1.1516,-1.1094,-1.0764,-1.0273,-0.9941,-0.9695,-0.9536,-0.9377,-0.8958,-0.8594,-0.8193,-0.7648,-0.728,-0.6999,-0.6872,-0.6829,-0.6787,-0.6787,-0.6865,-0.695,-0.6901,-0.681,-0.6725,-0.6641,-0.6598,-3.5864,-3.58,-3.5482,-3.5059,-3.4429,-3.3361,-3.2897,-3.2603,-3.1367,-3.0951,-3.1008,-2.9427,-2.8442,-2.7794,-2.6672,-2.5875,-2.625,-2.6426,-2.7423,-2.7876,-2.788,-2.796,-2.8064,-2.7077,-2.6018,-2.5914,-2.4614,-2.3834,-2.3813,-2.3795,-2.3795,-2.3771,-2.362,-2.3481,-2.3005,-2.1727,-2.077,-1.9774,-1.8704,-1.7816,-1.746,-1.7175,-1.6892,-1.6659,-1.6607,-1.6607,-1.6607,-1.6607,-1.6607,-1.6607,-1.6581,-1.6501,-1.6355,-1.6274,-1.6065,-1.5696,-1.5403,-1.5075,-1.4704,-1.455,-1.4274,-1.3947,-1.3933,-1.3927,-1.3874,-1.3728,-1.3628,-1.3728,-1.3993,-1.4105,-1.3728,-1.3594,-1.3425,-1.3163,-1.299,-1.2838,-1.285,-1.285,-1.2873,-1.2873,-1.2838,-1.2768,-1.2745,-1.2709,-1.2639,-1.2639,-1.2567,-1.2484,-1.2258,-1.2029,-1.17,-1.118,-1.0687,-1.0127,-0.9744,-0.9417,-0.9297,-0.9177,-0.8553,-0.7979,-0.7648,-0.728,-0.7041,-0.6787,-0.6793,-0.6751,-0.6708,-0.6745,-0.6865,-0.6943,-0.6985,-0.6943,-0.6852,-0.6859,-0.6816,-3.5887,-3.581,-3.4917,-3.4875,-3.5058,-3.3674,-3.2974,-3.2814,-3.1878,-3.1104,-3.0618,-2.9391,-2.837,-2.7433,-2.631,-2.5372,-2.5486,-2.6677,-2.7383,-2.7402,-2.7584,-2.8067,-2.8227,-2.6259,-2.5899,-2.5823,-2.4605,-2.3946,-2.3837,-2.3816,-2.3795,-2.3792,-2.3725,-2.3656,-2.3419,-2.2223,-2.1479,-2.0575,-1.9419,-1.8316,-1.7477,-1.7125,-1.6917,-1.6763,-1.6659,-1.6607,-1.6607,-1.6607,-1.6596,-1.6596,-1.6596,-1.649,-1.6328,-1.6136,-1.5725,-1.5374,-1.5091,-1.483,-1.4394,-1.4342,-1.4219,-1.392,-1.3832,-1.3888,-1.3908,-1.3941,-1.3927,-1.4203,-1.43,-1.4189,-1.3941,-1.3841,-1.3586,-1.3404,-1.3267,-1.3185,-1.3129,-1.3116,-1.3151,-1.3151,-1.3116,-1.2943,-1.285,-1.2745,-1.2709,-1.2709,-1.2674,-1.2591,-1.2365,-1.2029,-1.159,-1.0992,-1.0505,-0.9971,-0.9576,-0.9257,-0.8967,-0.8886,-0.8144,-0.744,-0.7238,-0.7034,-0.6823,-0.666,-0.6666,-0.6715,-0.6751,-0.6787,-0.6907,-0.6943,-0.6985,-0.6979,-0.6972,-0.6985,-0.7027,-3.523,-3.5185,-3.465,-3.4345,-3.4218,-3.3826,-3.3704,-3.3275,-3.1754,-3.1018,-3.0674,-2.9087,-2.7783,-2.6806,-2.6032,-2.5622,-2.5721,-2.7138,-2.7842,-2.7579,-2.8017,-2.8396,-2.7985,-2.6804,-2.6195,-2.5468,-2.4791,-2.413,-2.3978,-2.3855,-2.3795,-2.3792,-2.3725,-2.3634,-2.3535,-2.2516,-2.1522,-2.0402,-1.9064,-1.7923,-1.7363,-1.7034,-1.6841,-1.6686,-1.6649,-1.6607,-1.6607,-1.6607,-1.6596,-1.6554,-1.6554,-1.634,-1.5994,-1.5767,-1.5507,-1.4996,-1.4828,-1.4626,-1.441,-1.4391,-1.4214,-1.411,-1.4105,-1.4124,-1.4151,-1.4138,-1.4138,-1.43,-1.43,-1.4235,-1.4118,-1.3987,-1.3808,-1.3641,-1.3539,-1.3459,-1.3391,-1.3425,-1.3412,-1.3412,-1.3391,-1.3185,-1.3012,-1.2908,-1.2803,-1.2627,-1.2591,-1.2484,-1.2138,-1.1726,-1.1217,-1.0621,-1.0244,-0.9823,-0.9417,-0.9047,-0.8635,-0.8349,-0.7655,-0.7076,-0.6956,-0.6787,-0.666,-0.6575,-0.6617,-0.666,-0.6781,-0.6829,-0.6907,-0.695,-0.6985,-0.6959,-0.6932,-0.7071,-0.7073,-3.4062,-3.4062,-3.4394,-3.4247,-3.3868,-3.4216,-3.3975,-3.328,-3.1334,-3.0406,-2.9806,-2.8118,-2.678,-2.6288,-2.5878,-2.5552,-2.5697,-2.7281,-2.7696,-2.7979,-2.8278,-2.8239,-2.749,-2.6674,-2.5857,-2.5485,-2.4633,-2.4228,-2.4095,-2.3937,-2.3795,-2.3795,-2.3725,-2.3656,-2.3356,-2.2764,-2.1826,-2.0396,-1.8909,-1.7866,-1.724,-1.6968,-1.6789,-1.6659,-1.6607,-1.6607,-1.6607,-1.6607,-1.6581,-1.6554,-1.6474,-1.6188,-1.5796,-1.5739,-1.5492,-1.5088,-1.4907,-1.4954,-1.476,-1.4645,-1.4547,-1.4497,-1.4415,-1.4268,-1.4268,-1.43,-1.43,-1.43,-1.43,-1.43,-1.4268,-1.4105,-1.3974,-1.3874,-1.3808,-1.3695,-1.3628,-1.3682,-1.3695,-1.3661,-1.3594,-1.3391,-1.322,-1.3151,-1.2943,-1.2662,-1.2508,-1.2365,-1.192,-1.1431,-1.0954,-1.04,-0.9922,-0.9536,-0.9136,-0.8765,-0.8341,-0.7931,-0.7238,-0.6956,-0.695,-0.6781,-0.6611,-0.6568,-0.6575,-0.6523,-0.655,-0.671,-0.6872,-0.6872,-0.6859,-0.6829,-0.6844,-0.6997,-0.714,-3.2282,-3.2421,-3.3935,-3.4874,-3.534,-3.4711,-3.3432,-3.2042,-3.0844,-2.9079,-2.743,-2.6082,-2.6022,-2.6175,-2.573,-2.5283,-2.512,-2.6537,-2.6973,-2.6921,-2.6834,-2.7455,-2.6933,-2.6114,-2.5205,-2.5208,-2.4635,-2.4303,-2.421,-2.4019,-2.3878,-2.3792,-2.3725,-2.3682,-2.3482,-2.2987,-2.1995,-2.0632,-1.9273,-1.8198,-1.7445,-1.7016,-1.6815,-1.6633,-1.6607,-1.6607,-1.6607,-1.6607,-1.657,-1.6543,-1.6367,-1.6133,-1.5767,-1.5754,-1.5492,-1.5255,-1.5255,-1.533,-1.5256,-1.4859,-1.4574,-1.4574,-1.4511,-1.4332,-1.4397,-1.4319,-1.4332,-1.4397,-1.4447,-1.4351,-1.4319,-1.4254,-1.4124,-1.404,-1.3974,-1.3927,-1.3927,-1.3993,-1.3993,-1.3954,-1.3808,-1.3547,-1.3276,-1.3138,-1.2791,-1.2508,-1.221,-1.2066,-1.159,-1.1105,-1.0687,-1.0196,-0.9686,-0.9208,-0.8724,-0.8398,-0.8226,-0.7855,-0.728,-0.7154,-0.7196,-0.6985,-0.6568,-0.6611,-0.6605,-0.6419,-0.6306,-0.6464,-0.6581,-0.6677,-0.6693,-0.6611,-0.658,-0.6691,-0.6937,-3.2104,-3.2225,-3.3379,-3.3719,-3.3535,-3.3628,-3.2962,-3.1593,-2.9777,-2.8116,-2.6554,-2.5745,-2.5753,-2.622,-2.624,-2.59,-2.6104,-2.7504,-2.7728,-2.8145,-2.8476,-2.8244,-2.7466,-2.6465,-2.5949,-2.5092,-2.4538,-2.4374,-2.4284,-2.4173,-2.4173,-2.4039,-2.3789,-2.3682,-2.3482,-2.2993,-2.2013,-2.1112,-1.9733,-1.8426,-1.8029,-1.7068,-1.6727,-1.6607,-1.6607,-1.6607,-1.6607,-1.6607,-1.6517,-1.6355,-1.6219,-1.5981,-1.5725,-1.5696,-1.5551,-1.5344,-1.5492,-1.5594,-1.5652,-1.5225,-1.4966,-1.4683,-1.4511,-1.4383,-1.4556,-1.4574,-1.4718,-1.478,-1.4686,-1.4606,-1.4588,-1.4415,-1.4222,-1.417,-1.4138,-1.4138,-1.4189,-1.4241,-1.4176,-1.4092,-1.3914,-1.3735,-1.3399,-1.3091,-1.2708,-1.2318,-1.2066,-1.1737,-1.133,-1.084,-1.039,-0.9952,-0.9478,-0.9088,-0.8643,-0.8398,-0.8152,-0.778,-0.7363,-0.7321,-0.728,-0.6781,-0.6496,-0.6538,-0.6579,-0.64,-0.6272,-0.6247,-0.63,-0.6401,-0.6354,-0.6304,-0.6344,-0.6442,-0.6712,-3.1731,-3.1853,-3.2674,-3.2831,-3.2567,-3.3023,-3.2414,-3.0964,-2.9272,-2.7682,-2.6583,-2.5774,-2.5793,-2.6406,-2.6546,-2.6213,-2.6565,-2.7733,-2.8236,-2.8452,-2.8477,-2.8417,-2.7533,-2.6574,-2.5623,-2.4773,-2.4596,-2.453,-2.4464,-2.4445,-2.4392,-2.421,-2.3876,-2.3707,-2.3516,-2.2868,-2.2153,-2.1396,-2.0538,-1.9136,-1.8799,-1.785,-1.7093,-1.6976,-1.6781,-1.6607,-1.6607,-1.6581,-1.6517,-1.6382,-1.6191,-1.6009,-1.5811,-1.5667,-1.5624,-1.5624,-1.5667,-1.5739,-1.5796,-1.5638,-1.5315,-1.4996,-1.4683,-1.47,-1.4825,-1.4887,-1.4887,-1.5179,-1.5072,-1.4918,-1.4871,-1.4606,-1.4479,-1.4447,-1.4383,-1.4415,-1.442,-1.4452,-1.431,-1.4214,-1.4019,-1.3789,-1.3353,-1.3022,-1.2532,-1.215,-1.1833,-1.1575,-1.1276,-1.0736,-1.0157,-0.9716,-0.9239,-0.8926,-0.8651,-0.8447,-0.8201,-0.7953,-0.7579,-0.737,-0.7167,-0.6751,-0.6538,-0.6666,-0.6639,-0.6381,-0.6266,-0.622,-0.6143,-0.6071,-0.6059,-0.5983,-0.6369,-0.6497,-0.6645,-3.0929,-3.1026,-3.1814,-3.2557,-3.296,-3.3239,-3.1791,-2.9667,-2.8999,-2.7961,-2.6525,-2.5707,-2.5832,-2.6428,-2.6474,-2.6288,-2.6504,-2.7924,-2.8332,-2.7689,-2.8122,-2.7401,-2.6515,-2.5787,-2.5404,-2.4896,-2.4657,-2.4615,-2.4652,-2.4498,-2.4462,-2.4374,-2.4019,-2.3689,-2.3816,-2.3486,-2.2729,-2.185,-2.1569,-2.0586,-1.9527,-1.8597,-1.7931,-1.7354,-1.6876,-1.6623,-1.6607,-1.6607,-1.6543,-1.6436,-1.6246,-1.6108,-1.6024,-1.6009,-1.6024,-1.6039,-1.6301,-1.6382,-1.6344,-1.5953,-1.5609,-1.5285,-1.498,-1.4966,-1.5149,-1.5088,-1.5041,-1.5448,-1.5315,-1.5133,-1.4949,-1.4794,-1.4763,-1.47,-1.4624,-1.456,-1.4547,-1.447,-1.4356,-1.413,-1.3986,-1.3776,-1.3353,-1.2871,-1.2389,-1.1968,-1.1623,-1.1335,-1.1099,-1.0708,-1.0079,-0.9637,-0.9199,-0.8926,-0.8692,-0.8496,-0.825,-0.8002,-0.7746,-0.7454,-0.7245,-0.6907,-0.6787,-0.6836,-0.6687,-0.6466,-0.6291,-0.6179,-0.6129,-0.6065,-0.5786,-0.579,-0.6222,-0.6533,-0.6634,-3.0312,-3.0853,-3.1124,-3.1058,-3.0863,-3.0786,-2.9907,-2.8529,-2.7334,-2.6387,-2.5887,-2.5464,-2.5842,-2.6256,-2.6149,-2.6329,-2.7589,-2.7369,-2.7644,-2.8096,-2.8141,-2.7431,-2.6526,-2.5806,-2.529,-2.4786,-2.4578,-2.4596,-2.4566,-2.4513,-2.4564,-2.4495,-2.4097,-2.3667,-2.3394,-2.3126,-2.276,-2.2374,-2.1764,-2.0849,-1.9907,-1.8939,-1.8052,-1.7385,-1.6897,-1.6659,-1.6623,-1.6607,-1.657,-1.6436,-1.6219,-1.608,-1.608,-1.6108,-1.5996,-1.6123,-1.6371,-1.6316,-1.6277,-1.6067,-1.5911,-1.558,-1.5315,-1.5255,-1.5492,-1.5492,-1.5595,-1.5682,-1.558,-1.5448,-1.5299,-1.5013,-1.4921,-1.4859,-1.4766,-1.4624,-1.4529,-1.4401,-1.4241,-1.398,-1.3782,-1.3535,-1.316,-1.2988,-1.2567,-1.2138,-1.1796,-1.1201,-1.0888,-1.0592,-1.0118,-0.9677,-0.9279,-0.8967,-0.8732,-0.8537,-0.825,-0.7919,-0.7663,-0.7398,-0.7189,-0.7027,-0.695,-0.6956,-0.6735,-0.6569,-0.6552,-0.649,-0.6251,-0.6075,-0.5991,-0.5967,-0.6311,-0.6496,-0.6512,-2.9668,-2.9892,-2.9927,-2.9608,-2.9146,-2.9355,-2.8827,-2.7579,-2.6118,-2.5448,-2.5448,-2.5423,-2.5648,-2.5871,-2.5784,-2.5543,-2.7286,-2.7067,-2.6929,-2.7599,-2.7549,-2.6886,-2.6376,-2.5891,-2.5324,-2.481,-2.4673,-2.4673,-2.4647,-2.4676,-2.4629,-2.4445,-2.4115,-2.3667,-2.3324,-2.306,-2.291,-2.2659,-2.216,-2.1574,-2.0699,-1.977,-1.8718,-1.7888,-1.7273,-1.6923,-1.6702,-1.6581,-1.6543,-1.634,-1.6203,-1.6093,-1.6136,-1.6136,-1.6037,-1.6246,-1.6289,-1.6234,-1.625,-1.6166,-1.5996,-1.5854,-1.558,-1.558,-1.5725,-1.5696,-1.5826,-1.5911,-1.5811,-1.5696,-1.5521,-1.524,-1.5165,-1.5104,-1.5043,-1.489,-1.4749,-1.4655,-1.4305,-1.4013,-1.3661,-1.3378,-1.3138,-1.3,-1.2791,-1.2389,-1.1993,-1.1356,-1.0764,-1.0467,-1.0235,-0.9873,-0.9439,-0.9128,-0.8846,-0.861,-0.8283,-0.7878,-0.7704,-0.7523,-0.7349,-0.7231,-0.7154,-0.7118,-0.7078,-0.7025,-0.6951,-0.6877,-0.6842,-0.6737,-0.6515,-0.6529,-0.6553,-0.6511,-0.6496,-2.8997,-2.8281,-2.8261,-2.8273,-2.8212,-2.853,-2.7977,-2.6653,-2.5848,-2.5453,-2.5434,-2.5354,-2.5492,-2.5416,-2.5274,-2.5063,-2.4832,-2.5194,-2.5316,-2.539,-2.5604,-2.56,-2.5602,-2.5254,-2.4891,-2.4864,-2.4832,-2.4738,-2.4757,-2.4711,-2.4564,-2.4284,-2.3959,-2.3512,-2.3159,-2.3007,-2.2892,-2.2798,-2.2556,-2.1898,-2.1026,-2.0689,-1.9421,-1.8435,-1.7678,-1.7149,-1.6833,-1.6554,-1.657,-1.6517,-1.649,-1.6474,-1.6501,-1.6528,-1.649,-1.6409,-1.6301,-1.6289,-1.6262,-1.6194,-1.6123,-1.5996,-1.5839,-1.5911,-1.5911,-1.5839,-1.5911,-1.5983,-1.5955,-1.5782,-1.5623,-1.5551,-1.5477,-1.5448,-1.5418,-1.5299,-1.5149,-1.489,-1.4501,-1.4117,-1.3769,-1.3514,-1.3344,-1.3207,-1.2943,-1.2579,-1.2138,-1.1664,-1.1067,-1.0582,-1.0351,-1.0196,-0.9795,-0.9368,-0.9088,-0.8895,-0.8529,-0.816,-0.8036,-0.7863,-0.7648,-0.7474,-0.7482,-0.7482,-0.7516,-0.7525,-0.7586,-0.7629,-0.7697,-0.7492,-0.709,-0.6884,-0.684,-0.6603,-0.6595,-2.787,-2.8176,-2.8223,-2.7519,-2.6272,-2.5268,-2.4852,-2.4922,-2.5263,-2.5209,-2.4621,-2.5224,-2.5286,-2.5348,-2.4733,-2.4639,-2.463,-2.4571,-2.4398,-2.4309,-2.4173,-2.3976,-2.395,-2.4024,-2.4011,-2.4241,-2.4417,-2.4622,-2.4632,-2.4604,-2.4315,-2.404,-2.3658,-2.3119,-2.2764,-2.2648,-2.2659,-2.2669,-2.247,-2.1752,-2.1032,-2.0472,-1.9251,-1.8161,-1.7757,-1.7212,-1.6716,-1.6543,-1.6517,-1.6479,-1.6316,-1.6246,-1.6367,-1.6258,-1.6136,-1.6262,-1.6234,-1.625,-1.6222,-1.6194,-1.6139,-1.6095,-1.5996,-1.6039,-1.5996,-1.594,-1.5926,-1.5983,-1.597,-1.5797,-1.574,-1.5697,-1.5668,-1.5639,-1.558,-1.5463,-1.5269,-1.5013,-1.4596,-1.4181,-1.3835,-1.3615,-1.348,-1.3254,-1.2978,-1.2685,-1.233,-1.1884,-1.1404,-1.0926,-1.0467,-1.0312,-1.0118,-0.9677,-0.9527,-0.9337,-0.8886,-0.8521,-0.8324,-0.8077,-0.7787,-0.7655,-0.7773,-0.7972,-0.817,-0.8246,-0.8274,-0.8305,-0.8326,-0.7939,-0.7594,-0.7347,-0.7098,-0.6898,-0.6737,-2.7031,-2.7153,-2.6827,-2.5882,-2.4564,-2.3475,-2.3137,-2.343,-2.4354,-2.4379,-2.3823,-2.4467,-2.4664,-2.4207,-2.3496,-2.3251,-2.3534,-2.2728,-2.2498,-2.2921,-2.3025,-2.2976,-2.2855,-2.3001,-2.3225,-2.3486,-2.3766,-2.4002,-2.3982,-2.3771,-2.3501,-2.4043,-2.3424,-2.2543,-2.2066,-2.1906,-2.1735,-2.1815,-2.167,-2.1079,-2.0468,-1.9877,-1.8757,-1.7754,-1.7622,-1.7153,-1.6584,-1.649,-1.6463,-1.6425,-1.6262,-1.6219,-1.6301,-1.6136,-1.6095,-1.6179,-1.6123,-1.6123,-1.6123,-1.6083,-1.6055,-1.6055,-1.6039,-1.5998,-1.5983,-1.5926,-1.5955,-1.6026,-1.5913,-1.5827,-1.5827,-1.5799,-1.5799,-1.5814,-1.5654,-1.5522,-1.5299,-1.5074,-1.469,-1.4259,-1.3934,-1.3702,-1.348,-1.3288,-1.3094,-1.2838,-1.2579,-1.2174,-1.1737,-1.1255,-1.0764,-1.0418,-1.0273,-1.004,-0.9883,-0.9616,-0.9168,-0.8724,-0.8406,-0.8167,-0.7878,-0.7912,-0.8111,-0.8513,-0.891,-0.8789,-0.8511,-0.8826,-0.8898,-0.8447,-0.8094,-0.7826,-0.7551,-0.7226,-0.7101,-2.6193,-2.5408,-2.4551,-2.3831,-2.3049,-2.2788,-2.2304,-2.1789,-2.2937,-2.3276,-2.2953,-2.3255,-2.3202,-2.2852,-2.2288,-2.1822,-2.1771,-2.1177,-2.1171,-2.1451,-2.1569,-2.1694,-2.2096,-2.2545,-2.2479,-2.2723,-2.3063,-2.3369,-2.2752,-2.267,-2.3105,-2.4026,-2.2445,-2.1532,-2.145,-2.1109,-2.0813,-2.0349,-2.0641,-2.0551,-1.995,-1.9402,-1.8909,-1.7909,-1.7547,-1.7282,-1.6667,-1.6436,-1.6436,-1.6436,-1.6382,-1.6355,-1.6219,-1.6234,-1.6207,-1.6262,-1.6246,-1.6246,-1.6246,-1.6219,-1.6166,-1.6083,-1.5942,-1.6104,-1.6235,-1.6,-1.5942,-1.5942,-1.5827,-1.577,-1.5741,-1.5697,-1.5712,-1.5712,-1.561,-1.5418,-1.5165,-1.4982,-1.4797,-1.4388,-1.4144,-1.3881,-1.3581,-1.3391,-1.3254,-1.3012,-1.2803,-1.2473,-1.2126,-1.1653,-1.118,-1.0677,-1.0341,-1.0196,-1.0,-0.9725,-0.9359,-0.8967,-0.8651,-0.8291,-0.8036,-0.8209,-0.8463,-0.8846,-0.9222,-0.8844,-0.8651,-0.8924,-0.9083,-0.8919,-0.8574,-0.8356,-0.8024,-0.7723,-0.7279,-2.3922,-2.3649,-2.2789,-2.2283,-2.2018,-2.1379,-2.1013,-2.0791,-2.1095,-2.1632,-2.1836,-2.1533,-2.1559,-2.1829,-2.1654,-2.1246,-2.0639,-2.0508,-2.0408,-2.0557,-2.0608,-2.0802,-2.0967,-2.1512,-2.1583,-2.181,-2.2193,-2.2714,-2.2778,-2.2551,-2.2362,-2.3068,-2.1826,-2.1074,-2.059,-2.0285,-2.0035,-1.9247,-1.9453,-1.9662,-1.92,-1.9072,-1.8724,-1.7861,-1.7385,-1.738,-1.6971,-1.6763,-1.6789,-1.6773,-1.6517,-1.6301,-1.608,-1.6262,-1.6316,-1.6371,-1.6548,-1.6649,-1.6669,-1.6689,-1.6752,-1.6685,-1.6662,-1.6772,-1.6691,-1.6179,-1.5901,-1.5872,-1.577,-1.5726,-1.5668,-1.561,-1.558,-1.558,-1.558,-1.5315,-1.5059,-1.4951,-1.4873,-1.4624,-1.4351,-1.4059,-1.3762,-1.3527,-1.3391,-1.3254,-1.3094,-1.2873,-1.2579,-1.2175,-1.1653,-1.1132,-1.0495,-1.0273,-1.0147,-0.9952,-0.9637,-0.9319,-0.8999,-0.8643,-0.8283,-0.8488,-0.8741,-0.9159,-0.9385,-0.8941,-0.8686,-0.8882,-0.8985,-0.9005,-0.9037,-0.88,-0.8619,-0.8359,-0.7661,-2.3098,-2.3003,-2.2168,-2.1559,-2.1167,-2.0699,-2.0506,-2.0516,-2.0519,-2.0739,-2.1069,-2.0673,-2.0656,-2.1075,-2.1056,-2.092,-2.0332,-2.0311,-2.0315,-2.0273,-2.023,-2.0271,-2.045,-2.0652,-2.0719,-2.0934,-2.1088,-2.1589,-2.2553,-2.1685,-2.1235,-2.2019,-2.1278,-2.0337,-1.9747,-1.9861,-1.9497,-1.8588,-1.8745,-1.8675,-1.8535,-1.8393,-1.8149,-1.7436,-1.7261,-1.7284,-1.7101,-1.6866,-1.6799,-1.6763,-1.6517,-1.6517,-1.6367,-1.6421,-1.649,-1.668,-1.694,-1.7237,-1.7284,-1.7423,-1.7594,-1.7572,-1.7515,-1.7731,-1.7706,-1.727,-1.6758,-1.6638,-1.5816,-1.5654,-1.558,-1.5536,-1.5536,-1.5536,-1.5536,-1.5389,-1.5269,-1.5179,-1.5102,-1.5011,-1.4669,-1.4222,-1.3861,-1.3357,-1.3254,-1.3357,-1.3232,-1.3232,-1.2975,-1.2637,-1.2151,-1.1616,-1.0981,-1.0621,-1.0544,-1.0302,-0.9991,-0.9677,-0.931,-0.8999,-0.8683,-0.8854,-0.9096,-0.9279,-0.927,-0.8852,-0.874,-0.8886,-0.8999,-0.9042,-0.9138,-0.9222,-0.9089,-0.8976,-0.8379,-2.271,-2.2641,-2.1932,-2.1204,-2.0582,-2.0507,-2.05,-2.0508,-2.0511,-2.0503,-2.0541,-2.0468,-2.0424,-2.0421,-2.0417,-2.036,-2.0321,-2.0339,-2.0318,-2.0296,-2.0273,-2.0257,-2.0214,-2.0237,-2.027,-2.0191,-2.0236,-2.1017,-2.1981,-2.0854,-2.0404,-2.1007,-2.0418,-1.9446,-1.9543,-1.9308,-1.877,-1.8641,-1.859,-1.84,-1.8061,-1.7738,-1.7512,-1.7281,-1.7109,-1.6952,-1.6876,-1.6815,-1.6747,-1.6659,-1.657,-1.649,-1.6517,-1.6501,-1.6581,-1.676,-1.7354,-1.762,-1.7812,-1.8111,-1.8447,-1.8633,-1.86,-1.8496,-1.8466,-1.8129,-1.7593,-1.7061,-1.6264,-1.5772,-1.5728,-1.5566,-1.5566,-1.5595,-1.5566,-1.5536,-1.5462,-1.5373,-1.5327,-1.5297,-1.4871,-1.4429,-1.398,-1.3446,-1.3344,-1.3425,-1.3425,-1.3459,-1.3344,-1.2953,-1.2484,-1.1982,-1.1442,-1.118,-1.0926,-1.0659,-1.0302,-0.9913,-0.9549,-0.9279,-0.9047,-0.9047,-0.9056,-0.9128,-0.9007,-0.8765,-0.8675,-0.8756,-0.891,-0.9062,-0.954,-0.9728,-0.9591,-0.9415,-0.908,-2.0994,-2.0959,-2.0809,-2.0645,-2.0501,-2.0502,-2.0508,-2.05,-2.0499,-2.0516,-2.0506,-2.0488,-2.0443,-2.039,-2.0394,-2.0371,-2.0366,-2.0366,-2.0332,-2.0284,-2.0289,-2.0254,-2.0222,-2.0171,-2.0049,-1.9974,-1.9972,-2.0421,-2.1049,-2.0252,-1.9983,-2.0714,-2.0013,-1.9342,-1.9144,-1.8931,-1.8825,-1.868,-1.8566,-1.8413,-1.8255,-1.7941,-1.7579,-1.7415,-1.7368,-1.7224,-1.7126,-1.7052,-1.7027,-1.6926,-1.6738,-1.6528,-1.6517,-1.6554,-1.6649,-1.6913,-1.754,-1.7888,-1.814,-1.835,-1.8639,-1.9065,-1.8935,-1.8817,-1.8651,-1.839,-1.8007,-1.7851,-1.7136,-1.6456,-1.6245,-1.593,-1.5826,-1.5844,-1.5845,-1.5772,-1.5713,-1.555,-1.5414,-1.525,-1.4961,-1.462,-1.4324,-1.3967,-1.3769,-1.3782,-1.3741,-1.3741,-1.3648,-1.3276,-1.2861,-1.2425,-1.192,-1.1367,-1.0964,-1.084,-1.0534,-1.0137,-0.9746,-0.9478,-0.9248,-0.9088,-0.9128,-0.9208,-0.9016,-0.8773,-0.8724,-0.8716,-0.8878,-0.9151,-0.9981,-1.0302,-1.0127,-0.9785,-0.937]},{"header":{"parameterUnit":"m.s-1","parameterCategory":1,"la1":31.0,"la2":29.5877,"lo1":-88.7671,"lo2":-86.6584,"dy":0.0162,"dx":0.0185,"nx":115,"ny":88,"refTime":"2023-07-26T12:00:00:Z","depth":0,"parameterNumber":3,"parameterNumberName":"V-component_of_WINDS"},"data":[0.0,0.0,0.0,0.0,0.0,0.0,0.0,0.0,0.0,0.0,0.0,0.0,0.0,0.0,0.0,0.0,0.0,0.0,0.0,0.0,0.0,0.0,0.0,0.0,0.0,0.0,0.0,0.0,0.0,0.0,0.0,0.0,0.0,0.0,0.0,0.0,0.0,0.0,0.0,0.0,0.0,0.0,0.0,0.0,0.0,0.0,0.0,0.0,0.0,0.0,0.0,0.0,0.0,0.0,0.0,0.0,0.0,0.0,0.0,0.0,0.0,0.0,0.0,0.0,0.0,0.0,0.0,0.0,0.0,0.0,0.0,0.0,0.0,0.0,0.0,0.0,0.0,0.0,0.0,0.0,0.0,0.0,0.0,0.0,0.0,0.0,0.0,0.0,0.0,0.0,0.0,0.0,0.0,0.0,0.0,0.0,0.0,0.0,0.0,0.0,0.0,0.0,0.0,0.0,0.0,0.0,0.0,0.0,0.0,0.0,0.0,0.0,0.0,0.0,0.0,0.0,0.0,0.0,0.0,0.0,0.0,0.0,0.0,0.0,0.0,0.0,0.0,0.0,0.0,0.0,0.0,0.0,0.0,0.0,0.0,0.0,0.0,0.0,0.0,0.0,0.0,0.0,0.0,0.0,0.0,0.0,0.0,0.0,0.0,0.0,0.0,0.0,0.0,0.0,0.0,0.0,0.0,0.0,0.0,0.0,0.0,0.0,0.0,0.0,0.0,0.0,0.0,0.0,0.0,0.0,0.0,0.0,0.0,0.0,0.0,0.0,0.0,0.0,0.0,0.0,0.0,0.0,0.0,0.0,0.0,0.0,0.0,0.0,0.0,0.0,0.0,0.0,0.0,0.0,0.0,0.0,0.0,0.0,0.0,0.0,0.0,0.0,0.0,0.0,0.0,0.0,0.0,0.0,0.0,0.0,0.0,0.0,0.0,0.0,0.0,0.0,0.0,0.0,0.0,0.0,0.0,0.0,0.0,0.0,0.0,0.0,0.0,0.0,0.0,0.0,0.0,0.0,0.0,0.0,0.0,0.0,0.0,0.0,0.0,0.0,0.0,0.0,0.0,0.0,0.0,0.0,0.0,0.0,0.0,0.0,0.0,0.0,0.0,0.0,0.0,0.0,0.0,0.0,0.0,0.0,0.0,0.0,0.0,0.0,0.0,0.0,0.0,0.0,0.0,0.0,0.0,0.0,0.0,0.0,0.0,0.0,0.0,0.0,0.0,0.0,0.0,0.0,0.0,0.0,0.0,0.0,0.0,0.0,0.0,0.0,0.0,0.0,0.0,0.0,0.0,0.0,0.0,0.0,0.0,0.0,0.0,0.0,0.0,0.0,0.0,0.0,0.0,0.0,0.0,0.0,0.0,0.0,0.0,0.0,0.0,0.0,0.0,0.0,0.0,0.0,0.0,0.0,0.0,0.0,0.0,0.0,0.0,0.0,0.0,0.0,0.0,0.0,0.0,0.0,0.0,0.0,0.0,0.0,0.0,0.0,0.0,0.0,0.0,0.0,0.0,0.0,0.0,0.0,0.0,0.0,0.0,0.0,0.0,0.0,0.0,0.0,0.0,0.0,0.0,0.0,0.0,0.0,0.0,0.0,0.0,0.0,0.0,0.0,0.0,0.0,0.0,0.0,0.0,0.0,0.0,0.0,0.0,0.0,0.0,0.0,0.0,0.0,0.0,0.0,0.0,0.0,0.0,0.0,0.0,0.0,0.0,0.0,0.0,0.0,0.0,0.0,0.0,0.0,0.0,0.0,0.0,0.0,0.0,0.0,0.0,0.0,0.0,0.0,0.0,0.0,0.0,0.0,0.0,0.0,0.0,0.0,0.0,0.0,0.0,0.0,0.0,0.0,0.0,0.0,0.0,0.0,0.0,0.0,0.0,0.0,0.0,0.0,0.0,0.0,0.0,0.0,0.0,0.0,0.0,0.0,0.0,0.0,0.0,0.0,0.0,0.0,0.0,0.0,0.0,0.0,0.0,0.0,0.0,0.0,0.0,0.0,0.0,0.0,0.0,0.0,0.0,0.0,0.0,0.0,0.0,0.0,0.0,0.0,0.0,0.0,0.0,0.0,0.0,0.0,0.0,0.0,0.0,0.0,0.0,0.0,0.0,0.0,0.0,0.0,0.0,0.0,0.0,0.0,0.0,0.0,0.0,0.0,0.0,0.0,0.0,0.0,0.0,0.0,0.0,0.0,0.0,0.0,0.0,0.0,0.0,0.0,0.0,0.0,0.0,0.0,0.0,0.0,0.0,0.0,0.0,0.0,0.0,0.0,0.0,0.0,0.0,0.0,0.0,0.0,0.0,0.0,0.0,0.0,0.0,0.0,0.0,0.0,0.0,0.0,0.0,0.0,0.0,0.0,0.0,0.0,0.0,0.0,0.0,0.0,0.0,0.0,0.0,0.0,0.0,0.0,0.0,0.0,0.0,0.0,0.0,0.0,0.0,0.0,0.0,0.0,0.0,0.0,0.0,0.0,0.0,0.0,0.0,0.0,0.0,0.0,0.0,0.0,0.0,0.0,0.0,0.0,0.0,0.0,0.0,0.0,0.0,0.0,0.0,0.0,0.0,0.0,0.0,0.0,0.0,0.0,0.0,0.0,0.0,0.0,0.0,0.0,0.0,0.0,0.0,0.0,0.0,0.0,0.0,0.0,0.0,0.0,0.0,0.0,0.0,0.0,0.0,0.0,0.0,0.0,0.0,0.0,0.0,0.0,0.0,0.0,0.0,0.0,0.0,0.0,0.0,0.0,0.0,0.0,0.0,0.0,0.0,0.0,0.0,0.0,0.0,0.0,0.0,0.0,0.0,0.0,0.0,0.0,0.0,0.0,0.0,0.0,0.0,0.0,0.0,0.0,0.0,0.0,0.0,0.0,0.0,0.0,0.0,0.0,0.0,0.0,0.0,0.0,0.0,0.0,0.0,0.0,0.0,0.0,0.0,0.0,0.0,0.0,0.0,0.0,0.0,0.0,0.0,0.0,0.0,0.0,0.0,0.0,0.0,0.0,0.0,0.0,0.0,0.0,0.0,0.0,0.0,0.0,0.0,0.0,0.0,0.0,0.0,0.0,0.0,0.0,0.0,0.0,0.0,0.0,0.0,0.0,0.0,0.0,0.0,0.0,0.0,0.0,0.0,0.0,0.0,0.0,0.0,0.0,0.0,0.0,0.0,0.0,0.0,0.0,0.0,0.0,0.0,0.0,0.0,0.0,0.0,0.0,0.0,0.0,0.0,0.0,0.0,0.0,0.0,0.0,0.0,0.0,0.0,0.0,0.0,0.0,0.0,0.0,0.0,0.0,0.0,0.0,0.0,0.0,0.0,0.0,0.0,0.0,0.0,0.0,0.0,0.0,0.0,0.0,0.0,0.0,0.0,0.0,0.0,0.0,0.0,0.0,0.0,0.0,0.0,0.0,0.0,0.0,0.0,0.0,0.0,0.0,0.0,0.0,0.0,0.0,0.0,0.0,0.0,0.0,0.0,0.0,0.0,0.0,0.0,0.0,0.0,0.0,0.0,0.0,0.0,0.0,0.0,0.0,0.0,0.0,0.0,0.0,0.0,0.0,0.0,0.0,0.0,0.0,0.0,0.0,0.0,0.0,0.0,0.0,0.0,0.0,0.0,0.0,0.0,0.0,0.0,0.0,0.0,0.0,0.0,0.0,0.0,0.0,0.0,0.0,0.0,0.0,0.0,0.0,0.0,0.0,0.0,0.0,0.0,0.0,0.0,0.0,0.0,0.0,0.0,0.0,0.0,0.0,0.0,0.0,0.0,0.0,0.0,0.0,0.0,0.0,0.0,0.0,0.0,0.0,0.0,0.0,0.0,0.0,0.0,0.0,0.0,0.0,0.0,0.0,0.0,0.0,0.0,0.0,0.0,0.0,0.0,0.0,0.0,0.0,0.0,0.0,0.0,0.0,0.0,0.0,0.0,0.0,0.0,0.0,0.0,0.0,0.0,0.0,0.0,0.0,0.0,0.0,0.0,0.0,0.0,0.0,0.0,0.0,0.0,0.0,0.0,0.0,0.0,0.0,0.0,0.0,0.0,0.0,0.0,0.0,0.0,0.0,0.0,0.0,0.0,0.0,0.0,0.0,0.0,0.0,0.0,0.0,0.0,0.0,0.0,0.0,0.0,0.0,0.0,0.0,0.0,0.0,0.0,0.0,0.0,0.0,0.0,0.0,0.0,0.0,0.0,0.0,0.0,0.0,0.0,0.0,0.0,0.0,0.0,0.0,0.0,0.0,0.0,0.0,-0.9433,0.0,0.0,0.0,0.0,0.0,0.0,0.0,0.0,0.0,0.0,0.0,0.0,0.0,0.0,0.0,0.0,0.0,0.0,0.0,0.0,0.0,0.0,0.0,0.0,0.0,0.0,0.0,0.0,0.0,0.0,0.0,0.0,0.0,0.0,0.0,0.0,0.0,0.0,0.0,0.0,0.0,0.0,0.0,0.0,0.0,0.0,0.0,0.0,0.0,0.0,0.0,0.0,0.0,0.0,0.0,0.0,0.0,0.0,0.0,0.0,0.0,0.0,0.0,0.0,0.0,0.0,0.0,0.0,0.0,0.0,0.0,0.0,0.0,0.0,0.0,0.0,0.0,0.0,0.0,0.0,0.0,0.0,0.0,0.0,0.0,0.0,0.0,0.0,0.0,0.0,0.0,0.0,0.0,0.0,0.0,0.0,0.0,0.0,0.0,0.0,0.0,0.0,0.0,0.0,0.0,0.0,0.0,0.0,0.0,0.0,-1.2152,-1.2437,-1.0955,-0.9981,-0.977,0.0,0.0,0.0,0.0,0.0,0.0,0.0,0.0,0.0,0.0,0.0,0.0,0.0,0.0,0.0,0.0,0.0,0.0,0.0,0.0,0.0,0.0,0.0,0.0,0.0,0.0,0.0,0.0,0.0,0.0,0.0,0.0,0.0,0.0,0.0,0.0,0.0,0.0,0.0,0.0,0.0,0.0,0.0,0.0,0.0,0.0,0.0,0.0,0.0,0.0,0.0,0.0,0.0,0.0,0.0,0.0,0.0,0.0,0.0,0.0,0.0,0.0,0.0,0.0,0.0,0.0,0.0,0.0,0.0,0.0,0.0,0.0,0.0,0.0,0.0,0.0,0.0,0.0,0.0,0.0,0.0,0.0,0.0,0.0,0.0,0.0,0.0,0.0,0.0,0.0,0.0,0.0,0.0,0.0,0.0,0.0,0.0,0.0,0.0,0.0,0.0,0.0,0.0,0.0,0.0,0.0,0.0,0.0,0.0,0.0,0.0,0.0,-1.2023,-1.0665,-0.9974,0.0,0.0,0.0,0.0,0.0,0.0,0.0,0.0,0.0,0.0,0.0,0.0,0.0,0.0,0.0,0.0,0.0,0.0,0.0,0.0,0.0,0.0,0.0,0.0,0.0,0.0,0.0,0.0,0.0,0.0,0.0,0.0,0.0,0.0,0.0,0.0,0.0,0.0,0.0,0.0,0.0,0.0,0.0,0.0,0.0,0.0,0.0,0.0,0.0,0.0,0.0,0.0,0.0,0.0,0.0,0.0,0.0,0.0,0.0,0.0,0.0,0.0,0.0,0.0,0.0,0.0,0.0,0.0,0.0,0.0,0.0,0.0,0.0,0.0,0.0,0.0,0.0,0.0,0.0,0.0,0.0,0.0,0.0,0.0,0.0,0.0,0.0,0.0,0.0,0.0,0.0,0.0,0.0,0.0,0.0,0.0,0.0,0.0,0.0,0.0,0.0,0.0,0.0,0.0,0.0,0.0,0.0,0.0,0.0,0.0,-1.4637,-1.6138,-1.4621,0.0,-1.0328,0.0,0.0,0.0,0.0,0.0,0.0,0.0,0.0,0.0,0.0,0.0,0.0,0.0,0.0,0.0,0.0,0.0,0.0,0.0,0.0,0.0,0.0,0.0,0.0,0.0,0.0,0.0,0.0,0.0,0.0,0.0,0.0,0.0,0.0,0.0,0.0,0.0,0.0,0.0,0.0,0.0,0.0,0.0,0.0,0.0,0.0,0.0,0.0,0.0,0.0,0.0,0.0,0.0,0.0,0.0,0.0,0.0,0.0,0.0,0.0,0.0,0.0,0.0,0.0,0.0,0.0,0.0,0.0,0.0,0.0,0.0,0.0,0.0,0.0,0.0,0.0,0.0,0.0,0.0,0.0,0.0,0.0,0.0,0.0,0.0,0.0,0.0,0.0,0.0,0.0,0.0,0.0,0.0,0.0,0.0,0.0,0.0,0.0,0.0,0.0,0.0,0.0,0.0,0.0,0.0,0.0,0.0,0.0,0.0,0.0,-1.4734,-1.6227,-1.4246,-1.2023,0.0,0.0,0.0,0.0,0.0,0.0,0.0,0.0,0.0,0.0,0.0,0.0,0.0,0.0,0.0,0.0,0.0,0.0,0.0,0.0,0.0,0.0,0.0,0.0,0.0,0.0,0.0,0.0,0.0,0.0,0.0,0.0,0.0,0.0,0.0,0.0,0.0,0.0,0.0,0.0,0.0,0.0,0.0,0.0,0.0,0.0,0.0,0.0,0.0,0.0,0.0,0.0,0.0,0.0,0.0,0.0,0.0,0.0,0.0,0.0,0.0,0.0,0.0,0.0,0.0,0.0,0.0,0.0,0.0,0.0,0.0,0.0,0.0,0.0,0.0,0.0,0.0,0.0,0.0,0.0,0.0,0.0,0.0,0.0,0.0,0.0,0.0,0.0,0.0,0.0,0.0,0.0,0.0,0.0,0.0,0.0,0.0,0.0,0.0,0.0,0.0,0.0,0.0,0.0,0.0,0.0,0.0,0.0,0.0,0.0,-1.5341,-1.5284,-1.6136,-1.3791,-1.1571,-0.9756,0.0,0.0,0.0,0.0,0.0,0.0,0.0,0.0,0.0,0.0,0.0,0.0,0.0,0.0,0.0,0.0,0.0,0.0,0.0,0.0,0.0,0.0,0.0,0.0,0.0,0.0,0.0,0.0,0.0,0.0,0.0,0.0,0.0,0.0,0.0,0.0,0.0,0.0,0.0,0.0,0.0,0.0,0.0,0.0,0.0,0.0,0.0,0.0,0.0,0.0,0.0,0.0,0.0,0.0,0.0,0.0,0.0,0.0,0.0,0.0,0.0,0.0,0.0,0.0,0.0,0.0,0.0,0.0,0.0,0.0,0.0,0.0,0.0,0.0,0.0,0.0,0.0,0.0,0.0,0.0,0.0,0.0,0.0,0.0,0.0,0.0,0.0,0.0,0.0,0.0,0.0,0.0,0.0,0.0,0.0,0.0,0.0,0.0,0.0,0.0,0.0,0.0,0.0,0.0,0.0,0.0,0.0,0.0,-1.897,-1.7561,-1.676,-1.6786,-1.4105,-1.2106,0.0,0.0,0.0,0.0,0.0,0.0,0.0,0.0,0.0,0.0,0.0,0.0,0.0,0.0,0.0,0.0,0.0,0.0,0.0,0.0,0.0,0.0,0.0,0.0,0.0,0.0,0.0,0.0,0.0,0.0,0.0,0.0,0.0,0.0,0.0,0.0,0.0,0.0,0.0,0.0,0.0,0.0,0.0,0.0,0.0,0.0,0.0,0.0,0.0,0.0,0.0,0.0,0.0,0.0,0.0,0.0,0.0,0.0,0.0,0.0,0.0,0.0,0.0,0.0,0.0,0.0,0.0,0.0,0.0,0.0,0.0,0.0,0.0,0.0,0.0,0.0,0.0,0.0,0.0,0.0,0.0,0.0,0.0,0.0,0.0,0.0,0.0,0.0,0.0,0.0,0.0,0.0,0.0,0.0,0.0,0.0,0.0,0.0,0.0,0.0,0.0,0.0,0.0,0.0,0.0,0.0,0.0,0.0,0.0,-1.6968,-1.6479,-1.6118,-1.5896,-1.3839,-1.2414,0.0,0.0,0.0,0.0,0.0,0.0,0.0,0.0,0.0,0.0,0.0,0.0,0.0,0.0,0.0,0.0,0.0,0.0,0.0,0.0,0.0,0.0,0.0,0.0,0.0,0.0,0.0,0.0,0.0,0.0,0.0,0.0,0.0,0.0,0.0,0.0,0.0,0.0,0.0,0.0,0.0,0.0,0.0,0.0,0.0,0.0,0.0,0.0,0.0,0.0,0.0,0.0,0.0,0.0,0.0,0.0,0.0,0.0,0.0,0.0,0.0,0.0,0.0,0.0,0.0,0.0,0.0,0.0,0.0,0.0,0.0,0.0,0.0,0.0,0.0,0.0,0.0,0.0,0.0,0.0,0.0,0.0,0.0,0.0,0.0,0.0,0.0,0.0,0.0,0.0,0.0,0.0,0.0,0.0,0.0,0.0,0.0,0.0,0.0,0.0,0.0,0.0,0.0,0.0,0.0,0.0,0.0,0.0,0.0,-1.6668,0.0,-1.6324,-1.586,-1.4386,-1.2915,0.0,0.0,0.0,0.0,0.0,0.0,0.0,0.0,0.0,0.0,0.0,0.0,0.0,0.0,0.0,0.0,0.0,0.0,0.0,0.0,0.0,0.0,0.0,0.0,0.0,0.0,0.0,0.0,0.0,0.0,0.0,0.0,0.0,0.0,0.0,0.0,0.0,0.0,0.0,0.0,0.0,0.0,0.0,0.0,0.0,0.0,0.0,0.0,0.0,0.0,0.0,0.0,0.0,0.0,0.0,0.0,0.0,0.0,0.0,0.0,0.0,0.0,0.0,0.0,0.0,0.0,0.0,0.0,0.0,0.0,0.0,0.0,0.0,0.0,0.0,0.0,0.0,0.0,0.0,0.0,0.0,0.0,0.0,0.0,0.0,0.0,0.0,0.0,0.0,0.0,0.0,0.0,0.0,0.0,0.0,0.0,0.0,0.0,0.0,0.0,0.0,0.0,0.0,0.0,0.0,0.0,0.0,0.0,-1.7299,-1.8515,-1.8078,-1.7449,-1.6984,-1.5641,-1.3604,0.0,0.0,0.0,0.0,0.0,0.0,0.0,0.0,0.0,0.0,0.0,0.0,0.0,0.0,0.0,0.0,0.0,0.0,0.0,0.0,0.0,0.0,0.0,0.0,0.0,0.0,0.0,0.0,0.0,0.0,0.0,0.0,0.0,0.0,0.0,0.0,0.0,0.0,0.0,0.0,0.0,0.0,0.0,0.0,0.0,0.0,0.0,0.0,0.0,0.0,0.0,0.0,0.0,0.0,0.0,0.0,0.0,0.0,0.0,0.0,0.0,0.0,0.0,0.0,0.0,0.0,0.0,0.0,0.0,0.0,0.0,0.0,0.0,0.0,0.0,0.0,0.0,0.0,0.0,0.0,0.0,0.0,0.0,0.0,0.0,0.0,0.0,0.0,0.0,0.0,0.0,0.0,0.0,0.0,0.0,0.0,0.0,0.0,0.0,0.0,0.0,0.0,0.0,0.0,0.0,0.0,0.0,0.0,0.0,-1.6398,-1.5552,-1.5964,-1.7544,-1.4226,-1.2857,0.0,0.0,0.0,0.0,0.0,0.0,0.0,0.0,0.0,0.0,0.0,0.0,0.0,0.0,0.0,0.0,0.0,0.0,0.0,0.0,0.0,0.0,0.0,0.0,0.0,0.0,0.0,0.0,0.0,0.0,0.0,0.0,0.0,0.0,0.0,0.0,0.0,0.0,0.0,0.0,0.0,0.0,0.0,0.0,0.0,0.0,0.0,0.0,0.0,0.0,0.0,0.0,0.0,0.0,0.0,0.0,0.0,0.0,0.0,0.0,0.0,0.0,0.0,0.0,0.0,0.0,0.0,0.0,0.0,0.0,0.0,0.0,0.0,0.0,0.0,0.0,0.0,0.0,0.0,0.0,0.0,0.0,0.0,0.0,0.0,0.0,0.0,0.0,0.0,0.0,0.0,0.0,0.0,0.0,0.0,0.0,0.0,0.0,0.0,0.0,0.0,0.0,0.0,0.0,0.0,0.0,0.0,0.0,0.0,-1.5684,-1.5407,-1.5896,-1.7154,-1.424,-1.2978,-1.3644,0.0,0.0,0.0,0.0,0.0,0.0,0.0,0.0,0.0,0.0,0.0,0.0,0.0,0.0,0.0,0.0,0.0,0.0,0.0,0.0,0.0,0.0,0.0,0.0,0.0,0.0,0.0,0.0,0.0,0.0,0.0,0.0,0.0,0.0,0.0,0.0,0.0,0.0,0.0,0.0,0.0,0.0,0.0,0.0,0.0,0.0,0.0,0.0,0.0,0.0,0.0,0.0,0.0,0.0,0.0,0.0,0.0,0.0,0.0,0.0,0.0,0.0,0.0,0.0,0.0,0.0,0.0,0.0,0.0,0.0,0.0,0.0,0.0,0.0,0.0,0.0,0.0,0.0,0.0,0.0,0.0,0.0,0.0,0.0,0.0,0.0,0.0,0.0,0.0,0.0,0.0,0.0,0.0,0.0,0.0,0.0,0.0,0.0,0.0,0.0,0.0,0.0,0.0,0.0,0.0,0.0,0.0,0.0,-1.6111,-1.7194,-1.7089,-1.5796,-1.5371,-1.3886,0.0,0.0,0.0,0.0,0.0,0.0,0.0,0.0,0.0,0.0,0.0,0.0,0.0,0.0,0.0,0.0,0.0,0.0,0.0,0.0,0.0,0.0,0.0,0.0,0.0,0.0,0.0,0.0,0.0,0.0,0.0,0.0,0.0,0.0,0.0,0.0,0.0,0.0,0.0,0.0,0.0,0.0,0.0,0.0,0.0,0.0,0.0,0.0,0.0,0.0,0.0,0.0,0.0,0.0,0.0,0.0,0.0,0.0,0.0,0.0,0.0,0.0,0.0,0.0,0.0,0.0,0.0,0.0,0.0,0.0,0.0,0.0,0.0,0.0,0.0,0.0,0.0,0.0,0.0,0.0,0.0,0.0,0.0,0.0,0.0,0.0,0.0,0.0,0.0,0.0,0.0,0.0,0.0,0.0,0.0,0.0,0.0,0.0,0.0,0.0,0.0,0.0,0.0,0.0,0.0,0.0,0.0,0.0,0.0,-1.726,-1.741,-1.7365,-1.6954,-1.5037,-1.3748,0.0,0.0,0.0,0.0,0.0,0.0,0.0,0.0,0.0,0.0,0.0,0.0,0.0,0.0,0.0,0.0,0.0,0.0,0.0,0.0,0.0,0.0,0.0,0.0,0.0,0.0,0.0,0.0,0.0,0.0,0.0,0.0,0.0,0.0,0.0,0.0,0.0,0.0,0.0,0.0,0.0,0.0,0.0,0.0,0.0,0.0,0.0,0.0,0.0,0.0,0.0,0.0,0.0,0.0,0.0,0.0,0.0,0.0,0.0,0.0,0.0,0.0,0.0,0.0,0.0,0.0,0.0,0.0,0.0,0.0,0.0,0.0,0.0,0.0,0.0,0.0,0.0,0.0,0.0,0.0,0.0,0.0,0.0,0.0,0.0,0.0,0.0,0.0,0.0,0.0,0.0,0.0,0.0,0.0,0.0,0.0,0.0,0.0,0.0,0.0,0.0,0.0,0.0,0.0,0.0,0.0,0.0,0.0,-1.7069,-1.7379,-1.7613,-1.779,-1.7811,-1.596,-1.4325,0.0,0.0,0.0,0.0,0.0,0.0,0.0,0.0,0.0,0.0,0.0,0.0,0.0,0.0,0.0,0.0,0.0,0.0,0.0,0.0,0.0,0.0,0.0,0.0,0.0,0.0,0.0,0.0,0.0,0.0,0.0,0.0,0.0,0.0,0.0,0.0,0.0,0.0,0.0,0.0,0.0,0.0,0.0,0.0,0.0,0.0,0.0,0.0,0.0,0.0,0.0,0.0,0.0,0.0,0.0,0.0,0.0,0.0,0.0,0.0,0.0,0.0,0.0,0.0,0.0,0.0,0.0,0.0,0.0,0.0,0.0,0.0,0.0,0.0,0.0,0.0,0.0,0.0,0.0,0.0,0.0,0.0,0.0,0.0,0.0,0.0,0.0,0.0,0.0,0.0,0.0,0.0,0.0,0.0,0.0,0.0,0.0,0.0,0.0,0.0,0.0,0.0,0.0,0.0,0.0,0.0,0.0,0.0,-1.685,-1.6889,-1.7733,-1.8214,-1.8157,-1.7266,-1.5211,0.0,0.0,0.0,0.0,0.0,0.0,0.0,0.0,0.0,0.0,0.0,0.0,0.0,0.0,0.0,0.0,0.0,0.0,0.0,0.0,0.0,0.0,0.0,0.0,0.0,0.0,0.0,0.0,0.0,0.0,0.0,0.0,0.0,0.0,0.0,0.0,0.0,0.0,0.0,0.0,0.0,0.0,0.0,0.0,0.0,0.0,0.0,0.0,0.0,0.0,0.0,0.0,0.0,0.0,0.0,0.0,0.0,0.0,0.0,0.0,0.0,0.0,0.0,0.0,0.0,0.0,0.0,0.0,0.0,0.0,0.0,0.0,0.0,0.0,0.0,0.0,0.0,0.0,0.0,0.0,0.0,0.0,0.0,0.0,0.0,0.0,0.0,0.0,0.0,0.0,0.0,0.0,0.0,0.0,0.0,0.0,0.0,0.0,0.0,0.0,0.0,0.0,0.0,0.0,0.0,0.0,0.0,0.0,-1.575,-1.6492,-1.7613,-1.8007,-1.7571,-1.6358,-1.4971,0.0,0.0,0.0,0.0,0.0,0.0,0.0,0.0,0.0,0.0,0.0,0.0,0.0,0.0,0.0,0.0,0.0,0.0,0.0,0.0,0.0,0.0,0.0,0.0,0.0,0.0,0.0,0.0,0.0,0.0,0.0,0.0,0.0,0.0,0.0,0.0,0.0,0.0,0.0,0.0,0.0,0.0,0.0,0.0,0.0,0.0,0.0,0.0,-1.4066,0.0,0.0,0.0,0.0,0.0,0.0,0.0,0.0,0.0,0.0,0.0,0.0,0.0,0.0,0.0,0.0,0.0,0.0,0.0,0.0,0.0,0.0,0.0,0.0,0.0,0.0,0.0,0.0,0.0,0.0,0.0,0.0,0.0,0.0,0.0,0.0,0.0,0.0,0.0,0.0,0.0,0.0,0.0,0.0,0.0,0.0,0.0,0.0,0.0,0.0,0.0,0.0,0.0,0.0,0.0,0.0,0.0,0.0,0.0,-1.6131,-1.7165,-1.767,-1.7989,-1.801,-1.6013,-1.4436,0.0,0.0,0.0,0.0,0.0,0.0,0.0,0.0,0.0,0.0,0.0,0.0,0.0,0.0,0.0,0.0,0.0,0.0,0.0,0.0,0.0,0.0,0.0,0.0,0.0,0.0,0.0,0.0,0.0,0.0,0.0,0.0,0.0,0.0,0.0,0.0,0.0,0.0,0.0,0.0,0.0,0.0,0.0,0.0,0.0,0.0,0.0,0.0,0.0,0.0,0.0,0.0,0.0,0.0,0.0,0.0,0.0,0.0,0.0,0.0,0.0,0.0,0.0,0.0,0.0,0.0,0.0,0.0,0.0,0.0,0.0,0.0,0.0,0.0,0.0,0.0,0.0,0.0,0.0,0.0,0.0,0.0,0.0,0.0,0.0,0.0,0.0,0.0,0.0,0.0,0.0,0.0,0.0,0.0,0.0,0.0,0.0,0.0,0.0,0.0,0.0,0.0,0.0,0.0,0.0,0.0,0.0,-1.6304,-1.6705,-1.7708,-1.772,-1.7915,-1.8338,-1.5783,-1.3959,-1.314,0.0,0.0,0.0,0.0,0.0,0.0,0.0,0.0,0.0,0.0,0.0,0.0,0.0,0.0,0.0,0.0,0.0,0.0,0.0,0.0,0.0,0.0,0.0,0.0,0.0,0.0,0.0,0.0,0.0,0.0,0.0,0.0,0.0,0.0,0.0,0.0,0.0,0.0,-1.5317,-1.555,0.0,0.0,0.0,0.0,0.0,0.0,0.0,0.0,-1.3801,0.0,0.0,0.0,0.0,0.0,0.0,0.0,0.0,0.0,0.0,0.0,0.0,0.0,0.0,0.0,0.0,0.0,0.0,0.0,0.0,0.0,0.0,0.0,0.0,0.0,0.0,0.0,0.0,0.0,0.0,0.0,0.0,0.0,0.0,0.0,0.0,0.0,0.0,0.0,0.0,0.0,0.0,0.0,0.0,0.0,0.0,0.0,0.0,0.0,0.0,0.0,0.0,0.0,0.0,0.0,0.0,-1.4908,-1.484,-1.5281,-1.6232,-1.7191,-1.7212,-1.6218,-1.5154,-1.3963,-1.2669,0.0,0.0,0.0,0.0,0.0,0.0,0.0,0.0,0.0,0.0,0.0,0.0,0.0,0.0,0.0,0.0,0.0,0.0,0.0,0.0,0.0,0.0,0.0,0.0,0.0,0.0,0.0,0.0,0.0,0.0,0.0,0.0,0.0,0.0,0.0,0.0,0.0,0.0,0.0,-1.5572,-1.5482,0.0,0.0,0.0,0.0,0.0,0.0,0.0,0.0,-1.2368,0.0,0.0,0.0,0.0,0.0,0.0,0.0,0.0,0.0,0.0,0.0,0.0,0.0,0.0,0.0,0.0,0.0,0.0,0.0,0.0,0.0,0.0,0.0,0.0,0.0,0.0,0.0,0.0,0.0,0.0,0.0,0.0,0.0,0.0,0.0,0.0,0.0,0.0,0.0,0.0,0.0,0.0,0.0,0.0,0.0,0.0,0.0,0.0,0.0,0.0,0.0,0.0,0.0,0.0,0.0,-1.5359,-1.4987,-1.5194,-1.6044,-1.6514,-1.6388,-1.5539,-1.384,-1.2637,0.0,0.0,0.0,0.0,0.0,0.0,0.0,0.0,0.0,0.0,0.0,0.0,0.0,0.0,0.0,0.0,0.0,0.0,0.0,0.0,0.0,0.0,0.0,0.0,0.0,0.0,0.0,0.0,0.0,0.0,0.0,0.0,0.0,0.0,0.0,0.0,0.0,0.0,0.0,0.0,-1.5971,-1.5837,-1.5054,0.0,0.0,0.0,0.0,0.0,0.0,-1.3528,-1.2986,0.0,0.0,0.0,0.0,0.0,0.0,0.0,0.0,0.0,0.0,0.0,0.0,0.0,0.0,0.0,0.0,0.0,0.0,0.0,0.0,0.0,0.0,0.0,0.0,0.0,0.0,0.0,0.0,0.0,0.0,0.0,0.0,0.0,0.0,0.0,0.0,0.0,0.0,0.0,0.0,0.0,0.0,0.0,0.0,0.0,0.0,0.0,0.0,0.0,0.0,0.0,0.0,0.0,0.0,0.0,-1.6019,-1.5253,-1.5167,-1.575,-1.5632,-1.5331,-1.4823,-1.2496,-1.1292,0.0,0.0,0.0,0.0,0.0,0.0,0.0,0.0,0.0,0.0,0.0,0.0,0.0,0.0,0.0,0.0,0.0,0.0,0.0,0.0,0.0,0.0,0.0,0.0,0.0,0.0,0.0,0.0,0.0,0.0,0.0,0.0,0.0,0.0,0.0,0.0,0.0,0.0,0.0,0.0,0.0,-1.6096,-1.4916,-1.4429,0.0,0.0,0.0,0.0,-1.4167,-1.3874,0.0,0.0,0.0,0.0,0.0,0.0,0.0,0.0,0.0,0.0,0.0,0.0,0.0,0.0,0.0,0.0,0.0,0.0,0.0,0.0,0.0,0.0,0.0,0.0,0.0,0.0,0.0,0.0,0.0,0.0,0.0,0.0,0.0,0.0,0.0,0.0,0.0,0.0,0.0,0.0,0.0,0.0,0.0,0.0,0.0,0.0,0.0,0.0,0.0,0.0,0.0,0.0,0.0,0.0,0.0,0.0,-1.5565,-1.4774,-1.4385,-1.4359,-1.4445,-1.3986,-1.2938,-1.1472,-1.0785,0.0,0.0,0.0,0.0,0.0,0.0,0.0,0.0,0.0,0.0,0.0,0.0,0.0,0.0,0.0,0.0,0.0,0.0,0.0,0.0,0.0,0.0,0.0,0.0,0.0,0.0,0.0,0.0,0.0,0.0,0.0,0.0,0.0,0.0,0.0,0.0,0.0,0.0,0.0,0.0,0.0,-1.5815,-1.5606,-1.4885,-1.4344,0.0,0.0,-1.3376,-1.408,-1.4105,0.0,0.0,0.0,0.0,0.0,0.0,0.0,0.0,0.0,0.0,0.0,0.0,0.0,0.0,0.0,0.0,0.0,0.0,0.0,0.0,0.0,0.0,0.0,0.0,0.0,0.0,0.0,0.0,0.0,0.0,0.0,0.0,0.0,0.0,0.0,0.0,0.0,0.0,0.0,0.0,0.0,0.0,0.0,0.0,0.0,0.0,0.0,0.0,0.0,0.0,0.0,0.0,0.0,0.0,0.0,-1.4781,-1.5064,-1.3902,-1.3245,-1.3187,-1.3326,-1.2869,-1.1772,-1.0001,-0.9384,0.0,0.0,0.0,0.0,0.0,0.0,0.0,0.0,0.0,0.0,0.0,0.0,0.0,0.0,0.0,0.0,0.0,0.0,0.0,0.0,0.0,0.0,0.0,0.0,0.0,0.0,0.0,0.0,0.0,0.0,0.0,0.0,0.0,0.0,0.0,0.0,0.0,0.0,0.0,0.0,0.0,0.0,-1.5938,-1.5416,0.0,0.0,0.0,-1.4769,-1.4317,0.0,0.0,0.0,0.0,0.0,0.0,0.0,0.0,0.0,0.0,0.0,0.0,0.0,0.0,0.0,0.0,0.0,0.0,0.0,0.0,0.0,0.0,0.0,0.0,0.0,0.0,0.0,0.0,0.0,0.0,0.0,0.0,0.0,0.0,0.0,0.0,0.0,0.0,0.0,0.0,0.0,0.0,0.0,0.0,0.0,0.0,0.0,0.0,0.0,0.0,0.0,0.0,0.0,0.0,0.0,0.0,0.0,-1.4644,-1.2966,-1.2146,-1.2222,-1.2168,-1.1648,-1.0564,-0.8706,0.0,0.0,0.0,0.0,0.0,0.0,0.0,0.0,0.0,0.0,0.0,0.0,0.0,0.0,0.0,0.0,0.0,0.0,0.0,0.0,0.0,0.0,0.0,0.0,0.0,0.0,0.0,0.0,0.0,0.0,0.0,0.0,0.0,0.0,0.0,0.0,0.0,0.0,0.0,0.0,0.0,0.0,-1.709,-1.6715,-1.6036,-1.547,0.0,0.0,-1.6084,-1.4275,-1.3876,-1.36,0.0,0.0,0.0,0.0,0.0,0.0,0.0,0.0,0.0,0.0,0.0,0.0,0.0,0.0,0.0,0.0,0.0,0.0,0.0,0.0,0.0,0.0,0.0,0.0,0.0,0.0,0.0,0.0,0.0,0.0,0.0,0.0,0.0,0.0,0.0,0.0,0.0,0.0,0.0,0.0,0.0,0.0,0.0,0.0,0.0,0.0,0.0,0.0,0.0,0.0,0.0,0.0,0.0,0.0,0.0,-1.4262,-1.2168,-1.1181,-1.1424,-1.0868,-1.0111,-0.9152,-0.7829,-0.7577,0.0,0.0,0.0,0.0,0.0,0.0,0.0,0.0,0.0,0.0,0.0,0.0,0.0,0.0,0.0,0.0,0.0,0.0,0.0,0.0,0.0,0.0,0.0,0.0,0.0,0.0,0.0,0.0,0.0,0.0,0.0,0.0,0.0,0.0,0.0,0.0,0.0,0.0,0.0,0.0,0.0,-1.7576,-1.8319,-1.675,-1.5787,0.0,0.0,-1.6584,-1.3642,-1.4972,-1.575,-1.4015,0.0,0.0,0.0,0.0,0.0,0.0,0.0,0.0,0.0,0.0,0.0,0.0,0.0,0.0,0.0,0.0,0.0,0.0,0.0,0.0,0.0,0.0,0.0,0.0,0.0,0.0,0.0,0.0,0.0,0.0,0.0,0.0,0.0,0.0,0.0,0.0,0.0,0.0,0.0,0.0,0.0,0.0,0.0,0.0,0.0,0.0,0.0,0.0,0.0,0.0,0.0,0.0,0.0,-1.3865,-1.36,-1.1666,-1.0677,-1.0646,-1.0167,-0.9586,-0.8878,-0.711,-0.6503,0.0,0.0,0.0,0.0,0.0,0.0,0.0,0.0,0.0,0.0,0.0,0.0,0.0,0.0,0.0,0.0,0.0,0.0,0.0,0.0,0.0,0.0,0.0,0.0,0.0,0.0,0.0,0.0,-1.0627,-1.0923,-1.2252,0.0,0.0,0.0,0.0,0.0,0.0,0.0,0.0,0.0,0.0,-1.7592,-1.8403,-1.6932,0.0,0.0,-1.732,-1.7303,-1.515,-1.552,-1.5646,-1.4363,-1.3962,0.0,0.0,0.0,0.0,0.0,0.0,0.0,0.0,0.0,0.0,0.0,0.0,0.0,0.0,0.0,0.0,0.0,0.0,0.0,0.0,0.0,0.0,0.0,0.0,0.0,0.0,0.0,0.0,0.0,0.0,0.0,0.0,0.0,0.0,0.0,0.0,0.0,0.0,0.0,0.0,0.0,0.0,0.0,0.0,0.0,0.0,0.0,0.0,0.0,0.0,0.0,0.0,-1.3505,-1.2908,-1.1115,-1.0109,-0.99,-0.9586,-0.9091,-0.8393,-0.6565,-0.5807,0.0,0.0,0.0,0.0,0.0,0.0,0.0,0.0,0.0,0.0,0.0,0.0,0.0,0.0,0.0,0.0,0.0,0.0,0.0,0.0,0.0,0.0,0.0,0.0,0.0,0.0,0.0,0.0,-1.0596,-1.128,-1.33,0.0,0.0,0.0,0.0,0.0,0.0,0.0,0.0,0.0,0.0,-1.757,-1.8376,-1.7162,-1.6238,-1.654,-1.7691,-1.7849,-1.6011,-1.5895,-1.5692,-1.4611,0.0,0.0,0.0,0.0,0.0,0.0,0.0,0.0,0.0,0.0,0.0,0.0,0.0,0.0,0.0,0.0,0.0,0.0,0.0,0.0,0.0,0.0,0.0,0.0,0.0,0.0,0.0,0.0,0.0,0.0,-1.7599,0.0,0.0,0.0,0.0,0.0,0.0,0.0,0.0,0.0,0.0,0.0,0.0,0.0,0.0,0.0,0.0,0.0,0.0,0.0,0.0,0.0,0.0,-1.3027,-1.2217,-1.0456,-0.9441,-0.924,-0.9031,-0.848,-0.7577,-0.62,-0.5693,-0.607,0.0,0.0,0.0,0.0,0.0,0.0,0.0,0.0,0.0,0.0,0.0,0.0,0.0,0.0,0.0,0.0,0.0,0.0,0.0,0.0,0.0,0.0,0.0,0.0,0.0,0.0,-1.4022,-1.3419,-1.3315,0.0,0.0,0.0,0.0,0.0,0.0,0.0,0.0,0.0,0.0,-1.832,-1.7517,-1.835,-1.7449,-1.6922,-1.7781,-1.8487,-1.8099,-1.5724,-1.6233,-1.6347,0.0,0.0,0.0,0.0,0.0,0.0,0.0,0.0,0.0,0.0,0.0,0.0,0.0,0.0,0.0,0.0,0.0,0.0,0.0,0.0,0.0,0.0,0.0,0.0,0.0,0.0,0.0,-1.5761,-1.5827,0.0,0.0,0.0,0.0,0.0,0.0,0.0,0.0,0.0,0.0,0.0,-1.564,-1.5367,0.0,0.0,0.0,0.0,0.0,0.0,0.0,0.0,0.0,0.0,0.0,0.0,-1.2772,-1.2005,-1.0361,-0.9339,-0.9008,-0.875,-0.8353,-0.7789,-0.6636,-0.5882,-0.5584,0.0,0.0,0.0,0.0,0.0,0.0,0.0,0.0,0.0,0.0,0.0,0.0,0.0,0.0,0.0,0.0,0.0,0.0,0.0,0.0,0.0,0.0,0.0,0.0,0.0,-1.3998,0.0,0.0,0.0,0.0,0.0,0.0,0.0,0.0,0.0,0.0,0.0,-1.753,-1.7919,-1.7912,-1.7763,-1.7547,-1.6675,-1.6376,0.0,0.0,0.0,0.0,0.0,0.0,0.0,0.0,0.0,0.0,0.0,0.0,0.0,0.0,-1.767,-1.7648,-1.7881,-1.8048,-1.7994,0.0,0.0,0.0,0.0,0.0,0.0,0.0,0.0,0.0,0.0,0.0,0.0,0.0,0.0,0.0,0.0,-1.5217,0.0,0.0,0.0,0.0,0.0,0.0,0.0,0.0,-1.564,-1.5082,-1.4651,-1.4449,-1.3888,0.0,-1.412,-1.4049,0.0,0.0,0.0,0.0,0.0,0.0,0.0,0.0,-1.2334,-1.1443,-1.0019,-0.9101,-0.8778,-0.8523,-0.8213,-0.783,-0.6797,-0.5754,-0.4733,-0.4579,-0.4889,0.0,0.0,0.0,0.0,0.0,0.0,0.0,0.0,0.0,0.0,0.0,0.0,0.0,0.0,0.0,0.0,0.0,0.0,0.0,0.0,0.0,0.0,0.0,-1.381,0.0,0.0,0.0,0.0,0.0,0.0,0.0,0.0,0.0,-1.8646,-1.7651,-1.7116,-1.7787,-1.7771,-1.7537,-1.7102,0.0,0.0,0.0,0.0,0.0,0.0,0.0,-1.8533,-1.7472,-1.8082,-1.8351,-1.7315,-1.742,-1.7403,-1.6775,0.0,0.0,-1.6731,-1.6971,-1.7155,-1.7072,-1.7458,-1.7734,-1.7619,-1.7612,-1.7602,0.0,0.0,0.0,0.0,0.0,0.0,0.0,0.0,-1.29,-1.3594,0.0,-1.4265,0.0,0.0,0.0,0.0,0.0,-1.5978,0.0,0.0,-1.4846,-1.4023,-1.3077,-1.3667,-1.2733,-1.0596,-1.3038,-1.3203,-1.1318,-1.2576,0.0,0.0,0.0,0.0,0.0,0.0,-1.1753,-1.0562,-0.9477,-0.88,-0.8512,-0.8319,-0.8043,-0.7705,-0.6692,-0.5365,-0.3814,-0.4573,-0.4841,-0.446,-0.5993,0.0,0.0,0.0,0.0,0.0,0.0,0.0,0.0,0.0,0.0,0.0,0.0,0.0,0.0,0.0,0.0,0.0,0.0,0.0,0.0,-1.3721,0.0,0.0,0.0,0.0,0.0,0.0,0.0,0.0,0.0,0.0,-1.9054,-1.8647,-1.8512,-1.924,0.0,0.0,0.0,0.0,-1.5785,-1.6635,-1.7364,-1.8073,-1.8783,-1.8471,-1.8115,-1.798,0.0,0.0,-1.5801,-1.5191,-1.5085,-1.5718,-1.5484,-1.5188,-1.6129,-1.6282,-1.6281,-1.6338,-1.6976,-1.7516,-1.7519,-1.7418,-1.7458,-1.266,0.0,0.0,0.0,0.0,-1.4072,-1.3647,-1.2758,-1.3215,-1.3218,-1.2884,-1.2963,0.0,0.0,0.0,0.0,0.0,0.0,-1.5081,-1.4149,-1.4122,-1.3632,-1.2806,-1.344,-1.2961,-1.1669,-1.3081,-1.293,-1.135,-1.2011,-1.2987,-1.418,0.0,0.0,0.0,0.0,-1.1362,-1.059,-0.984,-0.9197,-0.8589,-0.8329,-0.8091,-0.785,-0.6901,-0.5876,-0.4841,-0.4445,-0.4374,-0.461,-0.5039,0.0,0.0,0.0,0.0,0.0,0.0,0.0,0.0,0.0,0.0,0.0,0.0,0.0,0.0,0.0,0.0,0.0,0.0,0.0,-1.7833,-1.3787,-1.2681,0.0,0.0,0.0,0.0,0.0,0.0,0.0,0.0,0.0,-1.8933,-1.7544,-1.671,0.0,0.0,-1.8055,-1.7041,-1.7013,-1.7258,-1.764,0.0,0.0,0.0,-1.8237,-1.8224,-1.6519,-1.6805,-1.726,-1.7264,-1.7621,-1.7661,-1.6904,-1.7139,-1.739,-1.7066,-1.6145,-1.5657,-1.6056,-1.6024,-1.5784,-1.576,-1.617,-1.6428,-1.3173,-1.321,-1.3506,-1.3409,-1.3124,-1.3428,-1.275,-1.1506,-1.2001,-1.1997,-1.1683,-1.1789,-1.1882,-1.1969,-1.2557,0.0,0.0,0.0,-1.4071,-1.3343,-1.3532,-1.3444,-1.3114,-1.3432,-1.3076,-1.215,-1.2893,-1.274,-1.1592,-1.1905,-1.2653,-1.3725,0.0,0.0,-1.2901,-1.2066,-1.1143,-1.0276,-0.9904,-0.943,-0.8806,-0.8477,-0.8251,-0.8021,-0.7133,-0.6229,-0.535,-0.4297,-0.3784,-0.393,-0.4195,-0.4597,0.0,0.0,0.0,0.0,0.0,0.0,0.0,0.0,0.0,0.0,0.0,-1.2475,0.0,0.0,0.0,0.0,-1.4205,-1.5331,-1.6215,-1.3052,0.0,0.0,0.0,0.0,0.0,0.0,0.0,-1.833,-1.8361,-1.856,-1.8911,-1.7851,-1.7213,-1.7665,-1.824,-1.8297,-1.7424,0.0,-1.7527,-1.7954,-1.7533,-1.7303,-1.772,-1.7969,-1.753,-1.5777,-1.6823,-1.7742,-1.7548,-1.8027,-1.8111,-1.746,-1.7663,-1.8073,-1.7984,-1.6885,-1.6127,-1.6601,-1.6336,-1.6022,-1.5995,-1.6117,-1.606,-1.3628,-1.3645,-1.3883,-1.3323,-1.2314,-1.2563,-1.1571,-0.9732,-1.0039,-1.0443,-1.0881,-1.0888,-1.1264,-1.1885,-1.2549,0.0,-1.1597,-1.2696,-1.3094,-1.2934,-1.3115,-1.3334,-1.3542,-1.3563,-1.3017,-1.2027,-1.2574,-1.2569,-1.208,-1.2098,-1.2591,-1.352,-1.2485,-1.2022,-1.2113,-1.1894,-1.1131,-0.9845,-0.9795,-0.958,-0.9076,-0.869,-0.8439,-0.8308,-0.7363,-0.6398,-0.5435,-0.4157,-0.3255,-0.2867,-0.3501,-0.3939,-0.4037,0.0,0.0,0.0,0.0,0.0,0.0,0.0,0.0,0.0,0.0,0.0,0.0,0.0,0.0,0.0,-0.9231,0.0,-1.1949,-1.197,0.0,0.0,0.0,-1.8875,-1.9048,-1.9,-1.8913,-1.8913,0.0,0.0,-1.9019,0.0,-1.9153,-1.9277,-1.8528,-1.806,-1.8174,-1.7486,-1.7164,-1.7944,-1.8016,-1.8234,-1.8632,-1.7799,-1.682,-1.6189,-1.7022,-1.7775,-1.7347,-1.7346,-1.7374,-1.7468,-1.7573,-1.7956,-1.8694,-1.8183,-1.7691,-1.771,-1.7558,-1.7444,-1.735,-1.6942,-1.6515,-1.3462,-1.38,-1.4123,-1.3553,-1.2591,-1.2673,-1.2052,-1.11,-1.1426,-1.1322,-1.0894,-1.0801,-1.0683,-1.0575,-1.1152,-1.1647,-1.2061,-1.2612,-1.2942,-1.3,-1.3152,-1.308,-1.291,-1.3052,-1.2725,-1.2181,-1.2288,-1.2497,-1.2715,-1.2351,-1.2507,-1.3052,-1.2474,-1.2297,-1.2597,-1.181,-1.1211,-1.0754,-1.0221,-0.9519,-0.8695,-0.8449,-0.841,-0.8578,-0.7578,-0.6586,-0.5652,-0.4538,-0.3607,-0.2945,-0.3578,-0.3996,-0.4035,-0.6816,0.0,0.0,0.0,0.0,0.0,0.0,0.0,0.0,0.0,-1.1165,-1.2349,0.0,-1.3174,0.0,-0.8715,-0.946,-1.4229,-1.2524,0.0,0.0,-1.8115,-1.8315,-1.8735,-1.8914,-1.8983,-1.9053,-1.907,-1.907,-1.907,-1.9087,-1.9104,-1.9153,-1.8957,-1.8848,-1.8845,-1.8703,-1.8596,-1.8743,-1.8796,-1.8652,-1.827,-1.7907,-1.7744,-1.8181,-1.8544,-1.8741,-1.8592,-1.8779,-1.8923,-1.8976,-1.9204,-1.946,-1.9623,-1.9509,-1.9406,-1.933,-1.841,-1.7482,-1.7482,-1.7785,-1.7899,-1.2909,-1.2956,-1.3086,-1.2888,-1.2431,-1.2769,-1.2397,-1.1546,-1.1752,-1.1476,-1.0885,-1.0823,-1.0781,-1.0747,-1.1029,-1.1538,-1.2158,-1.2435,-1.2647,-1.2793,-1.2939,-1.291,-1.2764,-1.2638,-1.2568,-1.251,-1.2119,-1.2276,-1.2913,-1.2454,-1.2464,-1.2933,-1.2614,-1.2523,-1.2724,-1.1819,-1.1179,-1.0895,-1.0135,-0.9439,-0.8834,-0.8728,-0.8867,-0.9147,-0.8048,-0.7304,-0.6984,-0.5298,-0.4574,-0.4994,-0.4881,-0.4767,-0.4877,-0.6699,-0.7236,0.0,0.0,0.0,0.0,0.0,0.0,0.0,0.0,0.0,0.0,0.0,-1.1665,0.0,-0.9951,-1.0803,-1.6099,-1.4268,-1.4387,-1.8378,-1.8431,-1.8342,-1.8698,-1.8843,-1.8967,-1.9087,-1.9104,-1.9104,-1.9104,-1.9104,-1.9104,-1.9104,-1.9104,-1.9104,-1.9104,-1.9104,-1.9104,-1.9104,-1.9104,-1.8815,-1.8016,-1.8216,-1.8469,-1.8562,-1.887,-1.9104,-1.9104,-1.9277,-1.9434,-1.9499,-1.9707,-1.9908,-1.9952,-1.9993,-1.9993,-1.9869,-1.9263,-1.8694,-1.8619,-1.8667,-1.8524,-1.2167,-1.1839,-1.1832,-1.1864,-1.1977,-1.2683,-1.2471,-1.1563,-1.1563,-1.1333,-1.0984,-1.0993,-1.1186,-1.1489,-1.1544,-1.1803,-1.2116,-1.2224,-1.2372,-1.2471,-1.2627,-1.2774,-1.2871,-1.2443,-1.251,-1.2842,-1.2086,-1.207,-1.2852,-1.2451,-1.2451,-1.2861,-1.2725,-1.2648,-1.259,-1.1707,-1.1035,-1.053,-0.9981,-0.9567,-0.9343,-0.9375,-0.9505,-0.9735,-0.8532,-0.8061,-0.8382,-0.6182,-0.5749,-0.7456,-0.6566,-0.5949,-0.6001,-0.6292,-0.6228,0.0,-0.6198,0.0,0.0,0.0,0.0,0.0,0.0,0.0,0.0,-0.8007,-0.9964,-1.3578,-1.2056,-1.2677,-1.7059,-1.6087,-1.6169,-1.8449,-1.8601,-1.8563,-1.8733,-1.8788,-1.8861,-1.9088,-1.9104,-1.9104,-1.9104,-1.9104,-1.912,-1.9104,-1.912,-1.912,-1.9104,-1.9104,-1.9104,-1.9104,-1.9104,-1.8851,-1.8342,-1.8651,-1.885,-1.8324,-1.8669,-1.9104,-1.9104,-1.9232,-1.9331,-1.949,-1.9625,-1.9769,-1.9971,-1.9993,-1.9993,-1.9993,-1.9899,-1.9861,-1.9823,-1.9376,-1.8903,-1.1826,-1.1926,-1.204,-1.1911,-1.1526,-1.1598,-1.175,-1.1957,-1.1966,-1.1737,-1.1379,-1.137,-1.1416,-1.1517,-1.1828,-1.2061,-1.2274,-1.2283,-1.2372,-1.2529,-1.2627,-1.2735,-1.2725,-1.2745,-1.2803,-1.2842,-1.2344,-1.2373,-1.2881,-1.2441,-1.2451,-1.2861,-1.2462,-1.2241,-1.2146,0.0,0.0,0.0,-1.0855,-1.0843,-1.0219,-1.0278,-1.019,-0.9793,-0.8408,0.0,-0.776,-0.6684,-0.643,-0.7166,-0.7224,0.0,0.0,0.0,0.0,0.0,0.0,0.0,0.0,0.0,0.0,0.0,-0.8526,-0.9327,-0.9404,-1.1247,-1.3015,-1.4229,-1.3774,-1.4028,-1.5583,-1.5493,-1.6181,-1.834,-1.8566,-1.8512,-1.8567,-1.8697,-1.8878,-1.9088,-1.9104,-1.9104,-1.9104,-1.92,-1.9232,-1.912,-1.92,-1.9214,-1.9104,-1.9104,-1.9104,-1.9104,-1.9104,-1.9051,-1.8888,-1.8978,-1.9033,-1.8924,-1.896,-1.9104,-1.9104,-1.9198,-1.9331,-1.9458,-1.9612,-1.9757,-1.996,-1.9993,-1.9993,-1.9993,-1.9993,-1.9993,-1.9993,-1.9861,-1.9766,-1.1179,0.0,-1.1095,-1.1028,0.0,-1.0879,-1.1087,-1.1562,-1.1353,-1.1139,-1.0968,-1.1279,-1.123,-1.0976,-1.1481,-1.1619,-1.146,-1.1819,-1.2067,-1.2234,-1.2627,-1.2774,-1.2764,-1.2618,-1.2714,-1.2958,-1.2516,-1.2545,-1.2958,-1.2978,-1.292,-1.2881,-1.2503,-1.2186,-1.1966,-1.0804,-1.0108,-0.9902,-1.0169,-1.0148,-0.9868,-0.9784,-0.9709,-0.9675,0.0,0.0,0.0,0.0,0.0,0.0,0.0,0.0,0.0,0.0,0.0,-0.6537,-0.721,-0.7343,-0.6613,-0.7655,-0.8012,-0.727,-1.0117,-1.1448,-1.0409,-1.2249,-1.3616,-1.4042,-1.4949,-1.5778,-1.6231,-1.6587,-1.7241,-1.8292,-1.833,-1.833,-1.851,-1.8641,-1.8807,-1.9034,-1.9102,-1.9102,-1.9104,-1.917,-1.9184,-1.912,-1.9152,-1.9184,-1.912,-1.9104,-1.9104,-1.9104,-1.9104,-1.9104,-1.9104,-1.9104,-1.9087,-1.9104,-1.9104,-1.9104,-1.9104,-1.9152,-1.9246,-1.9376,-1.9499,-1.9663,-1.9811,-1.993,-1.9993,-1.9993,-1.9993,-1.9993,-1.9993,-1.9993,-1.9993,-1.0635,-1.0381,-1.0164,-1.0211,-1.0588,-1.0417,-1.0562,-1.0805,0.0,0.0,0.0,-1.1029,-1.0937,-1.0553,-1.0981,-1.1057,-1.0804,-1.141,-1.1819,-1.2126,-1.2627,-1.2891,-1.2871,-1.252,-1.2577,-1.3045,-1.2688,-1.2698,-1.3085,-1.3382,-1.3332,-1.2949,-1.2483,-1.2006,-1.1527,-1.0492,-0.9907,-0.9752,-0.9531,-0.9429,-0.9542,-0.9329,-0.9377,-0.9694,-0.9492,-0.9595,-1.0044,-0.9217,-0.9494,-1.1148,-1.0713,-1.0335,-1.0172,-1.0205,-0.9036,-0.6493,-0.6196,-0.5904,-0.5295,-0.6876,-0.8159,-0.8731,-1.2334,-1.3595,-1.145,-1.3041,-1.4194,-1.4349,-1.6181,-1.7352,-1.7483,-1.7986,-1.8348,-1.8348,-1.8138,-1.8159,-1.8489,-1.8547,-1.8661,-1.8981,-1.9066,-1.9084,-1.9102,-1.9137,-1.912,-1.9104,-1.9119,-1.9104,-1.9071,-1.9036,-1.9019,-1.9037,-1.8984,-1.8949,-1.8966,-1.8984,-1.9002,-1.8967,-1.9002,-1.9036,-1.9053,-1.9088,-1.9152,-1.9274,-1.9423,-1.9559,-1.9688,-1.9858,-1.9982,-1.9993,-1.9993,-1.9993,-1.9993,-1.9993,-1.9985,-1.09,-1.0659,-1.0622,-1.0534,-1.0377,-1.0162,-0.9997,-0.9969,-1.0767,-1.1177,-1.1154,-1.101,-1.0929,-1.0852,-1.0729,-1.0998,-1.1451,-1.1769,-1.2175,0.0,-1.2832,-1.2891,-1.2871,-1.2812,-1.2871,-1.292,-1.2851,-1.2919,-1.3036,-1.2802,-1.2783,-1.2899,-1.1834,-1.0918,-1.034,-0.9721,-0.9605,-1.0036,-1.0633,-1.0772,-1.0524,-1.0634,-1.0531,-1.0185,-0.9517,-0.9279,-0.9581,-0.9548,-0.9906,-1.0666,-1.076,-1.0473,-0.9667,-0.9667,-0.9002,-0.7679,-0.7624,-0.7991,-0.8692,-0.9169,-1.0451,-1.2795,-1.3961,-1.4234,-1.3774,-1.5866,-1.7254,-1.7297,-1.7786,-1.8228,-1.8266,-1.8338,-1.8445,-1.8445,-1.826,-1.8197,-1.8426,-1.8408,-1.8508,-1.8878,-1.8931,-1.8966,-1.9049,-1.9148,-1.9166,-1.9137,-1.9119,-1.915,-1.8914,-1.8843,-1.8843,-1.8824,-1.8695,-1.8601,-1.862,-1.8582,-1.862,-1.8582,-1.8751,-1.8861,-1.8861,-1.902,-1.9153,-1.9277,-1.939,-1.9513,-1.9663,-1.9866,-1.996,-1.9971,-1.9982,-1.9993,-1.9993,-1.9996,-1.9988,-1.1039,-1.0918,-1.0779,-1.0722,-1.0679,-1.0454,-1.0301,-1.0228,-1.0692,-1.0739,-1.0473,-1.058,-1.0513,-1.029,-1.0529,-1.0632,-1.0567,-1.1031,-1.1345,-1.1578,-1.181,-1.2175,-1.2421,-1.2471,-1.2627,-1.2978,-1.2666,-1.2578,-1.2637,-1.2648,-1.2698,-1.2579,-1.1755,-1.1063,-1.052,-0.9844,-0.9622,-0.9862,-0.9892,-0.9983,-1.022,-1.0246,-1.0211,-1.02,-0.9761,-0.9624,-0.9765,-0.9751,-0.9905,-1.0248,-1.0681,-1.0741,-1.042,-1.085,-1.0605,-0.9484,-0.9767,-0.9962,-0.9828,-1.1237,-1.3029,-1.5149,-1.5874,-1.5999,-1.56,-1.6987,-1.7905,-1.7944,-1.8117,-1.8239,-1.8239,-1.8301,-1.8363,-1.8388,-1.8243,-1.826,-1.8465,-1.8448,-1.8506,-1.8698,-1.8752,-1.8734,-1.8789,-1.8825,-1.8843,-1.8788,-1.8843,-1.8789,-1.8639,-1.8524,-1.8487,-1.8601,-1.8544,-1.8505,-1.8485,-1.8485,-1.8485,-1.8485,-1.8676,-1.8788,-1.8806,-1.8949,-1.9104,-1.9184,-1.9305,-1.9409,-1.949,-1.9682,-1.98,-1.9835,-1.993,-1.9963,-1.9996,-1.9979,-1.9981,-1.0865,-1.0789,-1.0821,-1.0918,-1.1041,-1.0902,-1.0797,-1.0661,-1.0719,-1.0367,-0.9973,-1.0268,-1.0175,-0.989,-1.0329,-1.0284,-1.0024,-1.047,-1.0719,-1.0624,-1.0998,-1.146,-1.1868,-1.1918,-1.2166,-1.2578,-1.2215,-1.1999,-1.2085,-1.2429,-1.2475,-1.2097,-1.1849,-1.1493,-1.0945,-1.0252,-0.9835,-0.9742,-0.927,-0.9207,-0.9692,-0.9742,-0.989,-1.0124,-1.0086,-1.0107,-1.0185,-1.0133,-1.0202,-1.0402,-1.0857,-1.1182,-1.1338,-1.2158,-1.2191,-1.1334,-1.1843,-1.2037,-1.1602,-1.35,-1.5358,-1.6614,-1.7224,-1.7384,-1.7093,-1.7629,-1.8008,-1.8012,-1.8346,-1.8503,-1.8258,-1.8323,-1.837,-1.838,-1.8263,-1.8284,-1.8487,-1.8465,-1.8483,-1.8526,-1.8545,-1.8508,-1.8506,-1.8505,-1.8505,-1.8524,-1.8465,-1.8408,-1.8388,-1.8208,-1.8128,-1.8205,-1.8304,-1.8307,-1.8328,-1.8307,-1.8307,-1.8328,-1.8544,-1.8658,-1.8733,-1.8914,-1.9088,-1.912,-1.9198,-1.932,-1.9346,-1.9545,-1.972,-1.98,-1.993,-2.0015,-2.0028,-2.0029,-2.003,-1.0105,-1.0154,-1.0714,-1.1156,-1.1255,-1.1303,-1.1142,-1.0962,-1.0949,-1.0782,-1.0517,-1.0255,-1.0134,-1.01,-1.0151,-1.0271,-1.0391,-1.0732,-1.093,-1.1032,-1.1158,-1.1259,-1.1259,-1.1301,-1.1309,-1.141,-1.1351,-1.1342,-1.1475,-1.1704,-1.1831,-1.1846,-1.1993,-1.1762,-1.1176,-1.0691,-1.0308,-1.0049,-0.9659,-0.9473,-0.9554,-0.9979,-1.0259,-1.0259,-1.0508,-1.0673,-1.0736,-1.0905,-1.113,-1.1505,-1.1683,-1.1814,-1.1978,-1.2635,-1.287,-1.2594,-1.3426,-1.4327,-1.5184,-1.6305,-1.6889,-1.7118,-1.7288,-1.7408,-1.7441,-1.8087,-1.8308,-1.812,-1.906,-1.9326,-1.8489,-1.8689,-1.8792,-1.8455,-1.8325,-1.8307,-1.8307,-1.8281,-1.8277,-1.8423,-1.8171,-1.8336,-1.8323,-1.8216,-1.827,-1.8038,-1.7795,-1.7849,-1.8086,-1.7954,-1.7755,-1.7664,-1.771,-1.7861,-1.7883,-1.7878,-1.7927,-1.7949,-1.8263,-1.8505,-1.8657,-1.8878,-1.9104,-1.912,-1.9216,-1.9335,-1.9448,-1.9612,-1.9757,-1.9866,-1.9952,-2.0028,-2.0068,-2.0068,-2.0068,-0.9459,-0.9344,-0.9643,-0.9952,-1.0349,-1.0912,-1.1127,-1.0989,-1.0815,-1.0762,-1.0775,-1.0508,-1.0381,-1.0374,-1.0615,-1.0526,-1.0284,-1.0606,-1.0531,-1.0265,-1.0233,-1.0387,-1.0702,-1.0753,-1.0846,-1.115,-1.0905,-1.0753,-1.0889,-1.1283,-1.1661,-1.1955,-1.2194,-1.1947,-1.1343,-1.0899,-1.0441,-0.9953,-0.9778,-0.9765,-0.9933,-1.0316,-1.0635,-1.0861,-1.1081,-1.123,-1.1249,-1.1204,-1.1241,-1.146,-1.1772,-1.2018,-1.2115,-1.2955,-1.3529,-1.3745,-1.4716,-1.5509,-1.5946,-1.6578,-1.6892,-1.6738,-1.7068,-1.7264,-1.7191,-1.7871,-1.8036,-1.7723,-1.8976,-1.9595,-1.8785,-1.8858,-1.8762,-1.8272,-1.8018,-1.7975,-1.7997,-1.7839,-1.7732,-1.7693,-1.6597,-1.6356,-1.7103,-1.6593,-1.5976,-1.5874,-1.5846,-1.6349,-1.7373,-1.7618,-1.7612,-1.7635,-1.7743,-1.7704,-1.7635,-1.7721,-1.7816,-1.7997,-1.8266,-1.8505,-1.8695,-1.8896,-1.9105,-1.9104,-1.9214,-1.932,-1.9346,-1.9572,-1.9744,-1.9866,-1.987,-1.9885,-1.9915,-1.9926,-1.9907,-0.8752,-0.8611,-0.8779,-0.9215,-0.978,-1.0557,-1.0921,-1.0989,-1.0768,-1.0762,-1.0842,-1.0648,-1.0618,-1.0618,-1.087,-1.0697,-1.0303,-1.0552,-1.0311,-0.9804,-0.9746,-0.9911,-1.0154,-1.0198,-1.0387,-1.0643,-1.0395,-1.0249,-1.0454,-1.104,-1.1592,-1.207,-1.2397,-1.2201,-1.1485,-1.1145,-1.0656,-0.9949,-0.9853,-0.9971,-1.0186,-1.0524,-1.0905,-1.1297,-1.1686,-1.1881,-1.1915,-1.1777,-1.1775,-1.1838,-1.2201,-1.2429,-1.2462,-1.3372,-1.4121,-1.4702,-1.5442,-1.5955,-1.6026,-1.6382,-1.6517,-1.6398,-1.6738,-1.6942,-1.6911,-1.7466,-1.7706,-1.741,-1.8598,-1.9204,-1.8646,-1.8632,-1.8478,-1.8002,-1.7777,-1.7704,-1.7726,-1.7519,-1.7113,-1.6413,-1.516,-1.4285,-1.5011,-1.4636,-1.4305,-1.4252,-1.4763,-1.5407,-1.6961,-1.7455,-1.7572,-1.7698,-1.7743,-1.7743,-1.7566,-1.7732,-1.7932,-1.8107,-1.8351,-1.8639,-1.8806,-1.8984,-1.917,-1.9216,-1.9289,-1.9376,-1.9476,-1.9625,-1.9757,-1.9786,-1.9821,-1.9855,-1.9945,-1.9885,-1.9873,-0.7978,-0.7894,-0.8639,-0.9314,-1.009,-1.0283,-1.0653,-1.0916,-1.0949,-1.0822,-1.0698,-1.0638,-1.0618,-1.0618,-1.0744,-1.0691,-1.0597,-1.0706,-1.053,-1.0082,-1.0038,-0.9907,-0.9629,-0.9614,-0.9666,-0.9821,-0.9769,-0.9932,-1.0395,-1.0956,-1.151,-1.2076,-1.2579,-1.2449,-1.1709,-1.1562,-1.1071,-1.0213,-1.0127,-1.0137,-1.0196,-1.0524,-1.1019,-1.1568,-1.2247,-1.2602,-1.2637,-1.2916,-1.3051,-1.3098,-1.3205,-1.3252,-1.3152,-1.3866,-1.4668,-1.5301,-1.5492,-1.5639,-1.5827,-1.5996,-1.6123,-1.6108,-1.6301,-1.6389,-1.6155,-1.6714,-1.7039,-1.7377,-1.7546,-1.7738,-1.7691,-1.7963,-1.8112,-1.7867,-1.7693,-1.7572,-1.7566,-1.7288,-1.6279,-1.4997,-1.4484,-1.3598,-1.1827,-1.288,-1.3792,-1.4349,-1.5748,-1.7103,-1.7259,-1.7612,-1.7635,-1.7612,-1.7681,-1.7828,-1.7794,-1.791,-1.8044,-1.8252,-1.8526,-1.8788,-1.8914,-1.9052,-1.9198,-1.932,-1.9419,-1.9532,-1.9638,-1.9726,-1.9809,-1.9855,-1.9918,-1.9958,-1.9904,-2.0019,-1.9998,-0.7307,-0.716,-0.7754,-0.8198,-0.845,-0.9366,-1.0024,-1.0381,-1.0659,-1.0768,-1.0802,-1.0641,-1.0618,-1.0618,-1.0624,-1.0643,-1.059,-1.0689,-1.0464,-1.0104,-0.9885,-0.9724,-0.9629,-0.9614,-0.9614,-0.9614,-0.9614,-0.9718,-0.9976,-1.0744,-1.1309,-1.166,-1.2471,-1.2568,-1.209,-1.1992,-1.1509,-1.0731,-1.0603,-1.0626,-1.0669,-1.0829,-1.1169,-1.1726,-1.2258,-1.252,-1.2591,-1.2861,-1.2943,-1.2756,-1.2943,-1.3051,-1.3078,-1.3931,-1.4564,-1.4876,-1.5389,-1.5726,-1.5827,-1.5754,-1.5724,-1.5839,-1.5737,-1.5264,-1.4445,-1.4328,-1.444,-1.4489,-1.3482,-1.3736,-1.6187,-1.723,-1.7524,-1.703,-1.691,-1.6853,-1.6841,-1.6738,-1.6368,-1.5733,-1.5453,-1.4189,-1.1825,-1.2442,-1.3755,-1.3884,-1.4705,-1.5901,-1.711,-1.7479,-1.7618,-1.7827,-1.7936,-1.8061,-1.8246,-1.8128,-1.8173,-1.8469,-1.8751,-1.8878,-1.9002,-1.9166,-1.932,-1.938,-1.949,-1.9656,-1.9744,-1.9842,-1.9904,-1.9926,-1.9969,-1.9928,-1.9839,-1.9958,-1.9926,-0.6881,-0.675,-0.7006,-0.7194,-0.7491,-0.8255,-0.9131,-0.9843,-1.0129,-1.0476,-1.0795,-1.0641,-1.0618,-1.0624,-1.0624,-1.0705,-1.0744,-1.0766,-1.0559,-1.021,-0.9977,-0.9819,-0.9636,-0.9614,-0.9614,-0.9614,-0.9614,-0.9614,-0.9718,-1.0694,-1.115,-1.125,-1.2323,-1.2656,-1.2285,-1.209,-1.1631,-1.1025,-1.0822,-1.0785,-1.0871,-1.0916,-1.1169,-1.1664,-1.1993,-1.221,-1.2401,-1.2685,-1.2791,-1.265,-1.2768,-1.2943,-1.3138,-1.3756,-1.4214,-1.4374,-1.4876,-1.5269,-1.5374,-1.5196,-1.5137,-1.5256,-1.5122,-1.4515,-1.358,-1.3321,-1.3321,-1.3077,-1.2438,-1.2819,-1.4809,-1.6245,-1.6596,-1.6172,-1.5723,-1.5671,-1.6223,-1.6478,-1.6258,-1.5552,-1.4754,-1.3146,-1.1278,-1.2514,-1.3414,-1.3584,-1.4362,-1.5846,-1.6927,-1.7455,-1.7595,-1.7936,-1.8044,-1.8208,-1.8388,-1.8391,-1.841,-1.8658,-1.8914,-1.9018,-1.9119,-1.9274,-1.939,-1.9448,-1.9559,-1.9738,-1.9854,-1.9938,-1.9971,-1.9985,-1.9977,-1.9939,-1.9896,-1.9892,-1.9885,-0.6709,-0.6637,-0.6462,-0.6742,-0.7191,-0.7267,-0.8026,-0.9309,-0.9548,-1.0008,-1.0608,-1.0561,-1.0618,-1.0624,-1.0681,-1.0856,-1.0947,-1.0975,-1.0781,-1.0379,-1.0479,-1.0207,-0.9731,-0.9724,-0.9694,-0.9665,-0.9629,-0.9614,-0.9666,-1.0635,-1.1209,-1.1401,-1.2323,-1.2695,-1.2219,-1.1895,-1.1459,-1.1028,-1.0685,-1.0527,-1.0621,-1.0736,-1.1002,-1.1442,-1.159,-1.1799,-1.2126,-1.2544,-1.272,-1.2768,-1.292,-1.3198,-1.3323,-1.3514,-1.3669,-1.3921,-1.4052,-1.4176,-1.4351,-1.442,-1.4424,-1.447,-1.447,-1.4335,-1.3866,-1.3924,-1.3951,-1.3873,-1.391,-1.4495,-1.459,-1.4773,-1.5226,-1.5869,-1.4684,-1.4435,-1.5689,-1.656,-1.6243,-1.4765,-1.3503,-1.1418,-1.1059,-1.2629,-1.403,-1.4275,-1.5554,-1.6974,-1.7182,-1.7549,-1.7749,-1.7883,-1.8125,-1.8391,-1.8526,-1.8639,-1.8732,-1.8843,-1.9069,-1.9198,-1.9277,-1.9394,-1.9518,-1.9599,-1.9744,-1.99,-1.9911,-1.9974,-1.9988,-1.9979,-1.9971,-1.9971,-1.996,-1.995,-1.9971,-0.6678,-0.64,-0.6305,-0.6243,-0.634,-0.6764,-0.7625,-0.8678,-0.9215,-0.9926,-1.0498,-1.0618,-1.0618,-1.0624,-1.0624,-1.0688,-1.0744,-1.0856,-1.0897,-1.0813,-1.0689,-1.0492,-1.0309,-1.0265,-1.017,-0.9943,-0.9716,-0.9614,-0.9821,-1.0694,-1.1209,-1.141,-1.2323,-1.2812,-1.2656,-1.2338,-1.194,-1.1463,-1.1134,-1.0894,-1.0777,-1.0774,-1.0899,-1.1099,-1.125,-1.1389,-1.1538,-1.2077,-1.2365,-1.233,-1.2365,-1.2508,-1.2756,-1.3126,-1.3421,-1.3555,-1.3888,-1.4103,-1.4181,-1.4052,-1.3954,-1.4,-1.3901,-1.3063,-1.2138,-1.2308,-1.2507,-1.2402,-1.173,-1.1876,-1.387,-1.2493,-1.2726,-1.5081,-1.4876,-1.4693,-1.5694,-1.6605,-1.6569,-1.5887,-1.5448,-1.5062,-1.4572,-1.5339,-1.5543,-1.5655,-1.6702,-1.7368,-1.7566,-1.7738,-1.8065,-1.8246,-1.843,-1.8584,-1.8715,-1.8843,-1.8914,-1.8967,-1.9119,-1.9292,-1.9365,-1.9495,-1.9612,-1.9738,-1.9892,-1.9966,-1.9988,-1.9998,-2.0,-1.9991,-1.9991,-2.0001,-2.0011,-2.003,-2.004,-0.6519,-0.6331,-0.6139,-0.6047,-0.592,-0.6352,-0.7246,-0.828,-0.8882,-0.9658,-1.0428,-1.0618,-1.0618,-1.0618,-1.0618,-1.0688,-1.0814,-1.087,-1.1015,-1.1032,-1.0821,-1.0654,-1.058,-1.0455,-1.0316,-1.0075,-0.9768,-0.9621,-0.9666,-1.0643,-1.1209,-1.141,-1.2323,-1.2881,-1.2812,-1.2378,-1.1915,-1.161,-1.1183,-1.0854,-1.0758,-1.0784,-1.0822,-1.0919,-1.1033,-1.1147,-1.1314,-1.1737,-1.1957,-1.1959,-1.1916,-1.206,-1.239,-1.2643,-1.2846,-1.3123,-1.3433,-1.3689,-1.3861,-1.3589,-1.3501,-1.3635,-1.3412,-1.281,-1.184,-1.1934,-1.2216,-1.2078,-1.1896,-1.2185,-1.3866,-1.2994,-1.2639,-1.458,-1.4386,-1.4847,-1.5742,-1.6771,-1.7038,-1.6743,-1.6923,-1.6923,-1.6521,-1.6596,-1.6779,-1.6917,-1.7264,-1.7519,-1.771,-1.7893,-1.8149,-1.8391,-1.8582,-1.8715,-1.8914,-1.9002,-1.907,-1.9104,-1.9152,-1.9308,-1.9409,-1.9577,-1.972,-1.9821,-1.995,-1.9971,-2.0,-1.9981,-2.0001,-2.0011,-2.004,-2.005,-2.0069,-2.006,-2.006,-0.6257,-0.621,-0.5928,-0.5877,-0.5989,-0.5963,-0.6868,-0.8161,-0.842,-0.9128,-1.0168,-1.0415,-1.0485,-1.0498,-1.0491,-1.0751,-1.0996,-1.0996,-1.0988,-1.102,-1.0905,-1.0775,-1.0675,-1.0382,-1.0228,-1.0133,-0.9833,-0.965,-0.9666,-1.0694,-1.1209,-1.1309,-1.2323,-1.2891,-1.2782,-1.2057,-1.1689,-1.1561,-1.0904,-1.0535,-1.0659,-1.0746,-1.0822,-1.0881,-1.0919,-1.1061,-1.1378,-1.1553,-1.1641,-1.1721,-1.1549,-1.1674,-1.2176,-1.2019,-1.2191,-1.2704,-1.2766,-1.3116,-1.331,-1.331,-1.3242,-1.3547,-1.3331,-1.2931,-1.288,-1.3134,-1.3409,-1.3435,-1.3794,-1.4239,-1.4491,-1.4427,-1.4647,-1.4649,-1.4026,-1.4403,-1.6383,-1.7116,-1.7142,-1.7126,-1.7332,-1.7289,-1.6373,-1.6717,-1.6815,-1.6892,-1.7264,-1.7472,-1.7641,-1.7827,-1.8065,-1.833,-1.8601,-1.8806,-1.8967,-1.9054,-1.9105,-1.9104,-1.9135,-1.9246,-1.9423,-1.9604,-1.9793,-1.9907,-1.9971,-1.9991,-2.0011,-2.0011,-2.004,-2.0069,-2.0079,-2.0108,-2.0117,-2.0098,-2.0098,-0.6036,-0.6071,-0.5881,-0.5789,-0.5783,-0.5825,-0.6408,-0.7312,-0.7678,-0.827,-0.9052,-0.9597,-0.9812,-0.9843,-1.0364,-1.0618,-1.0681,-1.0744,-1.0787,-1.0892,-1.1002,-1.1002,-1.0879,-1.0616,-1.0455,-1.0397,-1.0104,-0.9855,-0.9681,-1.0643,-1.1158,-1.125,-1.2274,-1.2881,-1.2802,-1.2047,-1.1743,-1.1724,-1.1085,-1.0708,-1.0794,-1.0843,-1.0881,-1.0881,-1.0919,-1.1033,-1.1287,-1.1564,-1.162,-1.1399,-1.1089,-1.0988,-1.1308,-1.1583,-1.1874,-1.2167,-1.2608,-1.2978,-1.3263,-1.3331,-1.3467,-1.3735,-1.3669,-1.3622,-1.3501,-1.3914,-1.4092,-1.4189,-1.4465,-1.4686,-1.4746,-1.4963,-1.5224,-1.5477,-1.4888,-1.4959,-1.6005,-1.6769,-1.7053,-1.6653,-1.6987,-1.6848,-1.6506,-1.6398,-1.6649,-1.6866,-1.7142,-1.7425,-1.7635,-1.7871,-1.8128,-1.8371,-1.8639,-1.8825,-1.8984,-1.9071,-1.9105,-1.9105,-1.9137,-1.9166,-1.938,-1.9591,-1.9793,-1.996,-1.9969,-1.9979,-2.002,-2.0069,-2.0108,-2.0059,-2.0079,-2.0079,-2.0098,-2.0108,-2.0108,-0.5875,-0.601,-0.58,-0.5734,-0.5707,-0.5755,-0.621,-0.6863,-0.7246,-0.7767,-0.8361,-0.8829,-0.9081,-0.9139,-0.9843,-1.0168,-1.0301,-1.0681,-1.0719,-1.0565,-1.0611,-1.0854,-1.1106,-1.0953,-1.0726,-1.0558,-1.0258,-0.9929,-0.9769,-1.0438,-1.0804,-1.1057,-1.2026,-1.2434,-1.2206,-1.1963,-1.1648,-1.1474,-1.1024,-1.0746,-1.0833,-1.0871,-1.0871,-1.0919,-1.0968,-1.1158,-1.1452,-1.1559,-1.1502,-1.1251,-1.0916,-1.0691,-1.0798,-1.1163,-1.1566,-1.1835,-1.2533,-1.3138,-1.3387,-1.3535,-1.3715,-1.3947,-1.398,-1.3802,-1.3769,-1.4092,-1.4332,-1.4332,-1.462,-1.4808,-1.4994,-1.5193,-1.5507,-1.577,-1.577,-1.5755,-1.5998,-1.6532,-1.662,-1.6437,-1.6542,-1.6712,-1.6253,-1.6371,-1.6633,-1.6942,-1.7224,-1.7502,-1.7749,-1.7975,-1.8149,-1.8351,-1.8506,-1.8677,-1.8752,-1.8807,-1.8896,-1.8931,-1.9052,-1.9101,-1.9289,-1.9523,-1.972,-1.9873,-1.9915,-1.9955,-1.9958,-1.9979,-1.9939,-1.9939,-2.001,-2.005,-2.006,-2.0089,-2.0089,-0.5809,-0.6027,-0.5718,-0.5665,-0.5786,-0.5695,-0.6009,-0.6671,-0.6959,-0.7349,-0.7927,-0.8325,-0.8619,-0.8549,-0.9518,-0.9761,-0.9914,-1.0654,-1.0758,-1.0614,-1.0509,-1.077,-1.1326,-1.1143,-1.0858,-1.0594,-1.028,-0.9965,-0.9814,-1.019,-1.0403,-1.0761,-1.1619,-1.1893,-1.1808,-1.1676,-1.1516,-1.1304,-1.0874,-1.0718,-1.0784,-1.0822,-1.0881,-1.0995,-1.1212,-1.1426,-1.1611,-1.1569,-1.14,-1.1285,-1.086,-1.0663,-1.0735,-1.0865,-1.1231,-1.1847,-1.2633,-1.3319,-1.3635,-1.3749,-1.3947,-1.4222,-1.4046,-1.3835,-1.4046,-1.4351,-1.4525,-1.4511,-1.47,-1.4994,-1.5208,-1.5403,-1.5654,-1.5871,-1.5885,-1.6026,-1.6151,-1.6316,-1.6344,-1.6222,-1.6332,-1.6289,-1.6371,-1.6596,-1.6917,-1.6942,-1.724,-1.7455,-1.7681,-1.7905,-1.8023,-1.817,-1.831,-1.8448,-1.8487,-1.8506,-1.8622,-1.8734,-1.8913,-1.9016,-1.9164,-1.9376,-1.9585,-1.9732,-1.9823,-1.9823,-1.9781,-1.9793,-1.9786,-1.9821,-1.9885,-1.996,-2.003,-2.003,-2.003,-0.572,-0.6176,-0.5762,-0.5654,-0.5768,-0.5674,-0.5683,-0.5951,-0.6296,-0.6556,-0.6872,-0.7927,-0.8447,-0.8549,-0.9627,-1.0246,-1.004,-1.0546,-1.0885,-1.1138,-1.1052,-1.1037,-1.1238,-1.1106,-1.0894,-1.0616,-1.0514,-1.0163,-0.9858,-1.0087,-1.0403,-1.0557,-1.136,-1.207,-1.1965,-1.1688,-1.175,-1.1671,-1.1025,-1.0718,-1.0833,-1.0871,-1.0995,-1.1185,-1.1463,-1.1675,-1.1811,-1.189,-1.1721,-1.1319,-1.0929,-1.0743,-1.0772,-1.1148,-1.1482,-1.1883,-1.2645,-1.3353,-1.3669,-1.398,-1.4319,-1.4588,-1.4574,-1.4669,-1.4887,-1.4918,-1.4994,-1.5041,-1.5209,-1.5344,-1.5448,-1.5654,-1.5799,-1.5913,-1.6026,-1.6139,-1.6194,-1.6222,-1.625,-1.6207,-1.6207,-1.6234,-1.6194,-1.6289,-1.6596,-1.6917,-1.7167,-1.7361,-1.7589,-1.7794,-1.7888,-1.7941,-1.8086,-1.8225,-1.8307,-1.8348,-1.845,-1.8622,-1.8807,-1.893,-1.9082,-1.9256,-1.9476,-1.963,-1.972,-1.9707,-1.9643,-1.9663,-1.967,-1.9713,-1.9769,-1.9839,-1.9907,-1.9928,-1.995,-0.541,-0.6066,-0.5852,-0.584,-0.585,-0.5665,-0.5663,-0.5713,-0.6062,-0.6226,-0.647,-0.7627,-0.8086,-0.8151,-0.9271,-0.9805,-0.9904,-1.0228,-1.0663,-1.0939,-1.0916,-1.0863,-1.116,-1.0972,-1.0792,-1.0463,-1.0521,-1.0214,-0.988,-0.9873,-1.0035,-1.0138,-1.1099,-1.1469,-1.1583,-1.1579,-1.1638,-1.1529,-1.1074,-1.0784,-1.0881,-1.0995,-1.1212,-1.1426,-1.1712,-1.1847,-1.1957,-1.2029,-1.1928,-1.1687,-1.1423,-1.1077,-1.0842,-1.1286,-1.1611,-1.1886,-1.2814,-1.3441,-1.3782,-1.4208,-1.462,-1.4763,-1.4902,-1.5025,-1.5178,-1.5268,-1.5268,-1.5268,-1.5374,-1.5551,-1.5683,-1.577,-1.5928,-1.6055,-1.6139,-1.6194,-1.6194,-1.6194,-1.6194,-1.6194,-1.6222,-1.6222,-1.6222,-1.625,-1.6425,-1.6805,-1.6993,-1.7191,-1.724,-1.7455,-1.7595,-1.7693,-1.7866,-1.8014,-1.8121,-1.8225,-1.833,-1.8508,-1.8752,-1.8878,-1.9,-1.918,-1.938,-1.9481,-1.955,-1.9536,-1.9495,-1.9532,-1.9572,-1.9599,-1.9638,-1.9701,-1.975,-1.9786,-1.9828,-0.4921,-0.5774,-0.5862,-0.5956,-0.5909,-0.5711,-0.5648,-0.5765,-0.6015,-0.6171,-0.639,-0.7213,-0.77,-0.7867,-0.8692,-0.927,-0.9599,-0.9959,-1.053,-1.0965,-1.082,-1.0895,-1.1106,-1.0941,-1.0632,-1.0192,-1.0346,-1.0126,-0.9753,-0.9614,-0.9718,-0.9821,-1.0541,-1.0939,-1.0867,-1.1167,-1.1402,-1.1271,-1.0904,-1.0756,-1.0881,-1.1033,-1.1287,-1.1601,-1.1811,-1.1932,-1.2029,-1.2066,-1.2054,-1.2066,-1.2066,-1.1688,-1.1327,-1.1359,-1.1753,-1.1936,-1.3015,-1.3485,-1.3631,-1.4228,-1.4735,-1.471,-1.4996,-1.5208,-1.5268,-1.5374,-1.5374,-1.5344,-1.5403,-1.5522,-1.5799,-1.5871,-1.597,-1.6083,-1.6166,-1.6194,-1.6194,-1.6194,-1.6194,-1.6194,-1.6194,-1.6194,-1.625,-1.6305,-1.6479,-1.6623,-1.6815,-1.6968,-1.7043,-1.7167,-1.7337,-1.7502,-1.7664,-1.7883,-1.8031,-1.8138,-1.8246,-1.8391,-1.8641,-1.8789,-1.8913,-1.9082,-1.9243,-1.9292,-1.9338,-1.9368,-1.9398,-1.9427,-1.9452,-1.9476,-1.9504,-1.9526,-1.9599,-1.9682,-1.9695,-0.4455,-0.4913,-0.5554,-0.5803,-0.5912,-0.5718,-0.5665,-0.5658,-0.5797,-0.5996,-0.6302,-0.7065,-0.7721,-0.82,-0.8793,-0.935,-0.9794,-1.0137,-1.0555,-1.0955,-1.1027,-1.1218,-1.1081,-1.0957,-1.0646,-1.0265,-1.0163,-0.9958,-0.9709,-0.9614,-0.9614,-0.9718,-1.0241,-1.0511,-1.0656,-1.0749,-1.1041,-1.1175,-1.0795,-1.0651,-1.0843,-1.1033,-1.125,-1.1627,-1.1884,-1.2029,-1.2077,-1.2066,-1.2066,-1.2066,-1.2066,-1.2034,-1.1931,-1.2001,-1.213,-1.2447,-1.3107,-1.3552,-1.3427,-1.4137,-1.441,-1.4377,-1.477,-1.5239,-1.5374,-1.5463,-1.5463,-1.5433,-1.5314,-1.5358,-1.5551,-1.5741,-1.59,-1.5985,-1.6111,-1.6194,-1.6194,-1.6194,-1.6194,-1.6194,-1.6194,-1.6194,-1.625,-1.6305,-1.6371,-1.6479,-1.6596,-1.6738,-1.6841,-1.6993,-1.7167,-1.732,-1.7486,-1.7726,-1.7961,-1.8053,-1.818,-1.8287,-1.8487,-1.8659,-1.8807,-1.8982,-1.9099,-1.923,-1.9326,-1.9387,-1.9387,-1.939,-1.9387,-1.9409,-1.9409,-1.9376,-1.9462,-1.9564,-1.9545,-0.3207,-0.3826,-0.4783,-0.5179,-0.5244,-0.5578,-0.5772,-0.5821,-0.5848,-0.5949,-0.6339,-0.6955,-0.7579,-0.809,-0.8508,-0.9111,-0.9719,-1.01,-1.0474,-1.0833,-1.1012,-1.1171,-1.1088,-1.0892,-1.0624,-1.0316,-1.0038,-0.9797,-0.9629,-0.9614,-0.9614,-0.9718,-1.0138,-1.0498,-1.0681,-1.0778,-1.0956,-1.1152,-1.0883,-1.0641,-1.0919,-1.1061,-1.1415,-1.1737,-1.1968,-1.2066,-1.2066,-1.2066,-1.2066,-1.2066,-1.2066,-1.2174,-1.2282,-1.2389,-1.2496,-1.2814,-1.3344,-1.369,-1.3608,-1.4296,-1.4488,-1.4516,-1.4913,-1.5179,-1.5344,-1.5403,-1.5477,-1.5433,-1.5163,-1.5147,-1.5463,-1.561,-1.5741,-1.5928,-1.6055,-1.6166,-1.6194,-1.6194,-1.6194,-1.6166,-1.6166,-1.6166,-1.6194,-1.625,-1.6277,-1.6359,-1.6398,-1.6517,-1.6649,-1.6815,-1.6993,-1.7248,-1.7479,-1.7794,-1.8027,-1.8138,-1.8222,-1.8304,-1.8469,-1.8642,-1.8843,-1.9049,-1.9214,-1.936,-1.9405,-1.942,-1.9435,-1.9435,-1.9387,-1.9357,-1.9353,-1.9365,-1.9394,-1.9423,-1.9438,-0.1958,-0.266,-0.3964,-0.4538,-0.4686,-0.5359,-0.5875,-0.5969,-0.5884,-0.5876,-0.6098,-0.6591,-0.7026,-0.7578,-0.8154,-0.872,-0.9425,-0.9684,-1.0253,-1.0492,-1.0702,-1.0873,-1.0984,-1.0666,-1.0315,-1.047,-0.9882,-0.9569,-0.9621,-0.9614,-0.9614,-0.9725,-1.0087,-1.0454,-1.0605,-1.0656,-1.0985,-1.1018,-1.0962,-1.0811,-1.1016,-1.1314,-1.1664,-1.1993,-1.2066,-1.2066,-1.2066,-1.2066,-1.2066,-1.2066,-1.2102,-1.221,-1.2437,-1.2544,-1.2779,-1.3229,-1.3628,-1.3875,-1.4014,-1.4424,-1.4589,-1.4443,-1.4941,-1.5133,-1.5208,-1.5314,-1.5403,-1.5314,-1.5072,-1.4994,-1.5314,-1.5433,-1.558,-1.5827,-1.597,-1.6067,-1.6083,-1.6083,-1.6039,-1.6039,-1.6067,-1.6123,-1.6166,-1.6194,-1.625,-1.625,-1.6305,-1.6344,-1.649,-1.6633,-1.6866,-1.7216,-1.7526,-1.79,-1.8134,-1.8284,-1.8345,-1.8406,-1.866,-1.8913,-1.9049,-1.9214,-1.9344,-1.9435,-1.9453,-1.9468,-1.9483,-1.945,-1.9387,-1.9338,-1.9323,-1.9338,-1.935,-1.9368,-1.9383,-0.1488,-0.1877,-0.3362,-0.4282,-0.4693,-0.5258,-0.5666,-0.5786,-0.5693,-0.5695,-0.5744,-0.5713,-0.603,-0.6713,-0.7731,-0.8122,-0.8589,-0.9447,-0.9967,-0.9973,-1.0382,-1.0704,-1.1048,-1.0344,-1.0137,-1.0172,-0.9692,-0.9553,-0.951,-0.9562,-0.9614,-0.9673,-0.9888,-1.0102,-1.0305,-1.0481,-1.036,-1.0427,-1.0489,-1.0735,-1.1134,-1.1389,-1.1627,-1.1847,-1.1993,-1.2066,-1.2066,-1.2066,-1.2113,-1.2113,-1.2113,-1.2258,-1.2473,-1.272,-1.3195,-1.3602,-1.3828,-1.3709,-1.366,-1.4218,-1.4533,-1.4415,-1.4768,-1.509,-1.5178,-1.5147,-1.5133,-1.4902,-1.4808,-1.4887,-1.5147,-1.5238,-1.5492,-1.5624,-1.5741,-1.5784,-1.5856,-1.5841,-1.5812,-1.5812,-1.5841,-1.5983,-1.6083,-1.6166,-1.6194,-1.6194,-1.6222,-1.6262,-1.6409,-1.6633,-1.6942,-1.7337,-1.7658,-1.7988,-1.8201,-1.8365,-1.8487,-1.8526,-1.8843,-1.9132,-1.923,-1.9326,-1.9402,-1.9479,-1.9497,-1.9501,-1.9468,-1.9435,-1.9372,-1.9338,-1.9323,-1.9305,-1.9286,-1.9323,-1.9308,-0.0538,-0.0845,-0.2575,-0.3383,-0.3672,-0.4905,-0.5565,-0.5643,-0.5385,-0.54,-0.5547,-0.5325,-0.5589,-0.6312,-0.7281,-0.7711,-0.7925,-0.8818,-0.9181,-0.9228,-0.9579,-0.9916,-0.991,-0.9558,-0.9405,-0.9459,-0.9207,-0.9022,-0.9204,-0.9517,-0.9614,-0.9673,-0.9888,-1.0154,-1.0233,-1.0499,-1.0497,-1.0508,-1.0567,-1.0823,-1.1168,-1.149,-1.1737,-1.1957,-1.2041,-1.2066,-1.2066,-1.2066,-1.2113,-1.2138,-1.2138,-1.2425,-1.2836,-1.3113,-1.3421,-1.4046,-1.4195,-1.4124,-1.4038,-1.4391,-1.4401,-1.4421,-1.467,-1.4949,-1.4978,-1.4963,-1.4963,-1.4808,-1.4808,-1.4871,-1.5008,-1.5131,-1.5268,-1.5418,-1.5507,-1.5551,-1.561,-1.558,-1.5566,-1.5566,-1.561,-1.5784,-1.5926,-1.6011,-1.6095,-1.6234,-1.6262,-1.6344,-1.6554,-1.6825,-1.7191,-1.7589,-1.7833,-1.8091,-1.8284,-1.8448,-1.8623,-1.8753,-1.9067,-1.9311,-1.9375,-1.9435,-1.9479,-1.9508,-1.9493,-1.9479,-1.9416,-1.942,-1.9372,-1.9357,-1.9323,-1.925,-1.9176,-1.9167,-1.8916,0.0223,-0.0074,-0.1652,-0.247,-0.2814,-0.4353,-0.5229,-0.5495,-0.5173,-0.5156,-0.5189,-0.5085,-0.5327,-0.5948,-0.6572,-0.6966,-0.7247,-0.7887,-0.8138,-0.8354,-0.8578,-0.8904,-0.8999,-0.8731,-0.8589,-0.8775,-0.8784,-0.8699,-0.8949,-0.9309,-0.9614,-0.9614,-0.9888,-1.0102,-1.0399,-1.0615,-1.0763,-1.0731,-1.0644,-1.0842,-1.125,-1.1553,-1.1811,-1.1993,-1.2066,-1.2066,-1.2066,-1.2066,-1.2102,-1.2138,-1.2246,-1.2591,-1.3079,-1.3148,-1.3467,-1.3947,-1.4084,-1.4006,-1.4068,-1.4328,-1.4483,-1.456,-1.4669,-1.4839,-1.4839,-1.4808,-1.4808,-1.4808,-1.4808,-1.4808,-1.4839,-1.4994,-1.5117,-1.5208,-1.5268,-1.5344,-1.5403,-1.5329,-1.5344,-1.5374,-1.5433,-1.561,-1.5755,-1.5812,-1.5983,-1.6207,-1.6301,-1.6409,-1.6712,-1.7027,-1.7361,-1.7743,-1.7992,-1.8222,-1.8426,-1.8584,-1.8735,-1.8912,-1.923,-1.9375,-1.9357,-1.9416,-1.9475,-1.9489,-1.9508,-1.9216,-1.9021,-1.9214,-1.9405,-1.9405,-1.9368,-1.9151,-1.9062,-1.8965,-1.8242,0.0423,0.0212,-0.0815,-0.1828,-0.2781,-0.3648,-0.4476,-0.5075,-0.5023,-0.4801,-0.4713,-0.4599,-0.4823,-0.5266,-0.5763,-0.6128,-0.638,-0.7359,-0.7544,-0.7656,-0.7885,-0.8198,-0.8234,-0.8109,-0.8068,-0.8618,-0.8483,-0.8427,-0.8633,-0.904,-0.9406,-0.9673,-0.9888,-0.9991,-1.021,-1.0597,-1.0907,-1.0912,-1.0794,-1.0934,-1.1329,-1.1586,-1.1774,-1.2029,-1.2066,-1.2066,-1.2066,-1.2066,-1.215,-1.2186,-1.2389,-1.2661,-1.3113,-1.316,-1.3467,-1.3735,-1.3735,-1.3622,-1.3676,-1.4163,-1.4511,-1.4511,-1.4574,-1.4777,-1.4714,-1.4763,-1.4777,-1.4714,-1.4637,-1.4732,-1.4763,-1.4825,-1.4949,-1.5056,-1.5117,-1.5133,-1.5133,-1.5072,-1.5072,-1.5162,-1.5268,-1.5448,-1.5682,-1.5797,-1.608,-1.6301,-1.6501,-1.6607,-1.6942,-1.7264,-1.7526,-1.7839,-1.8121,-1.8368,-1.8603,-1.8752,-1.8807,-1.8965,-1.9214,-1.9261,-1.9246,-1.9323,-1.9489,-1.9475,-1.9456,-1.9045,-1.8712,-1.8906,-1.9113,-1.939,-1.9302,-1.8669,-1.8078,-1.7662,-1.6851,0.056,0.0281,-0.0073,-0.0883,-0.1978,-0.309,-0.3828,-0.4229,-0.4384,-0.4516,-0.4503,-0.4597,-0.4773,-0.5037,-0.5339,-0.5624,-0.5787,-0.6413,-0.6657,-0.6757,-0.6968,-0.7173,-0.7295,-0.7402,-0.7502,-0.7972,-0.7973,-0.8096,-0.8421,-0.862,-0.862,-0.8988,-0.9732,-0.9991,-1.021,-1.0539,-1.0915,-1.1049,-1.1051,-1.1236,-1.1431,-1.1786,-1.1932,-1.2066,-1.2066,-1.2066,-1.2066,-1.2066,-1.2222,-1.2437,-1.2615,-1.2883,-1.3195,-1.3229,-1.3399,-1.3635,-1.3467,-1.3319,-1.3251,-1.3769,-1.4078,-1.4429,-1.4574,-1.47,-1.4556,-1.4511,-1.4337,-1.4273,-1.4369,-1.4479,-1.4525,-1.4669,-1.4856,-1.4932,-1.4963,-1.4963,-1.4887,-1.4811,-1.4873,-1.498,-1.5118,-1.5255,-1.5551,-1.5811,-1.612,-1.6421,-1.6607,-1.6841,-1.7117,-1.7432,-1.7726,-1.7954,-1.8208,-1.8428,-1.8641,-1.8752,-1.8861,-1.9017,-1.9182,-1.9198,-1.9214,-1.9416,-1.9555,-1.9541,-1.9382,-1.899,-1.8744,-1.867,-1.8693,-1.8721,-1.8324,-1.7679,-1.7082,-1.6565,-1.5717,0.0692,0.0417,0.0356,-0.0287,-0.1422,-0.2599,-0.3264,-0.3596,-0.4049,-0.4261,-0.4449,-0.4545,-0.4664,-0.4894,-0.51,-0.5274,-0.5405,-0.5832,-0.6002,-0.6113,-0.6183,-0.6365,-0.6547,-0.6687,-0.6926,-0.7279,-0.7461,-0.7676,-0.7949,-0.7943,-0.8043,-0.8573,-0.9465,-0.988,-0.9982,-1.0482,-1.0985,-1.1138,-1.121,-1.1498,-1.1747,-1.1815,-1.2192,-1.2221,-1.2192,-1.2066,-1.2066,-1.2102,-1.2222,-1.2401,-1.265,-1.2849,-1.3091,-1.3263,-1.3344,-1.3344,-1.3263,-1.3148,-1.3079,-1.3297,-1.3669,-1.4046,-1.4429,-1.4383,-1.4254,-1.4189,-1.4189,-1.3848,-1.3993,-1.4157,-1.4235,-1.4479,-1.4606,-1.4637,-1.47,-1.4669,-1.461,-1.4578,-1.469,-1.4783,-1.4968,-1.518,-1.5565,-1.5868,-1.6258,-1.657,-1.6821,-1.7,-1.7199,-1.7519,-1.7861,-1.8082,-1.833,-1.8506,-1.8658,-1.8752,-1.8861,-1.8966,-1.9119,-1.92,-1.9298,-1.9468,-1.9541,-1.9497,-1.928,-1.8934,-1.8458,-1.7937,-1.7839,-1.7884,-1.7351,-1.6778,-1.6593,-1.6081,-1.5192,0.0742,0.0745,0.0347,-0.0355,-0.1367,-0.2033,-0.2572,-0.3053,-0.3882,-0.4241,-0.4201,-0.4244,-0.4439,-0.466,-0.4847,-0.4991,-0.5212,-0.5681,-0.5829,-0.5759,-0.5977,-0.6075,-0.6182,-0.637,-0.6688,-0.6846,-0.7187,-0.7467,-0.7478,-0.7842,-0.7889,-0.8096,-0.904,-0.9873,-0.9562,-1.0395,-1.0963,-1.1193,-1.1228,-1.1647,-1.1908,-1.1848,-1.2151,-1.2264,-1.2261,-1.2077,-1.2066,-1.2066,-1.2186,-1.233,-1.2579,-1.2756,-1.2861,-1.2849,-1.2861,-1.2873,-1.2508,-1.2401,-1.2484,-1.2918,-1.3331,-1.3702,-1.4092,-1.4078,-1.3881,-1.3947,-1.4026,-1.3547,-1.3669,-1.3927,-1.4124,-1.4287,-1.4319,-1.4383,-1.4433,-1.4497,-1.4483,-1.4533,-1.4672,-1.489,-1.4998,-1.5166,-1.5565,-1.5966,-1.6367,-1.6701,-1.6991,-1.7207,-1.7338,-1.7559,-1.7905,-1.8125,-1.8351,-1.8506,-1.8639,-1.8751,-1.8861,-1.8967,-1.9052,-1.9168,-1.9248,-1.9372,-1.9435,-1.9438,-1.9284,-1.905,-1.8015,-1.6977,-1.6954,-1.6893,-1.6454,-1.6017,-1.5896,-1.558,-1.4727,-0.0066,-0.0606,-0.0747,-0.1017,-0.1482,-0.1816,-0.2091,-0.2433,-0.3356,-0.3943,-0.3984,-0.4033,-0.4266,-0.4512,-0.467,-0.488,-0.5363,-0.5568,-0.5687,-0.5908,-0.5982,-0.6207,-0.6307,-0.6374,-0.6658,-0.7166,-0.7456,-0.7461,-0.7628,-0.7729,-0.7568,-0.7723,-0.883,-0.9925,-1.06,-1.1217,-1.1472,-1.1585,-1.1694,-1.1856,-1.1844,-1.1892,-1.2005,-1.2117,-1.2164,-1.2159,-1.2077,-1.2066,-1.215,-1.233,-1.2615,-1.2791,-1.2791,-1.2756,-1.2896,-1.2768,-1.2449,-1.252,-1.2603,-1.2838,-1.3,-1.3365,-1.3669,-1.3735,-1.3467,-1.3467,-1.3378,-1.3276,-1.3365,-1.3547,-1.3715,-1.4,-1.4098,-1.4163,-1.4259,-1.4433,-1.4529,-1.4655,-1.4811,-1.5058,-1.5239,-1.5433,-1.5754,-1.5896,-1.6231,-1.6554,-1.6847,-1.7248,-1.7425,-1.7629,-1.7883,-1.8103,-1.831,-1.8487,-1.862,-1.8732,-1.8861,-1.9002,-1.9086,-1.9148,-1.9227,-1.9308,-1.9357,-1.9375,-1.9287,-1.9077,-1.788,-1.6798,-1.6178,-1.5827,-1.5608,-1.5345,-1.5144,-1.4852,-1.4289,-0.0129,-0.0783,-0.0914,-0.1099,-0.14,-0.186,-0.2142,-0.2534,-0.3323,-0.3747,-0.3747,-0.3913,-0.412,-0.4329,-0.4488,-0.4619,-0.518,-0.5384,-0.5479,-0.5804,-0.5856,-0.5961,-0.6089,-0.6276,-0.6373,-0.6939,-0.7133,-0.7133,-0.7359,-0.7192,-0.7354,-0.7943,-0.8837,-0.9925,-1.0753,-1.1309,-1.161,-1.167,-1.1783,-1.2082,-1.2193,-1.2294,-1.2272,-1.2352,-1.2378,-1.2295,-1.2135,-1.2102,-1.2186,-1.2425,-1.2603,-1.2743,-1.272,-1.272,-1.2814,-1.2579,-1.2556,-1.2627,-1.2639,-1.2745,-1.2896,-1.3069,-1.3365,-1.3365,-1.3195,-1.3229,-1.3104,-1.3,-1.3091,-1.3229,-1.3433,-1.3722,-1.3835,-1.3901,-1.3967,-1.413,-1.4305,-1.4401,-1.4749,-1.5027,-1.5374,-1.5595,-1.5797,-1.5911,-1.608,-1.6367,-1.6659,-1.7076,-1.7479,-1.7681,-1.7816,-1.7997,-1.8229,-1.8408,-1.8545,-1.8677,-1.8825,-1.9019,-1.9069,-1.9099,-1.9146,-1.9212,-1.9261,-1.9295,-1.9185,-1.8788,-1.7645,-1.6706,-1.6022,-1.5493,-1.5164,-1.4838,-1.4463,-1.4204,-1.3931,0.0633,0.0062,-0.0185,-0.0679,-0.1293,-0.2183,-0.2879,-0.345,-0.3575,-0.3577,-0.3574,-0.3846,-0.3981,-0.4082,-0.4343,-0.4419,-0.449,-0.4783,-0.4978,-0.5108,-0.5326,-0.5441,-0.5617,-0.583,-0.6091,-0.6199,-0.648,-0.6977,-0.6982,-0.7144,-0.7568,-0.8362,-0.9197,-1.0041,-1.0738,-1.1283,-1.1601,-1.1742,-1.1994,-1.2263,-1.2447,-1.274,-1.2733,-1.2729,-1.2785,-1.2516,-1.2286,-1.2138,-1.215,-1.2222,-1.2258,-1.2246,-1.221,-1.2174,-1.2258,-1.2365,-1.2508,-1.2556,-1.2591,-1.2709,-1.2768,-1.2896,-1.3057,-1.3,-1.3,-1.3057,-1.3,-1.2943,-1.2978,-1.3126,-1.3285,-1.3399,-1.3514,-1.3547,-1.3581,-1.3715,-1.3881,-1.413,-1.4501,-1.4876,-1.5225,-1.5477,-1.5624,-1.574,-1.5983,-1.6246,-1.6554,-1.6892,-1.7288,-1.7612,-1.7749,-1.7839,-1.804,-1.8287,-1.8428,-1.8544,-1.8715,-1.8878,-1.8931,-1.8983,-1.9049,-1.9097,-1.9115,-1.9115,-1.9081,-1.8509,-1.7446,-1.6549,-1.5782,-1.536,-1.5292,-1.4763,-1.4503,-1.4161,-1.3906,-0.0243,-0.123,-0.1479,-0.1804,-0.2241,-0.2489,-0.2887,-0.3281,-0.3382,-0.3487,-0.346,-0.3657,-0.3779,-0.4015,-0.4028,-0.4234,-0.4398,-0.4609,-0.4687,-0.4835,-0.4918,-0.5096,-0.531,-0.5601,-0.5987,-0.6269,-0.66,-0.6886,-0.7063,-0.723,-0.79,-0.8928,-0.9379,-1.0113,-1.0797,-1.1478,-1.167,-1.1864,-1.2073,-1.2244,-1.2513,-1.2793,-1.2742,-1.254,-1.2842,-1.2562,-1.2313,-1.2186,-1.2222,-1.2305,-1.252,-1.2579,-1.2389,-1.2532,-1.272,-1.2591,-1.2627,-1.2639,-1.2674,-1.2709,-1.278,-1.2803,-1.2896,-1.2873,-1.2896,-1.2965,-1.3012,-1.2943,-1.299,-1.3138,-1.3207,-1.3288,-1.3323,-1.3357,-1.3425,-1.356,-1.3749,-1.4,-1.4406,-1.4814,-1.5165,-1.5389,-1.5507,-1.5726,-1.5955,-1.6163,-1.6436,-1.6738,-1.7068,-1.7401,-1.7681,-1.7772,-1.7883,-1.8103,-1.8205,-1.8325,-1.8526,-1.8697,-1.8807,-1.8914,-1.9035,-1.9067,-1.8999,-1.8895,-1.8789,-1.8199,-1.7347,-1.6658,-1.6341,-1.6011,-1.5832,-1.5148,-1.4553,-1.4302,-1.3968,0.0,-0.0889,-0.123,-0.1696,-0.2257,-0.2364,-0.2585,-0.2773,-0.3098,-0.321,-0.3242,-0.3439,-0.3576,-0.3726,-0.3721,-0.3891,-0.4203,-0.4161,-0.4221,-0.4403,-0.458,-0.4727,-0.5014,-0.5257,-0.5415,-0.591,-0.6312,-0.6487,-0.6707,-0.7154,-0.775,-0.8751,-0.9227,-0.9919,-1.0584,-1.1041,-1.1375,-1.1599,-1.1827,-1.1926,-1.2238,-1.2602,-1.2356,-1.2202,-1.2628,-1.2577,-1.2328,-1.2258,-1.2294,-1.2377,-1.2591,-1.2615,-1.2508,-1.272,-1.2803,-1.2697,-1.2768,-1.2768,-1.2768,-1.285,-1.2885,-1.2885,-1.2873,-1.2955,-1.2943,-1.3012,-1.2978,-1.292,-1.306,-1.3163,-1.3163,-1.3198,-1.3198,-1.321,-1.3369,-1.3493,-1.3715,-1.3934,-1.431,-1.4766,-1.5074,-1.5285,-1.5507,-1.5697,-1.5885,-1.6067,-1.6246,-1.6528,-1.6841,-1.7167,-1.7479,-1.7687,-1.7794,-1.7927,-1.8014,-1.818,-1.8388,-1.8603,-1.877,-1.8896,-1.9019,-1.8984,-1.8878,-1.8679,-1.8471,-1.7922,-1.7449,-1.7511,-1.7277,-1.6849,-1.6413,-1.6045,-1.5396,-1.4816,-1.4399,0.0972,0.0333,-0.0054,-0.0884,-0.1612,-0.1944,-0.2099,-0.2146,-0.2613,-0.2909,-0.2971,-0.3217,-0.3312,-0.3415,-0.348,-0.3554,-0.3741,-0.3734,-0.3876,-0.3976,-0.4193,-0.4364,-0.4546,-0.4689,-0.5086,-0.5246,-0.559,-0.6207,-0.6096,-0.6608,-0.7452,-0.8332,-0.8672,-0.9306,-1.0059,-1.0582,-1.0777,-1.082,-1.1266,-1.1509,-1.181,-1.2183,-1.2516,-1.2424,-1.2632,-1.273,-1.2446,-1.233,-1.233,-1.233,-1.2401,-1.2437,-1.2615,-1.2627,-1.2662,-1.2591,-1.2579,-1.2579,-1.2579,-1.2615,-1.2745,-1.285,-1.3025,-1.3041,-1.2972,-1.3015,-1.3025,-1.3025,-1.3163,-1.3232,-1.3267,-1.3288,-1.3301,-1.3301,-1.3391,-1.3581,-1.3835,-1.4032,-1.4227,-1.4641,-1.4904,-1.5149,-1.5418,-1.561,-1.5726,-1.5926,-1.6095,-1.6328,-1.6538,-1.6876,-1.7216,-1.7509,-1.7732,-1.7839,-1.7949,-1.81,-1.827,-1.8487,-1.8658,-1.8843,-1.8931,-1.8878,-1.8787,-1.8545,-1.8296,-1.8134,-1.7837,-1.7899,-1.7731,-1.7134,-1.6828,-1.6851,-1.6361,-1.566,-1.5007,0.1044,0.0413,-0.0448,-0.0973,-0.1202,-0.1683,-0.1838,-0.191,-0.2217,-0.2512,-0.2778,-0.2978,-0.3078,-0.3117,-0.3236,-0.3318,-0.3407,-0.3478,-0.3598,-0.3764,-0.3913,-0.4044,-0.4313,-0.4572,-0.4884,-0.5286,-0.5688,-0.6086,-0.6371,-0.6734,-0.7212,-0.8112,-0.8378,-0.8837,-0.9547,-1.0003,-1.0153,-1.002,-1.0507,-1.0899,-1.1197,-1.1975,-1.2511,-1.2218,-1.2117,-1.2226,-1.1994,-1.1847,-1.1811,-1.1799,-1.2222,-1.2508,-1.2791,-1.2591,-1.252,-1.2449,-1.2245,-1.2207,-1.2278,-1.235,-1.2396,-1.229,-1.2386,-1.2696,-1.2866,-1.3043,-1.3166,-1.3201,-1.3232,-1.3254,-1.3323,-1.3391,-1.3425,-1.3425,-1.3425,-1.3669,-1.3921,-1.4065,-1.4176,-1.4433,-1.4732,-1.5011,-1.5284,-1.5492,-1.561,-1.5726,-1.5885,-1.6039,-1.6172,-1.6454,-1.6876,-1.7224,-1.7641,-1.7794,-1.7844,-1.7954,-1.8125,-1.829,-1.845,-1.8641,-1.8825,-1.8733,-1.8638,-1.8371,-1.8125,-1.813,-1.821,-1.8311,-1.8021,-1.7485,-1.7359,-1.7458,-1.7287,-1.6674,-1.5972,0.1463,0.1055,0.0048,-0.0376,-0.0462,-0.0994,-0.1299,-0.1435,-0.166,-0.2043,-0.2447,-0.263,-0.2765,-0.2868,-0.3006,-0.3127,-0.322,-0.3353,-0.3445,-0.3575,-0.3704,-0.3803,-0.4114,-0.439,-0.4451,-0.4833,-0.5356,-0.5835,-0.652,-0.663,-0.6951,-0.7798,-0.8061,-0.832,-0.8947,-0.9261,-0.93,-0.9116,-0.9758,-1.014,-1.0433,-1.1216,-1.1786,-1.1486,-1.1643,-1.1713,-1.1808,-1.17,-1.1763,-1.1847,-1.2222,-1.2222,-1.2389,-1.2318,-1.2258,-1.223,-1.2139,-1.2125,-1.2159,-1.22,-1.2262,-1.2361,-1.2609,-1.324,-1.3403,-1.3553,-1.3631,-1.3654,-1.3389,-1.3369,-1.3425,-1.3446,-1.3446,-1.3446,-1.3446,-1.3615,-1.3749,-1.3848,-1.396,-1.4059,-1.4415,-1.4856,-1.5193,-1.5639,-1.5726,-1.5639,-1.577,-1.577,-1.5881,-1.6102,-1.6496,-1.6901,-1.732,-1.7589,-1.7635,-1.7755,-1.7932,-1.8103,-1.8273,-1.845,-1.8622,-1.8563,-1.8445,-1.831,-1.8293,-1.8455,-1.8531,-1.8526,-1.845,-1.8036,-1.8031,-1.8099,-1.7837,-1.7522,-1.6991,0.1937,0.1832,0.0958,0.0555,0.0404,-0.0134,-0.0582,-0.0895,-0.121,-0.1614,-0.2068,-0.2196,-0.2417,-0.2598,-0.2779,-0.2907,-0.3037,-0.3176,-0.3309,-0.3442,-0.3575,-0.3663,-0.3792,-0.398,-0.4308,-0.4662,-0.5139,-0.5779,-0.6459,-0.6475,-0.6728,-0.7439,-0.7685,-0.7709,-0.8245,-0.8396,-0.8357,-0.8643,-0.9067,-0.9274,-0.9755,-1.0293,-1.0784,-1.1115,-1.1271,-1.1542,-1.1653,-1.1774,-1.1836,-1.1993,-1.215,-1.2258,-1.2222,-1.221,-1.2102,-1.2121,-1.2264,-1.2395,-1.253,-1.2681,-1.2917,-1.3229,-1.3576,-1.3749,-1.3789,-1.3911,-1.3994,-1.4001,-1.3707,-1.3411,-1.3433,-1.3412,-1.3412,-1.3438,-1.3472,-1.3506,-1.362,-1.3721,-1.3801,-1.3834,-1.4235,-1.4683,-1.5058,-1.5536,-1.5624,-1.558,-1.558,-1.5551,-1.5624,-1.5924,-1.627,-1.6644,-1.7043,-1.7216,-1.7401,-1.7566,-1.7755,-1.7975,-1.8149,-1.831,-1.8448,-1.8448,-1.8465,-1.8408,-1.8467,-1.8584,-1.8604,-1.8566,-1.8471,-1.8375,-1.8132,-1.801,-1.8038,-1.78,-1.782,0.1837,0.1788,0.1455,0.1263,0.103,0.0492,-0.0089,-0.0582,-0.1074,-0.1435,-0.1569,-0.1792,-0.2059,-0.2368,-0.2504,-0.2682,-0.2862,-0.2998,-0.322,-0.3394,-0.3486,-0.3571,-0.3748,-0.4012,-0.4583,-0.498,-0.5305,-0.5807,-0.6235,-0.624,-0.6445,-0.7031,-0.7087,-0.7328,-0.7881,-0.7987,-0.8136,-0.8464,-0.8756,-0.903,-0.9301,-0.9894,-1.0562,-1.0829,-1.0905,-1.1132,-1.1282,-1.1394,-1.1431,-1.1579,-1.1884,-1.2174,-1.2222,-1.2138,-1.2041,-1.2008,-1.2168,-1.2352,-1.2468,-1.2611,-1.281,-1.3226,-1.3444,-1.3609,-1.3738,-1.3858,-1.4069,-1.4391,-1.4063,-1.3445,-1.3332,-1.3132,-1.3104,-1.3235,-1.3295,-1.3471,-1.3599,-1.3757,-1.3879,-1.3974,-1.4197,-1.4493,-1.4704,-1.5043,-1.5225,-1.5239,-1.5328,-1.5328,-1.5359,-1.5682,-1.6024,-1.634,-1.6712,-1.7093,-1.7377,-1.7432,-1.7618,-1.7827,-1.8044,-1.8208,-1.8348,-1.8428,-1.8408,-1.8368,-1.8485,-1.8601,-1.8603,-1.8585,-1.8508,-1.8353,-1.7915,-1.7755,-1.79,-1.8023,-1.8]}]]